dateAir_TemperaturedateAir_PressuredateRadiationdateWind_DirectiondateWind_SpeeddateRelative_HumiditydateDew_Point_TempdateVirtual_TempdateEvaporationdatePrecipitation
1/4/2017 15:0023.41/4/2017 15:00991.61/4/2017 15:002271/4/2017 15:004012/16/2017 0:002.90000009536741/4/2017 15:0067.71/4/2017 15:0017.212/16/2017 0:0023.612/16/2017 0:0055.312/16/2017 0:000.0
1/16/2017 0:0020.21/16/2017 0:00994.81/16/2017 0:0001/16/2017 0:005212/15/2017 23:003.09999990463261/16/2017 0:0070.41/16/2017 0:0014.712/15/2017 23:0023.712/15/2017 23:0055.312/15/2017 23:000.0
1/17/2017 1:0020.31/17/2017 1:00994.01/17/2017 1:0001/17/2017 1:004612/15/2017 22:002.70000004768371/17/2017 1:0072.81/17/2017 1:0015.312/15/2017 22:0023.712/15/2017 22:0055.312/15/2017 22:000.0
1/17/2017 2:0020.31/17/2017 2:00993.61/17/2017 2:0001/17/2017 2:005812/15/2017 21:0031/17/2017 2:0073.31/17/2017 2:0015.412/15/2017 21:0023.712/15/2017 21:0055.312/15/2017 21:000.0
1/17/2017 3:0020.31/17/2017 3:00993.11/17/2017 3:0001/17/2017 3:005012/15/2017 20:003.59999990463261/17/2017 3:0073.91/17/2017 3:0015.612/15/2017 20:0023.812/15/2017 20:0055.312/15/2017 20:000.0
1/17/2017 4:0020.31/17/2017 4:00992.81/17/2017 4:0001/17/2017 4:004612/15/2017 19:004.90000009536741/17/2017 4:0074.11/17/2017 4:0015.612/15/2017 19:0024.212/15/2017 19:0055.312/15/2017 19:000.0
1/17/2017 5:0020.31/17/2017 5:00993.01/17/2017 5:0001/17/2017 5:005412/15/2017 18:004.80000019073491/17/2017 5:0073.71/17/2017 5:0015.512/15/2017 18:0024.312/15/2017 18:0055.312/15/2017 18:000.0
1/17/2017 6:0020.41/17/2017 6:00993.41/17/2017 6:0001/17/2017 6:006912/15/2017 17:004.59999990463261/17/2017 6:0074.11/17/2017 6:0015.712/15/2017 17:0024.612/15/2017 17:0055.312/15/2017 17:000.0
1/17/2017 7:0020.41/17/2017 7:00993.91/17/2017 7:0041/17/2017 7:005112/15/2017 16:0061/17/2017 7:0074.11/17/2017 7:0015.712/15/2017 16:0025.012/15/2017 16:0055.312/15/2017 16:000.0
1/17/2017 8:0020.61/17/2017 8:00994.51/17/2017 8:00581/17/2017 8:004912/15/2017 15:005.90000009536741/17/2017 8:0073.31/17/2017 8:0015.712/15/2017 15:0025.712/15/2017 15:0055.412/15/2017 15:000.0
1/17/2017 9:0022.21/17/2017 9:00995.51/17/2017 9:003621/17/2017 9:004312/15/2017 14:006.59999990463261/17/2017 9:0067.71/17/2017 9:0016.012/15/2017 14:0026.812/15/2017 14:0055.412/15/2017 14:000.0
1/17/2017 10:0024.01/17/2017 10:00995.91/17/2017 10:006451/17/2017 10:004612/15/2017 13:0061/17/2017 10:0062.51/17/2017 10:0016.512/15/2017 13:0027.312/15/2017 13:0055.412/15/2017 13:000.0
1/17/2017 11:0024.51/17/2017 11:00995.61/17/2017 11:006241/17/2017 11:004412/15/2017 12:005.09999990463261/17/2017 11:0061.11/17/2017 11:0016.612/15/2017 12:0027.612/15/2017 12:0055.412/15/2017 12:000.0
1/17/2017 12:0025.11/17/2017 12:00995.01/17/2017 12:006641/17/2017 12:004212/15/2017 11:0051/17/2017 12:0059.41/17/2017 12:0016.712/15/2017 11:0027.012/15/2017 11:0055.412/15/2017 11:000.0
1/17/2017 13:0025.21/17/2017 13:00994.11/17/2017 13:004961/17/2017 13:004112/15/2017 10:0051/17/2017 13:0059.01/17/2017 13:0016.712/15/2017 10:0026.112/15/2017 10:0055.412/15/2017 10:000.0
1/17/2017 14:0025.41/17/2017 14:00993.11/17/2017 14:004381/17/2017 14:005312/15/2017 9:004.19999980926511/17/2017 14:0058.41/17/2017 14:0016.712/15/2017 9:0025.212/15/2017 9:0055.412/15/2017 9:000.0
1/17/2017 15:0024.41/17/2017 15:00993.01/17/2017 15:003461/17/2017 15:004712/15/2017 8:003.51/17/2017 15:0061.41/17/2017 15:0016.612/15/2017 8:0024.112/15/2017 8:0055.312/15/2017 8:000.0
1/17/2017 16:0023.01/17/2017 16:00993.11/17/2017 16:001911/17/2017 16:004512/15/2017 7:003.29999995231631/17/2017 16:0064.91/17/2017 16:0016.112/15/2017 7:0023.412/15/2017 7:0055.312/15/2017 7:000.0
1/17/2017 17:0022.21/17/2017 17:00993.71/17/2017 17:00831/17/2017 17:004412/15/2017 6:002.90000009536741/17/2017 17:0066.51/17/2017 17:0015.712/15/2017 6:0023.312/15/2017 6:0055.312/15/2017 6:000.0
1/17/2017 18:0021.51/17/2017 18:00994.21/17/2017 18:00131/17/2017 18:005112/15/2017 5:002.40000009536741/17/2017 18:0068.81/17/2017 18:0015.612/15/2017 5:0023.412/15/2017 5:0055.312/15/2017 5:000.0
1/17/2017 19:0021.41/17/2017 19:00995.01/17/2017 19:0001/17/2017 19:005212/15/2017 4:002.51/17/2017 19:0069.21/17/2017 19:0015.612/15/2017 4:0023.412/15/2017 4:0055.312/15/2017 4:000.0
1/17/2017 20:0021.21/17/2017 20:00995.81/17/2017 20:0001/17/2017 20:004812/15/2017 3:002.40000009536741/17/2017 20:0070.31/17/2017 20:0015.612/15/2017 3:0023.412/15/2017 3:0055.312/15/2017 3:000.0
1/17/2017 21:0020.91/17/2017 21:00996.41/17/2017 21:0001/17/2017 21:004512/15/2017 2:0031/17/2017 21:0071.41/17/2017 21:0015.612/15/2017 2:0023.512/15/2017 2:0055.312/15/2017 2:000.0
1/17/2017 22:0020.91/17/2017 22:00996.71/17/2017 22:0001/17/2017 22:004512/15/2017 1:003.09999990463261/17/2017 22:0071.71/17/2017 22:0015.712/15/2017 1:0023.612/15/2017 1:0055.312/15/2017 1:000.0
1/17/2017 23:0020.81/17/2017 23:00996.81/17/2017 23:0001/17/2017 23:004612/15/2017 0:003.09999990463261/17/2017 23:0072.01/17/2017 23:0015.612/15/2017 0:0023.912/15/2017 0:0055.312/15/2017 0:000.0
1/18/2017 0:0020.81/18/2017 0:00996.61/18/2017 0:0001/18/2017 0:004412/14/2017 23:003.40000009536741/18/2017 0:0072.41/18/2017 0:0015.712/14/2017 23:0024.112/14/2017 23:0055.312/14/2017 23:000.0
1/18/2017 1:0020.61/18/2017 1:00996.51/18/2017 1:0001/18/2017 1:004012/14/2017 22:003.40000009536741/18/2017 1:0073.21/18/2017 1:0015.712/14/2017 22:0024.312/14/2017 22:0055.312/14/2017 22:000.0
1/18/2017 2:0020.41/18/2017 2:00996.01/18/2017 2:0001/18/2017 2:005212/14/2017 21:003.59999990463261/18/2017 2:0073.91/18/2017 2:0015.712/14/2017 21:0024.612/14/2017 21:0055.312/14/2017 21:000.0
1/18/2017 3:0020.31/18/2017 3:00995.61/18/2017 3:0001/18/2017 3:005812/14/2017 20:001.70000004768371/18/2017 3:0074.61/18/2017 3:0015.712/14/2017 20:0027.012/14/2017 20:000.012/14/2017 19:000.0
1/18/2017 4:0020.31/18/2017 4:00995.31/18/2017 4:0001/18/2017 4:006512/14/2017 19:003.79999995231631/18/2017 4:0074.31/18/2017 4:0015.612/14/2017 19:0025.412/14/2017 19:0055.312/14/2017 18:000.0
1/18/2017 5:0020.91/18/2017 5:00995.21/18/2017 5:0001/18/2017 5:005312/14/2017 18:004.09999990463261/18/2017 5:0071.81/18/2017 5:0015.712/14/2017 18:0026.312/14/2017 18:0055.312/14/2017 17:000.0
1/18/2017 6:0020.91/18/2017 6:00995.51/18/2017 6:0001/18/2017 6:007512/14/2017 17:004.40000009536741/18/2017 6:0072.21/18/2017 6:0015.812/14/2017 17:0027.612/14/2017 17:0055.312/14/2017 16:000.0
1/18/2017 7:0021.01/18/2017 7:00996.01/18/2017 7:0061/18/2017 7:005912/14/2017 16:004.30000019073491/18/2017 7:0072.01/18/2017 7:0015.812/14/2017 16:0029.212/14/2017 16:0055.412/14/2017 15:000.0
1/18/2017 8:0021.61/18/2017 8:00996.81/18/2017 8:001411/18/2017 8:007212/14/2017 15:0041/18/2017 8:0070.71/18/2017 8:0016.112/14/2017 15:0030.612/14/2017 15:0055.312/14/2017 14:000.0
1/18/2017 9:0023.41/18/2017 9:00997.41/18/2017 9:004181/18/2017 9:006412/14/2017 14:003.20000004768371/18/2017 9:0065.21/18/2017 9:0016.612/14/2017 14:0031.012/14/2017 14:0055.312/14/2017 13:000.0
1/18/2017 10:0024.41/18/2017 10:00997.81/18/2017 10:005591/18/2017 10:008312/14/2017 13:002.20000004768371/18/2017 10:0062.21/18/2017 10:0016.812/14/2017 13:0030.512/14/2017 13:0055.312/14/2017 12:000.0
1/18/2017 11:0025.51/18/2017 11:00997.81/18/2017 11:006881/18/2017 11:008412/14/2017 12:002.09999990463261/18/2017 11:0058.01/18/2017 11:0016.712/14/2017 12:0030.212/14/2017 12:0055.312/14/2017 11:000.0
1/18/2017 12:0026.61/18/2017 12:00997.01/18/2017 12:008911/18/2017 12:006712/14/2017 11:002.51/18/2017 12:0054.51/18/2017 12:0016.712/14/2017 11:0028.912/14/2017 11:0055.312/14/2017 10:000.0
1/18/2017 13:0026.71/18/2017 13:00996.01/18/2017 13:009031/18/2017 13:004712/14/2017 10:001.20000004768371/18/2017 13:0054.91/18/2017 13:0017.012/14/2017 10:0026.912/14/2017 10:0055.412/14/2017 9:000.0
1/18/2017 14:0026.21/18/2017 14:00995.01/18/2017 14:006631/18/2017 14:004412/14/2017 9:001.10000002384191/18/2017 14:0056.41/18/2017 14:0016.912/14/2017 9:0023.812/14/2017 9:0055.412/14/2017 8:000.0
1/18/2017 15:0025.61/18/2017 15:00994.41/18/2017 15:003531/18/2017 15:004612/14/2017 8:000.400000005960461/18/2017 15:0059.01/18/2017 15:0017.112/14/2017 8:0021.312/14/2017 8:0055.312/14/2017 7:000.0
1/18/2017 16:0024.91/18/2017 16:00994.51/18/2017 16:002721/18/2017 16:004612/14/2017 7:000.51/18/2017 16:0061.41/18/2017 16:0017.012/14/2017 7:0020.312/14/2017 7:0055.312/14/2017 6:000.0
1/18/2017 17:0024.21/18/2017 17:00994.81/18/2017 17:001341/18/2017 17:004112/14/2017 6:000.699999988079071/18/2017 17:0063.41/18/2017 17:0016.912/14/2017 6:0020.612/14/2017 6:0055.312/14/2017 5:000.0
1/18/2017 18:0022.91/18/2017 18:00995.31/18/2017 18:00201/18/2017 18:004812/14/2017 5:000.600000023841861/18/2017 18:0067.61/18/2017 18:0016.712/14/2017 5:0021.012/14/2017 5:0055.312/14/2017 4:000.0
1/18/2017 19:0022.01/18/2017 19:00995.81/18/2017 19:0001/18/2017 19:004112/14/2017 4:000.800000011920931/18/2017 19:0071.01/18/2017 19:0016.612/14/2017 4:0021.312/14/2017 4:0055.312/14/2017 3:000.0
1/18/2017 20:0021.61/18/2017 20:00996.51/18/2017 20:0001/18/2017 20:004812/14/2017 3:000.699999988079071/18/2017 20:0072.51/18/2017 20:0016.512/14/2017 3:0021.512/14/2017 3:0055.312/14/2017 2:000.0
1/18/2017 21:0021.61/18/2017 21:00997.21/18/2017 21:0001/18/2017 21:006912/14/2017 2:000.600000023841861/18/2017 21:0072.61/18/2017 21:0016.512/14/2017 2:0022.812/14/2017 2:0055.312/14/2017 1:000.0
1/18/2017 22:0021.61/18/2017 22:00997.51/18/2017 22:0001/18/2017 22:006912/14/2017 1:001.10000002384191/18/2017 22:0072.11/18/2017 22:0016.412/14/2017 1:0023.412/14/2017 1:0055.312/14/2017 0:000.0
1/18/2017 23:0021.41/18/2017 23:00997.41/18/2017 23:0001/18/2017 23:006812/14/2017 0:002.29999995231631/18/2017 23:0073.21/18/2017 23:0016.512/14/2017 0:0023.912/14/2017 0:0055.312/13/2017 23:000.0
1/19/2017 0:0021.31/19/2017 0:00997.21/19/2017 0:0001/19/2017 0:008212/13/2017 23:002.51/19/2017 0:0072.81/19/2017 0:0016.312/13/2017 23:0024.212/13/2017 23:0055.312/13/2017 22:000.0
1/19/2017 1:0020.31/19/2017 1:00996.61/19/2017 1:0001/19/2017 1:009212/13/2017 22:002.40000009536741/19/2017 1:0076.81/19/2017 1:0016.212/13/2017 22:0023.912/13/2017 22:0055.312/13/2017 21:000.0
1/19/2017 2:0019.71/19/2017 2:00995.81/19/2017 2:0001/19/2017 2:001712/13/2017 21:001.39999997615811/19/2017 2:0079.81/19/2017 2:0016.212/13/2017 21:0024.712/13/2017 21:0055.312/13/2017 20:000.0
1/19/2017 3:0019.31/19/2017 3:00995.21/19/2017 3:0001/19/2017 3:0026612/13/2017 20:000.600000023841861/19/2017 3:0081.61/19/2017 3:0016.112/13/2017 20:0025.312/13/2017 20:0055.312/13/2017 19:000.0
1/19/2017 4:0018.41/19/2017 4:00995.01/19/2017 4:0001/19/2017 4:0026512/13/2017 19:000.600000023841861/19/2017 4:0085.51/19/2017 4:0016.012/13/2017 19:0026.312/13/2017 19:0055.312/13/2017 18:000.0
1/19/2017 5:0018.41/19/2017 5:00995.21/19/2017 5:0001/19/2017 5:0019012/13/2017 18:000.400000005960461/19/2017 5:0085.21/19/2017 5:0015.912/13/2017 18:0028.412/13/2017 18:0055.312/13/2017 17:000.0
1/19/2017 6:0017.31/19/2017 6:00995.31/19/2017 6:0001/19/2017 6:0021612/13/2017 17:000.899999976158141/19/2017 6:0089.61/19/2017 6:0015.612/13/2017 17:0029.912/13/2017 17:0055.412/13/2017 16:000.0
1/19/2017 7:0017.51/19/2017 7:00995.71/19/2017 7:00131/19/2017 7:0022212/13/2017 16:001.10000002384191/19/2017 7:0088.81/19/2017 7:0015.712/13/2017 16:0029.912/13/2017 16:0055.412/13/2017 15:000.0
1/19/2017 8:0019.81/19/2017 8:00996.41/19/2017 8:001511/19/2017 8:0019812/13/2017 15:001.20000004768371/19/2017 8:0080.81/19/2017 8:0016.512/13/2017 15:0029.612/13/2017 15:0055.412/13/2017 14:000.0
1/19/2017 9:0023.51/19/2017 9:00997.01/19/2017 9:004121/19/2017 9:007512/13/2017 14:0011/19/2017 9:0066.11/19/2017 9:0016.912/13/2017 14:0028.412/13/2017 14:0055.412/13/2017 13:000.0
1/19/2017 10:0024.61/19/2017 10:00997.01/19/2017 10:005351/19/2017 10:008812/13/2017 13:001.10000002384191/19/2017 10:0063.01/19/2017 10:0017.212/13/2017 13:0026.812/13/2017 13:0055.412/13/2017 12:000.0
1/19/2017 11:0026.01/19/2017 11:00996.51/19/2017 11:007641/19/2017 11:008812/13/2017 12:001.39999997615811/19/2017 11:0059.51/19/2017 11:0017.612/13/2017 12:0025.712/13/2017 12:0055.412/13/2017 11:000.0
1/19/2017 12:0026.91/19/2017 12:00995.61/19/2017 12:007991/19/2017 12:007612/13/2017 11:001.60000002384191/19/2017 12:0057.51/19/2017 12:0017.912/13/2017 11:0025.012/13/2017 11:0055.412/13/2017 10:000.0
1/19/2017 13:0026.61/19/2017 13:00994.81/19/2017 13:006111/19/2017 13:008512/13/2017 10:001.51/19/2017 13:0058.91/19/2017 13:0018.012/13/2017 10:0024.012/13/2017 10:0055.412/13/2017 9:000.0
1/19/2017 14:0026.51/19/2017 14:00993.91/19/2017 14:005541/19/2017 14:006512/13/2017 9:000.899999976158141/19/2017 14:0058.21/19/2017 14:0017.712/13/2017 9:0022.712/13/2017 9:0055.412/13/2017 8:000.0
1/19/2017 15:0026.51/19/2017 15:00993.31/19/2017 15:004321/19/2017 15:007112/13/2017 8:000.400000005960461/19/2017 15:0056.11/19/2017 15:0017.112/13/2017 8:0020.212/13/2017 8:0055.312/13/2017 7:000.0
1/19/2017 16:0026.21/19/2017 16:00993.21/19/2017 16:003791/19/2017 16:006612/13/2017 7:000.51/19/2017 16:0057.01/19/2017 16:0017.112/13/2017 7:0019.212/13/2017 7:0055.312/13/2017 6:000.0
1/19/2017 17:0025.41/19/2017 17:00993.61/19/2017 17:001911/19/2017 17:006512/13/2017 6:000.51/19/2017 17:0060.91/19/2017 17:0017.412/13/2017 6:0019.212/13/2017 6:0055.312/13/2017 5:000.0
1/19/2017 18:0024.01/19/2017 18:00994.31/19/2017 18:00331/19/2017 18:006512/13/2017 5:000.400000005960461/19/2017 18:0066.71/19/2017 18:0017.512/13/2017 5:0019.712/13/2017 5:0055.312/13/2017 4:000.0
1/19/2017 19:0023.21/19/2017 19:00994.91/19/2017 19:0001/19/2017 19:005612/13/2017 4:001.20000004768371/19/2017 19:0070.51/19/2017 19:0017.612/13/2017 4:0020.012/13/2017 4:0055.312/13/2017 3:000.0
1/19/2017 20:0022.61/19/2017 20:00995.71/19/2017 20:0001/19/2017 20:004912/13/2017 3:000.699999988079071/19/2017 20:0072.71/19/2017 20:0017.512/13/2017 3:0020.212/13/2017 3:0055.312/13/2017 2:000.0
1/19/2017 21:0022.61/19/2017 21:00996.31/19/2017 21:0001/19/2017 21:005312/13/2017 2:000.699999988079071/19/2017 21:0071.41/19/2017 21:0017.212/13/2017 2:0020.512/13/2017 2:0055.312/13/2017 1:000.0
1/19/2017 22:0022.31/19/2017 22:00996.71/19/2017 22:0001/19/2017 22:005212/13/2017 1:0011/19/2017 22:0072.41/19/2017 22:0017.212/13/2017 1:0021.012/13/2017 1:0055.312/13/2017 0:000.0
1/19/2017 23:0022.21/19/2017 23:00996.91/19/2017 23:0001/19/2017 23:004312/13/2017 0:000.899999976158141/19/2017 23:0073.01/19/2017 23:0017.212/13/2017 0:0022.012/13/2017 0:0055.312/12/2017 23:000.0
1/20/2017 0:0022.01/20/2017 0:00996.81/20/2017 0:0001/20/2017 0:005312/12/2017 23:001.10000002384191/20/2017 0:0073.71/20/2017 0:0017.212/12/2017 23:0023.012/12/2017 23:0055.312/12/2017 22:000.0
1/20/2017 1:0021.71/20/2017 1:00996.41/20/2017 1:0001/20/2017 1:005612/12/2017 22:0021/20/2017 1:0075.01/20/2017 1:0017.112/12/2017 22:0023.712/12/2017 22:0055.312/12/2017 21:000.0
1/20/2017 2:0021.61/20/2017 2:00996.31/20/2017 2:0001/20/2017 2:005812/12/2017 21:001.79999995231631/20/2017 2:0075.71/20/2017 2:0017.212/12/2017 21:0024.012/12/2017 21:0055.312/12/2017 20:000.0
1/20/2017 3:0021.71/20/2017 3:00996.01/20/2017 3:0001/20/2017 3:005812/12/2017 20:002.09999990463261/20/2017 3:0074.51/20/2017 3:0017.012/12/2017 20:0024.412/12/2017 20:0055.312/12/2017 19:000.0
1/20/2017 4:0021.61/20/2017 4:00995.71/20/2017 4:0001/20/2017 4:004812/12/2017 19:001.89999997615811/20/2017 4:0072.91/20/2017 4:0016.612/12/2017 19:0024.812/12/2017 19:0055.312/12/2017 18:000.0
1/20/2017 5:0021.81/20/2017 5:00995.71/20/2017 5:0001/20/2017 5:005912/12/2017 18:0021/20/2017 5:0071.51/20/2017 5:0016.512/12/2017 18:0025.512/12/2017 18:0055.312/12/2017 17:000.0
1/20/2017 6:0021.51/20/2017 6:00996.01/20/2017 6:0001/20/2017 6:005412/12/2017 17:002.09999990463261/20/2017 6:0073.21/20/2017 6:0016.612/12/2017 17:0026.712/12/2017 17:0055.412/12/2017 16:000.0
1/20/2017 7:0021.51/20/2017 7:00996.11/20/2017 7:0061/20/2017 7:004712/12/2017 16:002.29999995231631/20/2017 7:0073.11/20/2017 7:0016.512/12/2017 16:0027.612/12/2017 16:0055.412/12/2017 15:000.0
1/20/2017 8:0022.41/20/2017 8:00996.81/20/2017 8:001771/20/2017 8:004612/12/2017 15:0021/20/2017 8:0070.61/20/2017 8:0016.912/12/2017 15:0027.712/12/2017 15:0055.312/12/2017 14:000.0
1/20/2017 9:0023.41/20/2017 9:00997.41/20/2017 9:003041/20/2017 9:005012/12/2017 14:001.89999997615811/20/2017 9:0067.01/20/2017 9:0017.012/12/2017 14:0027.512/12/2017 14:0055.412/12/2017 13:000.0
1/20/2017 10:0023.51/20/2017 10:00997.81/20/2017 10:002271/20/2017 10:004912/12/2017 13:001.79999995231631/20/2017 10:0067.31/20/2017 10:0017.212/12/2017 13:0027.512/12/2017 13:0055.412/12/2017 12:000.0
1/20/2017 11:0023.41/20/2017 11:00997.61/20/2017 11:002681/20/2017 11:004712/12/2017 12:002.70000004768371/20/2017 11:0069.21/20/2017 11:0017.512/12/2017 12:0026.912/12/2017 12:0055.412/12/2017 11:000.0
1/20/2017 12:0024.41/20/2017 12:00996.81/20/2017 12:004691/20/2017 12:004712/12/2017 11:001.89999997615811/20/2017 12:0065.31/20/2017 12:0017.512/12/2017 11:0026.412/12/2017 11:0055.412/12/2017 10:000.0
1/20/2017 13:0024.81/20/2017 13:00995.71/20/2017 13:004941/20/2017 13:004612/12/2017 10:001.70000004768371/20/2017 13:0062.41/20/2017 13:0017.212/12/2017 10:0025.412/12/2017 10:0055.412/12/2017 9:000.0
1/20/2017 14:0024.61/20/2017 14:00994.91/20/2017 14:003811/20/2017 14:004812/12/2017 9:0011/20/2017 14:0062.91/20/2017 14:0017.112/12/2017 9:0023.812/12/2017 9:0055.412/12/2017 8:000.0
1/20/2017 15:0024.21/20/2017 15:00994.51/20/2017 15:003801/20/2017 15:005012/12/2017 8:000.699999988079071/20/2017 15:0063.61/20/2017 15:0016.912/12/2017 8:0021.712/12/2017 8:0055.412/12/2017 7:000.0
1/20/2017 16:0024.91/20/2017 16:00994.31/20/2017 16:005331/20/2017 16:005212/12/2017 7:001.20000004768371/20/2017 16:0060.31/20/2017 16:0016.812/12/2017 7:0020.712/12/2017 7:0055.312/12/2017 6:000.0
1/20/2017 17:0023.71/20/2017 17:00994.71/20/2017 17:001481/20/2017 17:005812/12/2017 6:000.400000005960461/20/2017 17:0063.71/20/2017 17:0016.512/12/2017 6:0020.812/12/2017 6:0055.312/12/2017 5:000.0
1/20/2017 18:0022.51/20/2017 18:00995.41/20/2017 18:00241/20/2017 18:004912/12/2017 5:000.800000011920931/20/2017 18:0067.11/20/2017 18:0016.212/12/2017 5:0021.312/12/2017 5:0055.312/12/2017 4:000.0
1/20/2017 19:0021.91/20/2017 19:00996.21/20/2017 19:0001/20/2017 19:004612/12/2017 4:001.10000002384191/20/2017 19:0068.91/20/2017 19:0016.012/12/2017 4:0021.412/12/2017 4:0055.312/12/2017 3:000.0
1/20/2017 20:0021.71/20/2017 20:00997.11/20/2017 20:0001/20/2017 20:004512/12/2017 3:000.899999976158141/20/2017 20:0069.61/20/2017 20:0016.012/12/2017 3:0021.312/12/2017 3:0055.312/12/2017 2:000.0
1/20/2017 21:0021.51/20/2017 21:00998.01/20/2017 21:0001/20/2017 21:004112/12/2017 2:000.800000011920931/20/2017 21:0070.11/20/2017 21:0015.912/12/2017 2:0021.212/12/2017 2:0055.312/12/2017 1:000.0
1/20/2017 22:0021.31/20/2017 22:00998.41/20/2017 22:0001/20/2017 22:004512/12/2017 1:000.600000023841861/20/2017 22:0071.11/20/2017 22:0015.912/12/2017 1:0021.712/12/2017 1:0055.312/12/2017 0:000.0
1/20/2017 23:0021.01/20/2017 23:00998.31/20/2017 23:0001/20/2017 23:004212/12/2017 0:000.800000011920931/20/2017 23:0071.81/20/2017 23:0015.812/12/2017 0:0021.512/12/2017 0:0055.312/11/2017 23:000.0
1/21/2017 0:0020.61/21/2017 0:00997.81/21/2017 0:0001/21/2017 0:003512/11/2017 23:001.89999997615811/21/2017 0:0072.91/21/2017 0:0015.612/11/2017 23:0022.212/11/2017 23:0055.312/11/2017 22:000.0
1/21/2017 1:0020.41/21/2017 1:00997.41/21/2017 1:0001/21/2017 1:003612/11/2017 22:002.09999990463261/21/2017 1:0073.91/21/2017 1:0015.712/11/2017 22:0022.412/11/2017 22:0055.312/11/2017 21:000.0
1/21/2017 2:0020.21/21/2017 2:00996.81/21/2017 2:0001/21/2017 2:003612/11/2017 21:001.89999997615811/21/2017 2:0074.21/21/2017 2:0015.512/11/2017 21:0022.412/11/2017 21:0055.312/11/2017 20:000.0
1/21/2017 3:0020.21/21/2017 3:00996.61/21/2017 3:0001/21/2017 3:004412/11/2017 20:003.09999990463261/21/2017 3:0073.21/21/2017 3:0015.312/11/2017 20:0022.312/11/2017 20:0055.312/11/2017 19:000.0
1/21/2017 4:0019.91/21/2017 4:00996.41/21/2017 4:0001/21/2017 4:005012/11/2017 19:003.40000009536741/21/2017 4:0072.31/21/2017 4:0014.812/11/2017 19:0022.512/11/2017 19:0055.312/11/2017 18:000.0
1/21/2017 5:0019.91/21/2017 5:00996.61/21/2017 5:0001/21/2017 5:005212/11/2017 18:003.59999990463261/21/2017 5:0071.91/21/2017 5:0014.812/11/2017 18:0023.312/11/2017 18:0055.312/11/2017 17:000.0
1/21/2017 6:0019.81/21/2017 6:00997.31/21/2017 6:0001/21/2017 6:005712/11/2017 17:003.29999995231631/21/2017 6:0070.91/21/2017 6:0014.412/11/2017 17:0024.712/11/2017 17:0055.412/11/2017 16:000.0
1/21/2017 7:0019.91/21/2017 7:00998.11/21/2017 7:0061/21/2017 7:006012/11/2017 16:003.09999990463261/21/2017 7:0069.91/21/2017 7:0014.312/11/2017 16:0025.112/11/2017 16:0055.412/11/2017 15:000.0
1/21/2017 8:0020.61/21/2017 8:00999.31/21/2017 8:001851/21/2017 8:006012/11/2017 15:003.40000009536741/21/2017 8:0067.71/21/2017 8:0014.512/11/2017 15:0025.212/11/2017 15:0055.412/11/2017 14:000.0
1/21/2017 9:0021.41/21/2017 9:001000.31/21/2017 9:004161/21/2017 9:006512/11/2017 14:004.09999990463261/21/2017 9:0066.01/21/2017 9:0014.912/11/2017 14:0024.612/11/2017 14:0055.412/11/2017 13:000.0
1/21/2017 10:0022.01/21/2017 10:001000.81/21/2017 10:006681/21/2017 10:006912/11/2017 13:004.51/21/2017 10:0064.31/21/2017 10:0015.012/11/2017 13:0024.612/11/2017 13:0055.412/11/2017 12:000.0
1/21/2017 11:0022.61/21/2017 11:001000.71/21/2017 11:008151/21/2017 11:006412/11/2017 12:004.69999980926511/21/2017 11:0062.01/21/2017 11:0015.012/11/2017 12:0024.612/11/2017 12:0055.412/11/2017 11:000.0
1/21/2017 12:0022.41/21/2017 12:001000.31/21/2017 12:004391/21/2017 12:005412/11/2017 11:004.59999990463261/21/2017 12:0062.61/21/2017 12:0015.012/11/2017 11:0024.012/11/2017 11:0055.412/11/2017 10:000.0
1/21/2017 13:0022.31/21/2017 13:00999.51/21/2017 13:004281/21/2017 13:005412/11/2017 10:004.90000009536741/21/2017 13:0063.21/21/2017 13:0015.012/11/2017 10:0023.212/11/2017 10:0055.412/11/2017 9:000.0
1/21/2017 14:0022.01/21/2017 14:00998.71/21/2017 14:003171/21/2017 14:005512/11/2017 9:004.80000019073491/21/2017 14:0063.51/21/2017 14:0014.812/11/2017 9:0022.512/11/2017 9:0055.412/11/2017 8:000.0
1/21/2017 15:0021.91/21/2017 15:00998.11/21/2017 15:002011/21/2017 15:004512/11/2017 8:003.59999990463261/21/2017 15:0064.21/21/2017 15:0014.912/11/2017 8:0022.412/11/2017 8:0055.312/11/2017 7:000.0
1/21/2017 16:0021.91/21/2017 16:00998.01/21/2017 16:002191/21/2017 16:005612/11/2017 7:003.70000004768371/21/2017 16:0063.41/21/2017 16:0014.712/11/2017 7:0022.012/11/2017 7:0055.312/11/2017 6:000.0
1/21/2017 17:0021.41/21/2017 17:00998.21/21/2017 17:00781/21/2017 17:006512/11/2017 6:005.30000019073491/21/2017 17:0065.91/21/2017 17:0014.812/11/2017 6:0022.012/11/2017 6:0055.312/11/2017 5:000.0
1/21/2017 18:0020.81/21/2017 18:00998.81/21/2017 18:00181/21/2017 18:007312/11/2017 5:005.30000019073491/21/2017 18:0068.21/21/2017 18:0014.812/11/2017 5:0022.012/11/2017 5:0055.312/11/2017 4:000.0
1/21/2017 19:0020.51/21/2017 19:00999.41/21/2017 19:0001/21/2017 19:006612/11/2017 4:005.19999980926511/21/2017 19:0069.01/21/2017 19:0014.712/11/2017 4:0022.412/11/2017 4:0055.312/11/2017 3:000.0
1/21/2017 20:0020.41/21/2017 20:001000.21/21/2017 20:0001/21/2017 20:006412/11/2017 3:004.19999980926511/21/2017 20:0069.31/21/2017 20:0014.712/11/2017 3:0022.412/11/2017 3:0055.312/11/2017 2:000.0
1/21/2017 21:0020.51/21/2017 21:001000.81/21/2017 21:0001/21/2017 21:005512/11/2017 2:004.19999980926511/21/2017 21:0069.31/21/2017 21:0014.812/11/2017 2:0022.212/11/2017 2:0055.312/11/2017 1:000.0
1/21/2017 22:0020.41/21/2017 22:001001.21/21/2017 22:0001/21/2017 22:004912/11/2017 1:0041/21/2017 22:0069.11/21/2017 22:0014.612/11/2017 1:0022.312/11/2017 1:0055.312/11/2017 0:000.0
1/21/2017 23:0020.21/21/2017 23:001001.41/21/2017 23:0001/21/2017 23:005712/11/2017 0:003.51/21/2017 23:0068.81/21/2017 23:0014.412/11/2017 0:0022.912/11/2017 0:0055.312/10/2017 23:000.0
1/22/2017 0:0019.81/22/2017 0:001001.11/22/2017 0:0001/22/2017 0:006112/10/2017 23:003.40000009536741/22/2017 0:0068.91/22/2017 0:0014.012/10/2017 23:0023.212/10/2017 23:0055.312/10/2017 22:000.0
1/22/2017 1:0019.61/22/2017 1:001000.91/22/2017 1:0001/22/2017 1:006512/10/2017 22:003.51/22/2017 1:0068.41/22/2017 1:0013.712/10/2017 22:0023.212/10/2017 22:0055.312/10/2017 21:000.0
1/22/2017 2:0019.31/22/2017 2:001000.41/22/2017 2:0001/22/2017 2:006012/10/2017 21:004.19999980926511/22/2017 2:0068.71/22/2017 2:0013.512/10/2017 21:0023.412/10/2017 21:0055.312/10/2017 20:000.0
1/22/2017 3:0019.01/22/2017 3:001000.01/22/2017 3:0001/22/2017 3:006512/10/2017 20:0041/22/2017 3:0069.01/22/2017 3:0013.312/10/2017 20:0023.812/10/2017 20:0055.312/10/2017 19:000.0
1/22/2017 4:0018.81/22/2017 4:00999.81/22/2017 4:0001/22/2017 4:006312/10/2017 19:004.19999980926511/22/2017 4:0069.11/22/2017 4:0013.112/10/2017 19:0024.312/10/2017 19:0055.312/10/2017 18:000.0
1/22/2017 5:0018.71/22/2017 5:001000.01/22/2017 5:0001/22/2017 5:006112/10/2017 18:004.69999980926511/22/2017 5:0068.91/22/2017 5:0012.912/10/2017 18:0025.012/10/2017 18:0055.312/10/2017 17:000.0
1/22/2017 6:0018.61/22/2017 6:001000.51/22/2017 6:0001/22/2017 6:006512/10/2017 17:004.40000009536741/22/2017 6:0068.81/22/2017 6:0012.812/10/2017 17:0026.012/10/2017 17:0055.312/10/2017 16:000.0
1/22/2017 7:0018.71/22/2017 7:001001.11/22/2017 7:0091/22/2017 7:005912/10/2017 16:0041/22/2017 7:0068.41/22/2017 7:0012.812/10/2017 16:0027.512/10/2017 16:0055.412/10/2017 15:000.0
1/22/2017 8:0019.21/22/2017 8:001001.91/22/2017 8:002061/22/2017 8:005712/10/2017 15:003.29999995231631/22/2017 8:0067.61/22/2017 8:0013.112/10/2017 15:0028.612/10/2017 15:0055.412/10/2017 14:000.0
1/22/2017 9:0019.61/22/2017 9:001002.81/22/2017 9:004391/22/2017 9:005712/10/2017 14:002.20000004768371/22/2017 9:0066.71/22/2017 9:0013.312/10/2017 14:0029.112/10/2017 14:0055.412/10/2017 13:000.0
1/22/2017 10:0020.21/22/2017 10:001003.31/22/2017 10:006141/22/2017 10:006212/10/2017 13:001.60000002384191/22/2017 10:0064.31/22/2017 10:0013.312/10/2017 13:0028.012/10/2017 13:0055.412/10/2017 12:000.0
1/22/2017 11:0021.01/22/2017 11:001002.81/22/2017 11:007901/22/2017 11:006312/10/2017 12:001.20000004768371/22/2017 11:0060.81/22/2017 11:0013.212/10/2017 12:0026.812/10/2017 12:0055.412/10/2017 11:000.0
1/22/2017 12:0021.41/22/2017 12:001001.91/22/2017 12:008531/22/2017 12:006412/10/2017 11:0011/22/2017 12:0059.61/22/2017 12:0013.312/10/2017 11:0025.112/10/2017 11:0055.412/10/2017 10:000.0
1/22/2017 13:0020.71/22/2017 13:001001.01/22/2017 13:006901/22/2017 13:005812/10/2017 10:000.800000011920931/22/2017 13:0062.51/22/2017 13:0013.412/10/2017 10:0022.412/10/2017 10:0055.411/30/2017 18:000.0
1/22/2017 14:0020.71/22/2017 14:001000.01/22/2017 14:008941/22/2017 14:005411/30/2017 18:003.09999990463261/22/2017 14:0062.11/22/2017 14:0013.311/30/2017 18:0026.611/30/2017 18:0055.311/30/2017 17:000.0
1/22/2017 15:0020.71/22/2017 15:00998.91/22/2017 15:007451/22/2017 15:004611/30/2017 17:004.09999990463261/22/2017 15:0060.81/22/2017 15:0012.911/30/2017 17:0027.111/30/2017 17:0055.411/30/2017 16:000.0
1/23/2017 16:0019.91/23/2017 16:00998.51/23/2017 16:003491/23/2017 16:006011/30/2017 16:0051/23/2017 16:0065.11/23/2017 16:0013.211/30/2017 16:0027.611/30/2017 16:0055.411/30/2017 15:000.0
1/23/2017 17:0019.71/23/2017 17:00998.51/23/2017 17:002121/23/2017 17:006311/30/2017 15:005.51/23/2017 17:0065.61/23/2017 17:0013.111/30/2017 15:0028.011/30/2017 15:0055.411/30/2017 14:000.0
1/23/2017 18:0018.81/23/2017 18:00998.81/23/2017 18:00291/23/2017 18:007211/30/2017 14:005.59999990463261/23/2017 18:0068.71/23/2017 18:0013.011/30/2017 14:0028.211/30/2017 14:0055.411/30/2017 13:000.0
1/23/2017 19:0018.31/23/2017 19:00999.21/23/2017 19:0001/23/2017 19:006311/30/2017 13:005.69999980926511/23/2017 19:0070.61/23/2017 19:0012.911/30/2017 13:0028.111/30/2017 13:0055.411/30/2017 12:000.0
1/23/2017 20:0018.11/23/2017 20:00999.51/23/2017 20:0001/23/2017 20:006111/30/2017 12:004.80000019073491/23/2017 20:0071.61/23/2017 20:0013.011/30/2017 12:0027.911/30/2017 12:0055.411/30/2017 11:000.0
2/15/2017 0:0018.82/15/2017 0:001002.32/15/2017 0:0002/15/2017 0:001711/30/2017 11:005.19999980926512/15/2017 0:0073.62/15/2017 0:0014.111/30/2017 11:0027.211/30/2017 11:0055.411/30/2017 10:000.0
2/16/2017 5:0016.92/16/2017 5:00998.52/16/2017 5:0002/16/2017 5:003411/30/2017 10:004.69999980926512/16/2017 5:0081.82/16/2017 5:0013.811/30/2017 10:0026.711/30/2017 10:0055.411/30/2017 9:000.0
2/16/2017 6:0017.42/16/2017 6:00998.42/16/2017 6:0002/16/2017 6:006611/30/2017 9:004.90000009536742/16/2017 6:0078.32/16/2017 6:0013.711/30/2017 9:0026.211/30/2017 9:0055.411/30/2017 8:000.0
2/16/2017 7:0014.92/16/2017 7:00998.82/16/2017 7:00142/16/2017 7:0023011/30/2017 8:003.70000004768372/16/2017 7:0088.72/16/2017 7:0013.111/30/2017 8:0025.611/30/2017 8:0055.411/30/2017 7:000.0
2/16/2017 8:0018.52/16/2017 8:00999.22/16/2017 8:001932/16/2017 8:007011/30/2017 7:001.89999997615812/16/2017 8:0076.22/16/2017 8:0014.311/30/2017 7:0025.311/30/2017 7:0055.411/30/2017 6:000.0
2/16/2017 9:0021.82/16/2017 9:00999.22/16/2017 9:004542/16/2017 9:006911/30/2017 6:002.70000004768372/16/2017 9:0062.42/16/2017 9:0014.411/30/2017 6:0025.211/30/2017 6:0055.411/30/2017 5:000.0
2/17/2017 17:0026.42/17/2017 17:00994.52/17/2017 17:002752/17/2017 17:007611/30/2017 5:003.40000009536742/17/2017 17:0045.32/17/2017 17:0013.711/30/2017 5:0025.111/30/2017 5:0055.411/30/2017 4:000.0
2/17/2017 18:0024.52/17/2017 18:00995.22/17/2017 18:00532/17/2017 18:007211/30/2017 4:004.40000009536742/17/2017 18:0049.42/17/2017 18:0013.311/30/2017 4:0025.211/30/2017 4:0055.311/30/2017 3:000.0
2/17/2017 19:0023.02/17/2017 19:00995.72/17/2017 19:0002/17/2017 19:006011/30/2017 3:005.09999990463262/17/2017 19:0052.82/17/2017 19:0012.911/30/2017 3:0025.411/30/2017 3:0055.411/30/2017 2:000.0
2/17/2017 20:0022.02/17/2017 20:00996.62/17/2017 20:0002/17/2017 20:005511/30/2017 2:0052/17/2017 20:0056.32/17/2017 20:0013.011/30/2017 2:0025.411/30/2017 2:0055.411/30/2017 1:000.0
2/17/2017 21:0021.32/17/2017 21:00997.52/17/2017 21:0002/17/2017 21:005311/30/2017 1:004.52/17/2017 21:0059.42/17/2017 21:0013.111/30/2017 1:0025.411/30/2017 1:0055.411/30/2017 0:000.0
2/17/2017 22:0020.62/17/2017 22:00998.02/17/2017 22:0002/17/2017 22:005111/30/2017 0:004.90000009536742/17/2017 22:0061.72/17/2017 22:0013.111/30/2017 0:0025.311/30/2017 0:0055.411/29/2017 23:000.0
2/17/2017 23:0020.12/17/2017 23:00998.22/17/2017 23:0002/17/2017 23:004311/29/2017 23:004.19999980926512/17/2017 23:0064.12/17/2017 23:0013.211/29/2017 23:0025.511/29/2017 23:0055.411/29/2017 22:000.0
2/18/2017 0:0019.82/18/2017 0:00998.22/18/2017 0:0002/18/2017 0:005311/29/2017 22:003.40000009536742/18/2017 0:0065.22/18/2017 0:0013.111/29/2017 22:0025.411/29/2017 22:0055.411/29/2017 21:000.0
2/18/2017 1:0019.52/18/2017 1:00997.92/18/2017 1:0002/18/2017 1:006611/29/2017 21:003.90000009536742/18/2017 1:0066.92/18/2017 1:0013.311/29/2017 21:0025.311/29/2017 21:0055.411/29/2017 20:000.0
2/18/2017 2:0019.62/18/2017 2:00997.32/18/2017 2:0002/18/2017 2:006811/29/2017 20:004.19999980926512/18/2017 2:0065.92/18/2017 2:0013.111/29/2017 20:0025.111/29/2017 20:0055.311/29/2017 19:000.0
2/18/2017 3:0019.42/18/2017 3:00996.92/18/2017 3:0002/18/2017 3:007111/29/2017 19:004.52/18/2017 3:0065.72/18/2017 3:0012.911/29/2017 19:0025.111/29/2017 19:0055.311/29/2017 18:000.0
2/18/2017 4:0018.92/18/2017 4:00996.72/18/2017 4:0002/18/2017 4:009411/29/2017 18:004.59999990463262/18/2017 4:0067.42/18/2017 4:0012.811/29/2017 18:0025.211/29/2017 18:0055.311/29/2017 17:000.0
2/18/2017 5:0018.12/18/2017 5:00996.72/18/2017 5:0002/18/2017 5:0011711/29/2017 17:005.52/18/2017 5:0071.02/18/2017 5:0012.811/29/2017 17:0025.911/29/2017 17:0055.411/29/2017 16:000.0
2/18/2017 6:0019.72/18/2017 6:00996.92/18/2017 6:0002/18/2017 6:008211/29/2017 16:005.90000009536742/18/2017 6:0065.02/18/2017 6:0013.011/29/2017 16:0026.411/29/2017 16:0055.411/29/2017 15:000.0
2/18/2017 7:0020.02/18/2017 7:00997.42/18/2017 7:00212/18/2017 7:007311/29/2017 15:006.19999980926512/18/2017 7:0064.12/18/2017 7:0013.111/29/2017 15:0027.111/29/2017 15:0055.411/29/2017 14:000.0
2/18/2017 8:0021.52/18/2017 8:00998.02/18/2017 8:002012/18/2017 8:005211/29/2017 14:005.59999990463262/18/2017 8:0058.02/18/2017 8:0013.011/29/2017 14:0027.411/29/2017 14:0055.411/29/2017 13:000.0
2/18/2017 9:0022.72/18/2017 9:00998.62/18/2017 9:004552/18/2017 9:005911/29/2017 13:006.80000019073492/18/2017 9:0055.12/18/2017 9:0013.311/29/2017 13:0027.511/29/2017 13:0055.411/29/2017 12:000.0
2/18/2017 10:0024.12/18/2017 10:00999.02/18/2017 10:006782/18/2017 10:005911/29/2017 12:005.80000019073492/18/2017 10:0051.52/18/2017 10:0013.611/29/2017 12:0027.411/29/2017 12:0055.411/29/2017 11:000.0
2/18/2017 11:0024.92/18/2017 11:00999.22/18/2017 11:008432/18/2017 11:005311/29/2017 11:0062/18/2017 11:0047.52/18/2017 11:0013.011/29/2017 11:0027.211/29/2017 11:0055.411/29/2017 10:000.0
2/18/2017 12:0026.02/18/2017 12:00998.32/18/2017 12:009332/18/2017 12:007311/29/2017 10:005.19999980926512/18/2017 12:0044.32/18/2017 12:0013.011/29/2017 10:0026.611/29/2017 10:0055.411/29/2017 9:000.0
2/18/2017 13:0026.82/18/2017 13:00997.12/18/2017 13:009512/18/2017 13:007511/29/2017 9:004.52/18/2017 13:0041.82/18/2017 13:0012.811/29/2017 9:0025.911/29/2017 9:0055.411/29/2017 8:000.0
2/18/2017 14:0027.42/18/2017 14:00995.82/18/2017 14:007872/18/2017 14:006611/29/2017 8:0052/18/2017 14:0041.12/18/2017 14:0013.111/29/2017 8:0025.011/29/2017 8:0055.411/29/2017 7:000.0
2/18/2017 15:0027.82/18/2017 15:00994.82/18/2017 15:007732/18/2017 15:007511/29/2017 7:0042/18/2017 15:0040.72/18/2017 15:0013.311/29/2017 7:0024.211/29/2017 7:0055.411/29/2017 6:000.0
2/18/2017 16:0027.52/18/2017 16:00994.52/18/2017 16:005432/18/2017 16:008611/29/2017 6:003.79999995231632/18/2017 16:0043.82/18/2017 16:0014.211/29/2017 6:0023.911/29/2017 6:0055.411/29/2017 5:000.0
2/18/2017 17:0025.82/18/2017 17:00995.02/18/2017 17:002232/18/2017 17:007911/29/2017 5:003.52/18/2017 17:0050.12/18/2017 17:0014.711/29/2017 5:0023.611/29/2017 5:0055.411/29/2017 4:000.0
2/18/2017 18:0023.72/18/2017 18:00995.92/18/2017 18:00582/18/2017 18:007011/29/2017 4:003.09999990463262/18/2017 18:0057.62/18/2017 18:0014.911/29/2017 4:0023.611/29/2017 4:0055.411/29/2017 3:000.0
2/18/2017 19:0022.02/18/2017 19:00996.62/18/2017 19:0002/18/2017 19:005911/29/2017 3:002.90000009536742/18/2017 19:0063.52/18/2017 19:0014.811/29/2017 3:0023.611/29/2017 3:0055.411/29/2017 2:000.0
2/18/2017 20:0021.32/18/2017 20:00997.32/18/2017 20:0002/18/2017 20:005311/29/2017 2:0032/18/2017 20:0061.22/18/2017 20:0013.611/29/2017 2:0023.511/29/2017 2:0055.411/29/2017 1:000.0
2/18/2017 21:0021.22/18/2017 21:00997.82/18/2017 21:0002/18/2017 21:006111/29/2017 1:003.20000004768372/18/2017 21:0059.72/18/2017 21:0013.111/29/2017 1:0023.611/29/2017 1:0055.411/29/2017 0:000.0
2/18/2017 22:0020.92/18/2017 22:00998.02/18/2017 22:0002/18/2017 22:004611/29/2017 0:002.79999995231632/18/2017 22:0059.82/18/2017 22:0012.911/29/2017 0:0023.611/29/2017 0:0055.311/28/2017 23:000.0
2/18/2017 23:0020.92/18/2017 23:00998.02/18/2017 23:0002/18/2017 23:005411/28/2017 23:002.59999990463262/18/2017 23:0060.02/18/2017 23:0012.911/28/2017 23:0023.311/28/2017 23:0055.311/28/2017 22:000.0
2/19/2017 0:0020.52/19/2017 0:00997.52/19/2017 0:0002/19/2017 0:004611/28/2017 22:003.29999995231632/19/2017 0:0062.42/19/2017 0:0013.111/28/2017 22:0023.411/28/2017 22:0055.311/28/2017 21:000.0
2/19/2017 1:0020.12/19/2017 1:00996.92/19/2017 1:0002/19/2017 1:003711/28/2017 21:002.52/19/2017 1:0064.32/19/2017 1:0013.211/28/2017 21:0023.511/28/2017 21:0055.311/28/2017 20:000.0
2/19/2017 2:0020.42/19/2017 2:00996.22/19/2017 2:0002/19/2017 2:006111/28/2017 20:002.59999990463262/19/2017 2:0063.42/19/2017 2:0013.311/28/2017 20:0023.611/28/2017 20:0055.411/28/2017 19:000.0
2/19/2017 3:0020.32/19/2017 3:00995.62/19/2017 3:0002/19/2017 3:008311/28/2017 19:002.59999990463262/19/2017 3:0065.32/19/2017 3:0013.611/28/2017 19:0023.711/28/2017 19:0055.411/28/2017 18:000.0
2/19/2017 4:0019.92/19/2017 4:00994.92/19/2017 4:0002/19/2017 4:006111/28/2017 18:003.29999995231632/19/2017 4:0067.12/19/2017 4:0013.711/28/2017 18:0023.811/28/2017 18:0055.411/28/2017 17:000.0
2/19/2017 5:0018.72/19/2017 5:00994.52/19/2017 5:0002/19/2017 5:004111/28/2017 17:003.79999995231632/19/2017 5:0069.52/19/2017 5:0013.111/28/2017 17:0024.211/28/2017 17:0055.411/28/2017 16:000.0
2/19/2017 6:0017.22/19/2017 6:00994.72/19/2017 6:0002/19/2017 6:0015811/28/2017 16:004.52/19/2017 6:0075.32/19/2017 6:0012.911/28/2017 16:0024.711/28/2017 16:0055.411/28/2017 15:000.0
2/19/2017 7:0014.82/19/2017 7:00995.42/19/2017 7:00192/19/2017 7:0018611/28/2017 15:004.19999980926512/19/2017 7:0086.42/19/2017 7:0012.611/28/2017 15:0025.111/28/2017 15:0055.411/28/2017 14:000.0
2/19/2017 8:0017.62/19/2017 8:00995.82/19/2017 8:001892/19/2017 8:0019111/28/2017 14:004.52/19/2017 8:0076.22/19/2017 8:0013.411/28/2017 14:0025.111/28/2017 14:0055.411/28/2017 13:000.0
2/19/2017 9:0022.22/19/2017 9:00995.72/19/2017 9:004502/19/2017 9:0017511/28/2017 13:004.52/19/2017 9:0061.12/19/2017 9:0014.411/28/2017 13:0025.011/28/2017 13:0055.411/28/2017 12:000.0
2/19/2017 10:0024.92/19/2017 10:00995.72/19/2017 10:006672/19/2017 10:0012411/28/2017 12:005.40000009536742/19/2017 10:0048.92/19/2017 10:0013.511/28/2017 12:0025.511/28/2017 12:0055.411/28/2017 11:000.0
2/19/2017 11:0026.62/19/2017 11:00995.02/19/2017 11:008302/19/2017 11:005611/28/2017 11:0062/19/2017 11:0042.72/19/2017 11:0013.011/28/2017 11:0025.611/28/2017 11:0055.411/28/2017 10:000.0
2/19/2017 12:0027.82/19/2017 12:00993.72/19/2017 12:009242/19/2017 12:0010111/28/2017 10:005.59999990463262/19/2017 12:0038.82/19/2017 12:0012.611/28/2017 10:0025.011/28/2017 10:0055.411/28/2017 9:000.0
2/19/2017 13:0029.52/19/2017 13:00992.22/19/2017 13:009362/19/2017 13:007711/28/2017 9:006.09999990463262/19/2017 13:0035.42/19/2017 13:0012.711/28/2017 9:0024.211/28/2017 9:0055.411/28/2017 8:000.0
2/19/2017 14:0030.22/19/2017 14:00990.82/19/2017 14:008722/19/2017 14:003311/28/2017 8:004.90000009536742/19/2017 14:0033.62/19/2017 14:0012.511/28/2017 8:0023.411/28/2017 8:0055.411/28/2017 7:000.0
2/19/2017 15:0031.22/19/2017 15:00989.52/19/2017 15:007222/19/2017 15:0012511/28/2017 7:004.09999990463262/19/2017 15:0031.62/19/2017 15:0012.411/28/2017 7:0022.611/28/2017 7:0055.411/28/2017 6:000.0
2/19/2017 16:0031.32/19/2017 16:00988.72/19/2017 16:005262/19/2017 16:009711/28/2017 6:004.09999990463262/19/2017 16:0030.42/19/2017 16:0011.911/28/2017 6:0022.311/28/2017 6:0055.311/28/2017 5:000.0
2/19/2017 17:0031.32/19/2017 17:00988.52/19/2017 17:002802/19/2017 17:005611/28/2017 5:004.19999980926512/19/2017 17:0031.72/19/2017 17:0012.611/28/2017 5:0022.111/28/2017 5:0055.311/28/2017 4:000.0
2/19/2017 18:0028.62/19/2017 18:00988.72/19/2017 18:00552/19/2017 18:008211/28/2017 4:003.90000009536742/19/2017 18:0041.82/19/2017 18:0014.411/28/2017 4:0022.111/28/2017 4:0055.311/28/2017 3:000.0
2/19/2017 19:0026.12/19/2017 19:00989.12/19/2017 19:0002/19/2017 19:0013911/28/2017 3:003.90000009536742/19/2017 19:0049.52/19/2017 19:0014.811/28/2017 3:0022.111/28/2017 3:0055.311/28/2017 2:000.0
2/19/2017 20:0024.02/19/2017 20:00989.92/19/2017 20:0002/19/2017 20:0014511/28/2017 2:003.40000009536742/19/2017 20:0059.22/19/2017 20:0015.611/28/2017 2:0022.011/28/2017 2:0055.411/28/2017 1:000.0
2/19/2017 21:0021.92/19/2017 21:00990.62/19/2017 21:0002/19/2017 21:0011511/28/2017 1:0032/19/2017 21:0069.42/19/2017 21:0016.111/28/2017 1:0022.211/28/2017 1:0055.411/28/2017 0:000.0
2/19/2017 22:0020.32/19/2017 22:00991.02/19/2017 22:0002/19/2017 22:0011711/28/2017 0:003.79999995231632/19/2017 22:0076.72/19/2017 22:0016.111/28/2017 0:0022.411/28/2017 0:0055.311/27/2017 23:000.0
2/19/2017 23:0018.42/19/2017 23:00991.22/19/2017 23:0002/19/2017 23:008511/27/2017 23:004.19999980926512/19/2017 23:0082.52/19/2017 23:0015.411/27/2017 23:0022.511/27/2017 23:0055.311/27/2017 22:000.0
2/20/2017 0:0016.72/20/2017 0:00991.02/20/2017 0:0002/20/2017 0:004311/27/2017 22:004.19999980926512/20/2017 0:0087.72/20/2017 0:0014.711/27/2017 22:0022.411/27/2017 22:0055.311/27/2017 21:000.0
2/20/2017 1:0015.92/20/2017 1:00990.72/20/2017 1:0002/20/2017 1:006411/27/2017 21:0042/20/2017 1:0089.42/20/2017 1:0014.211/27/2017 21:0022.311/27/2017 21:0055.311/27/2017 20:000.0
2/20/2017 2:0015.22/20/2017 2:00990.12/20/2017 2:0002/20/2017 2:002111/27/2017 20:003.70000004768372/20/2017 2:0091.62/20/2017 2:0013.911/27/2017 20:0022.411/27/2017 20:0055.311/27/2017 19:000.0
2/20/2017 3:0014.82/20/2017 3:00989.82/20/2017 3:0002/20/2017 3:0014111/27/2017 19:003.70000004768372/20/2017 3:0092.22/20/2017 3:0013.611/27/2017 19:0022.511/27/2017 19:0055.311/27/2017 18:000.0
2/20/2017 4:0014.12/20/2017 4:00989.62/20/2017 4:0002/20/2017 4:006011/27/2017 18:004.52/20/2017 4:0092.32/20/2017 4:0012.911/27/2017 18:0023.111/27/2017 18:0055.311/27/2017 17:000.0
2/20/2017 5:0013.72/20/2017 5:00989.92/20/2017 5:0002/20/2017 5:009211/27/2017 17:004.19999980926512/20/2017 5:0092.32/20/2017 5:0012.511/27/2017 17:0024.811/27/2017 17:0055.411/27/2017 16:000.0
2/20/2017 6:0013.22/20/2017 6:00990.42/20/2017 6:0002/20/2017 6:009511/27/2017 16:004.09999990463262/20/2017 6:0092.82/20/2017 6:0012.111/27/2017 16:0026.911/27/2017 16:0055.411/27/2017 15:000.0
2/20/2017 7:0013.92/20/2017 7:00991.22/20/2017 7:00172/20/2017 7:0010311/27/2017 15:004.80000019073492/20/2017 7:0094.22/20/2017 7:0013.111/27/2017 15:0027.311/27/2017 15:0055.411/27/2017 14:000.0
2/20/2017 8:0016.72/20/2017 8:00991.82/20/2017 8:001762/20/2017 8:0012311/27/2017 14:004.90000009536742/20/2017 8:0086.72/20/2017 8:0014.511/27/2017 14:0027.411/27/2017 14:0055.411/27/2017 13:000.0
2/20/2017 9:0020.42/20/2017 9:00992.22/20/2017 9:004132/20/2017 9:0011111/27/2017 13:004.69999980926512/20/2017 9:0073.02/20/2017 9:0015.511/27/2017 13:0026.911/27/2017 13:0055.411/15/2017 8:000.0
2/20/2017 10:0024.42/20/2017 10:00992.32/20/2017 10:006242/20/2017 10:0014511/15/2017 8:002.52/20/2017 10:0059.92/20/2017 10:0016.211/15/2017 8:0028.811/15/2017 8:0055.411/15/2017 7:000.0
2/20/2017 11:0027.52/20/2017 11:00991.62/20/2017 11:007802/20/2017 11:0021911/15/2017 7:002.40000009536742/20/2017 11:0047.82/20/2017 11:0015.511/15/2017 7:0028.111/15/2017 7:0055.411/15/2017 6:000.0
2/20/2017 12:0029.92/20/2017 12:00990.42/20/2017 12:008702/20/2017 12:0029911/15/2017 6:003.20000004768372/20/2017 12:0041.52/20/2017 12:0015.511/15/2017 6:0028.011/15/2017 6:0055.411/15/2017 5:000.0
2/20/2017 13:0031.12/20/2017 13:00988.92/20/2017 13:008882/20/2017 13:0027911/15/2017 5:002.29999995231632/20/2017 13:0035.62/20/2017 13:0014.211/15/2017 5:0027.911/15/2017 5:0055.411/15/2017 4:000.0
2/20/2017 14:0032.62/20/2017 14:00987.72/20/2017 14:008292/20/2017 14:0027511/15/2017 4:003.09999990463262/20/2017 14:0032.82/20/2017 14:0014.211/15/2017 4:0028.211/15/2017 4:0055.411/15/2017 3:000.0
2/20/2017 15:0033.62/20/2017 15:00986.52/20/2017 15:006962/20/2017 15:0026711/15/2017 3:002.40000009536742/20/2017 15:0029.72/20/2017 15:0013.511/15/2017 3:0027.811/15/2017 3:0055.411/15/2017 2:000.0
2/20/2017 16:0034.12/20/2017 16:00985.82/20/2017 16:004932/20/2017 16:0024211/15/2017 2:001.20000004768372/20/2017 16:0027.52/20/2017 16:0012.811/15/2017 2:0025.911/15/2017 2:0010.811/15/2017 1:000.0
2/20/2017 17:0034.02/20/2017 17:00985.62/20/2017 17:002592/20/2017 17:0025611/15/2017 1:0032/20/2017 17:0027.62/20/2017 17:0012.811/15/2017 1:0028.111/15/2017 1:0055.411/15/2017 0:000.0
2/23/2017 7:0019.62/23/2017 7:00991.32/23/2017 7:00112/23/2017 7:0018111/15/2017 0:002.59999990463262/23/2017 7:0093.12/23/2017 7:0018.511/15/2017 0:0028.211/15/2017 0:0055.411/14/2017 23:000.0
2/23/2017 8:0021.72/23/2017 8:00992.12/23/2017 8:001312/23/2017 8:0018211/14/2017 23:0032/23/2017 8:0086.92/23/2017 8:0019.511/14/2017 23:0028.311/14/2017 23:0055.411/14/2017 22:000.0
2/23/2017 9:0025.52/23/2017 9:00992.72/23/2017 9:003292/23/2017 9:0013911/14/2017 22:002.79999995231632/23/2017 9:0074.32/23/2017 9:0020.711/14/2017 22:0028.511/14/2017 22:0055.411/14/2017 21:000.0
2/23/2017 10:0028.42/23/2017 10:00992.92/23/2017 10:005182/23/2017 10:008411/14/2017 21:003.52/23/2017 10:0064.72/23/2017 10:0021.211/14/2017 21:0028.411/14/2017 21:0055.411/14/2017 20:000.0
2/23/2017 11:0031.42/23/2017 11:00992.42/23/2017 11:006642/23/2017 11:0024511/14/2017 20:003.09999990463262/23/2017 11:0054.52/23/2017 11:0021.211/14/2017 20:0028.511/14/2017 20:0055.411/14/2017 19:000.0
2/23/2017 12:0033.12/23/2017 12:00991.22/23/2017 12:007672/23/2017 12:0027611/14/2017 19:001.89999997615812/23/2017 12:0048.32/23/2017 12:0020.811/14/2017 19:0028.711/14/2017 19:0055.411/14/2017 18:000.0
2/23/2017 13:0034.22/23/2017 13:00989.92/23/2017 13:006732/23/2017 13:0031311/14/2017 18:001.79999995231632/23/2017 13:0044.92/23/2017 13:0020.611/14/2017 18:0029.011/14/2017 18:0055.411/14/2017 17:000.0
2/23/2017 14:0035.92/23/2017 14:00988.62/23/2017 14:007702/23/2017 14:0025011/14/2017 17:003.59999990463262/23/2017 14:0040.02/23/2017 14:0020.311/14/2017 17:0030.211/14/2017 17:0055.411/14/2017 16:000.0
2/23/2017 15:0032.82/23/2017 15:00988.22/23/2017 15:003652/23/2017 15:005111/14/2017 16:003.70000004768372/23/2017 15:0050.72/23/2017 15:0021.311/14/2017 16:0031.111/14/2017 16:0055.211/14/2017 15:000.0
2/23/2017 16:0030.82/23/2017 16:00988.32/23/2017 16:004392/23/2017 16:004711/14/2017 15:003.79999995231632/23/2017 16:0056.62/23/2017 16:0021.311/14/2017 15:0030.911/14/2017 15:0055.411/14/2017 14:000.0
2/23/2017 17:0028.92/23/2017 17:00989.02/23/2017 17:002262/23/2017 17:004311/14/2017 14:003.40000009536742/23/2017 17:0061.52/23/2017 17:0020.811/14/2017 14:0031.311/14/2017 14:0055.411/14/2017 13:000.0
2/23/2017 18:0027.42/23/2017 18:00989.62/23/2017 18:00512/23/2017 18:005011/14/2017 13:004.09999990463262/23/2017 18:0065.62/23/2017 18:0020.511/14/2017 13:0031.511/14/2017 13:0055.411/14/2017 12:000.0
2/23/2017 19:0026.52/23/2017 19:00990.32/23/2017 19:0002/23/2017 19:006411/14/2017 12:003.70000004768372/23/2017 19:0068.62/23/2017 19:0020.311/14/2017 12:0031.611/14/2017 12:0055.411/14/2017 11:000.0
2/23/2017 20:0026.02/23/2017 20:00991.52/23/2017 20:0002/23/2017 20:007711/14/2017 11:004.30000019073492/23/2017 20:0069.52/23/2017 20:0020.111/14/2017 11:0030.811/14/2017 11:0055.411/14/2017 10:000.0
2/23/2017 21:0025.42/23/2017 21:00992.72/23/2017 21:0002/23/2017 21:008511/14/2017 10:004.69999980926512/23/2017 21:0070.72/23/2017 21:0019.811/14/2017 10:0029.911/14/2017 10:0055.411/14/2017 9:000.0
2/23/2017 22:0024.82/23/2017 22:00993.32/23/2017 22:0002/23/2017 22:006511/14/2017 9:003.79999995231632/23/2017 22:0072.12/23/2017 22:0019.511/14/2017 9:0029.011/14/2017 9:0055.411/14/2017 8:000.0
2/23/2017 23:0024.42/23/2017 23:00993.62/23/2017 23:0002/23/2017 23:007411/14/2017 8:003.29999995231632/23/2017 23:0073.22/23/2017 23:0019.411/14/2017 8:0028.011/14/2017 8:0055.411/14/2017 7:000.0
2/24/2017 0:0024.32/24/2017 0:00993.62/24/2017 0:0002/24/2017 0:006111/14/2017 7:002.20000004768372/24/2017 0:0073.52/24/2017 0:0019.311/14/2017 7:0027.111/14/2017 7:0055.411/14/2017 6:000.0
2/24/2017 1:0024.12/24/2017 1:00993.52/24/2017 1:0002/24/2017 1:004111/14/2017 6:0032/24/2017 1:0073.82/24/2017 1:0019.211/14/2017 6:0026.811/14/2017 6:0055.411/14/2017 5:000.0
2/24/2017 2:0024.12/24/2017 2:00993.32/24/2017 2:0002/24/2017 2:005111/14/2017 5:003.79999995231632/24/2017 2:0073.12/24/2017 2:0019.111/14/2017 5:0026.711/14/2017 5:0055.311/14/2017 4:000.0
2/24/2017 3:0023.82/24/2017 3:00993.12/24/2017 3:0002/24/2017 3:004811/14/2017 4:002.40000009536742/24/2017 3:0074.22/24/2017 3:0019.011/14/2017 4:0026.211/14/2017 4:0055.311/14/2017 3:000.0
2/24/2017 4:0023.32/24/2017 4:00993.32/24/2017 4:0002/24/2017 4:003211/14/2017 3:001.29999995231632/24/2017 4:0074.32/24/2017 4:0018.511/14/2017 3:0025.611/14/2017 3:0055.311/14/2017 2:000.0
2/24/2017 5:0022.92/24/2017 5:00993.52/24/2017 5:0002/24/2017 5:004011/14/2017 2:0012/24/2017 5:0073.42/24/2017 5:0018.011/14/2017 2:0024.011/14/2017 2:0055.311/14/2017 1:000.0
2/24/2017 6:0022.72/24/2017 6:00994.02/24/2017 6:0002/24/2017 6:004211/14/2017 1:000.800000011920932/24/2017 6:0072.12/24/2017 6:0017.511/14/2017 1:0023.611/14/2017 1:0055.311/14/2017 0:000.0
2/24/2017 7:0022.42/24/2017 7:00994.82/24/2017 7:00152/24/2017 7:004511/14/2017 0:000.699999988079072/24/2017 7:0071.22/24/2017 7:0017.011/14/2017 0:0024.611/14/2017 0:0055.311/13/2017 23:000.0
2/24/2017 8:0022.22/24/2017 8:00995.72/24/2017 8:001192/24/2017 8:005211/13/2017 23:000.899999976158142/24/2017 8:0069.72/24/2017 8:0016.511/13/2017 23:0025.611/13/2017 23:0055.311/13/2017 22:000.0
2/24/2017 9:0022.42/24/2017 9:00996.42/24/2017 9:001892/24/2017 9:004911/13/2017 22:001.10000002384192/24/2017 9:0067.22/24/2017 9:0016.111/13/2017 22:0026.111/13/2017 22:0055.311/13/2017 21:000.0
2/24/2017 10:0022.32/24/2017 10:00997.12/24/2017 10:001862/24/2017 10:004611/13/2017 21:002.29999995231632/24/2017 10:0066.22/24/2017 10:0015.811/13/2017 21:0027.211/13/2017 21:0055.311/13/2017 20:000.0
2/24/2017 11:0022.12/24/2017 11:00997.22/24/2017 11:003112/24/2017 11:004411/13/2017 20:002.20000004768372/24/2017 11:0065.72/24/2017 11:0015.511/13/2017 20:0027.711/13/2017 20:0055.311/13/2017 19:000.0
2/24/2017 12:0022.32/24/2017 12:00996.92/24/2017 12:004052/24/2017 12:003611/13/2017 19:003.52/24/2017 12:0064.02/24/2017 12:0015.211/13/2017 19:0028.111/13/2017 19:0055.411/13/2017 18:000.0
2/24/2017 13:0022.82/24/2017 13:00996.12/24/2017 13:007722/24/2017 13:004311/13/2017 18:003.40000009536742/24/2017 13:0061.12/24/2017 13:0015.011/13/2017 18:0028.911/13/2017 18:0055.411/13/2017 17:000.0
2/24/2017 14:0023.12/24/2017 14:00995.02/24/2017 14:007042/24/2017 14:004111/13/2017 17:003.70000004768372/24/2017 14:0059.92/24/2017 14:0015.011/13/2017 17:0030.311/13/2017 17:0055.411/13/2017 16:000.0
2/24/2017 15:0022.82/24/2017 15:00994.32/24/2017 15:005852/24/2017 15:003511/13/2017 16:003.79999995231632/24/2017 15:0060.72/24/2017 15:0014.911/13/2017 16:0031.211/13/2017 16:0055.411/13/2017 15:000.0
2/24/2017 16:0022.42/24/2017 16:00994.02/24/2017 16:004322/24/2017 16:003111/13/2017 15:003.90000009536742/24/2017 16:0061.92/24/2017 16:0014.811/13/2017 15:0031.311/13/2017 15:0055.411/13/2017 14:000.0
2/26/2017 21:0016.72/26/2017 21:00996.72/26/2017 21:0002/26/2017 21:005211/13/2017 14:004.40000009536742/26/2017 21:0069.72/26/2017 21:0011.211/13/2017 14:0030.911/13/2017 14:0055.411/13/2017 13:000.0
2/26/2017 22:0016.42/26/2017 22:00997.12/26/2017 22:0002/26/2017 22:004711/13/2017 13:004.90000009536742/26/2017 22:0071.42/26/2017 22:0011.311/13/2017 13:0030.511/13/2017 13:0055.411/13/2017 12:000.0
2/26/2017 23:0016.32/26/2017 23:00997.42/26/2017 23:0002/26/2017 23:004511/13/2017 12:005.19999980926512/26/2017 23:0072.32/26/2017 23:0011.411/13/2017 12:0030.011/13/2017 12:0055.411/13/2017 11:000.0
2/27/2017 0:0016.22/27/2017 0:00997.52/27/2017 0:0002/27/2017 0:004511/13/2017 11:004.69999980926512/27/2017 0:0072.72/27/2017 0:0011.411/13/2017 11:0029.511/13/2017 11:0055.411/13/2017 10:000.0
2/27/2017 1:0016.12/27/2017 1:00997.32/27/2017 1:0002/27/2017 1:004411/13/2017 10:0052/27/2017 1:0072.62/27/2017 1:0011.211/13/2017 10:0028.811/13/2017 10:0055.411/13/2017 9:000.0
2/27/2017 2:0016.12/27/2017 2:00996.92/27/2017 2:0002/27/2017 2:004511/13/2017 9:004.30000019073492/27/2017 2:0072.82/27/2017 2:0011.311/13/2017 9:0028.011/13/2017 9:0055.411/13/2017 8:000.0
2/27/2017 3:0016.12/27/2017 3:00996.52/27/2017 3:0002/27/2017 3:004711/13/2017 8:002.59999990463262/27/2017 3:0072.92/27/2017 3:0011.311/13/2017 8:0027.111/13/2017 8:0055.411/13/2017 7:000.0
2/27/2017 4:0016.32/27/2017 4:00996.22/27/2017 4:0002/27/2017 4:004911/13/2017 7:001.89999997615812/27/2017 4:0072.02/27/2017 4:0011.311/13/2017 7:0025.911/13/2017 7:0055.411/13/2017 6:000.0
2/27/2017 5:0016.32/27/2017 5:00996.22/27/2017 5:0002/27/2017 5:005011/13/2017 6:001.52/27/2017 5:0071.32/27/2017 5:0011.211/13/2017 6:0024.411/13/2017 6:0055.411/13/2017 5:000.0
2/27/2017 6:0016.32/27/2017 6:00996.72/27/2017 6:0002/27/2017 6:005411/13/2017 5:000.800000011920932/27/2017 6:0071.52/27/2017 6:0011.211/13/2017 5:0023.211/13/2017 5:0055.411/13/2017 4:000.0
2/27/2017 7:0016.42/27/2017 7:00997.52/27/2017 7:00262/27/2017 7:005511/13/2017 4:000.699999988079072/27/2017 7:0071.22/27/2017 7:0011.211/13/2017 4:0024.711/13/2017 4:0055.311/13/2017 3:000.0
2/27/2017 8:0017.02/27/2017 8:00998.22/27/2017 8:001772/27/2017 8:005411/13/2017 3:000.899999976158142/27/2017 8:0069.32/27/2017 8:0011.411/13/2017 3:0025.311/13/2017 3:0055.411/13/2017 2:000.0
2/27/2017 9:0017.72/27/2017 9:00998.82/27/2017 9:004362/27/2017 9:005011/13/2017 2:0012/27/2017 9:0067.12/27/2017 9:0011.611/13/2017 2:0025.511/13/2017 2:0055.411/13/2017 1:000.0
2/27/2017 10:0018.72/27/2017 10:00998.92/27/2017 10:006602/27/2017 10:004511/13/2017 1:001.29999995231632/27/2017 10:0064.02/27/2017 10:0011.811/13/2017 1:0026.411/13/2017 1:0055.411/13/2017 0:000.0
2/27/2017 11:0019.82/27/2017 11:00998.62/27/2017 11:008132/27/2017 11:004311/13/2017 0:001.20000004768372/27/2017 11:0061.62/27/2017 11:0012.311/13/2017 0:0026.611/13/2017 0:0055.411/12/2017 23:000.0
2/27/2017 12:0019.92/27/2017 12:00998.22/27/2017 12:009152/27/2017 12:004111/12/2017 23:002.79999995231632/27/2017 12:0061.82/27/2017 12:0012.411/12/2017 23:0027.311/12/2017 23:0055.411/12/2017 22:000.0
2/27/2017 13:0020.22/27/2017 13:00997.42/27/2017 13:009352/27/2017 13:004011/12/2017 22:003.59999990463262/27/2017 13:0061.32/27/2017 13:0012.611/12/2017 22:0027.511/12/2017 22:0055.411/12/2017 21:000.0
3/15/2017 15:0031.33/15/2017 15:00987.43/15/2017 15:004743/15/2017 15:002811/12/2017 21:003.20000004768373/15/2017 15:0055.93/15/2017 15:0021.511/12/2017 21:0027.511/12/2017 21:0055.411/12/2017 20:000.0
3/15/2017 16:0031.93/15/2017 16:00986.83/15/2017 16:004473/15/2017 16:005311/12/2017 20:003.20000004768373/15/2017 16:0054.23/15/2017 16:0021.611/12/2017 20:0027.811/12/2017 20:0055.411/12/2017 19:000.0
3/15/2017 17:0031.13/15/2017 17:00986.73/15/2017 17:002473/15/2017 17:008211/12/2017 19:003.40000009536743/15/2017 17:0056.43/15/2017 17:0021.511/12/2017 19:0028.211/12/2017 19:0055.411/12/2017 18:000.0
3/15/2017 18:0029.53/15/2017 18:00986.83/15/2017 18:00633/15/2017 18:007311/12/2017 18:003.90000009536743/15/2017 18:0060.73/15/2017 18:0021.211/12/2017 18:0029.011/12/2017 18:0055.411/12/2017 17:000.0
3/15/2017 19:0027.93/15/2017 19:00987.83/15/2017 19:0003/15/2017 19:007811/12/2017 17:003.29999995231633/15/2017 19:0066.13/15/2017 19:0021.111/12/2017 17:0030.311/12/2017 17:0055.411/12/2017 16:000.0
3/15/2017 20:0026.83/15/2017 20:00988.73/15/2017 20:0003/15/2017 20:006411/12/2017 16:003.70000004768373/15/2017 20:0070.13/15/2017 20:0021.011/12/2017 16:0031.111/12/2017 16:0055.411/12/2017 15:000.0
3/15/2017 21:0026.13/15/2017 21:00989.73/15/2017 21:0003/15/2017 21:007711/12/2017 15:004.30000019073493/15/2017 21:0071.93/15/2017 21:0020.711/12/2017 15:0031.311/12/2017 15:0055.411/12/2017 14:000.0
3/15/2017 22:0025.83/15/2017 22:00990.23/15/2017 22:0003/15/2017 22:006911/12/2017 14:004.09999990463263/15/2017 22:0070.93/15/2017 22:0020.211/12/2017 14:0031.511/12/2017 14:0055.411/12/2017 13:000.0
3/15/2017 23:0025.23/15/2017 23:00990.33/15/2017 23:0003/15/2017 23:006811/12/2017 13:004.59999990463263/15/2017 23:0072.73/15/2017 23:0020.011/12/2017 13:0031.111/12/2017 13:0055.411/12/2017 12:000.0
3/16/2017 0:0024.93/16/2017 0:00990.23/16/2017 0:0003/16/2017 0:006111/12/2017 12:004.80000019073493/16/2017 0:0073.33/16/2017 0:0019.911/12/2017 12:0030.611/12/2017 12:0055.411/12/2017 11:000.0
3/16/2017 1:0024.63/16/2017 1:00989.63/16/2017 1:0003/16/2017 1:003211/12/2017 11:004.19999980926513/16/2017 1:0074.43/16/2017 1:0019.811/12/2017 11:0030.211/12/2017 11:0055.411/12/2017 10:000.0
3/16/2017 2:0024.23/16/2017 2:00988.63/16/2017 2:0003/16/2017 2:0011411/12/2017 10:004.19999980926513/16/2017 2:0077.13/16/2017 2:0020.011/12/2017 10:0029.311/12/2017 10:0055.411/12/2017 9:000.0
3/16/2017 3:0023.73/16/2017 3:00988.13/16/2017 3:0003/16/2017 3:0017311/12/2017 9:003.40000009536743/16/2017 3:0080.73/16/2017 3:0020.311/12/2017 9:0028.411/12/2017 9:0055.411/12/2017 8:000.0
3/16/2017 4:0023.13/16/2017 4:00987.93/16/2017 4:0003/16/2017 4:0020111/12/2017 8:001.29999995231633/16/2017 4:0084.23/16/2017 4:0020.411/12/2017 8:0026.211/12/2017 8:0055.411/12/2017 7:000.0
3/16/2017 5:0023.03/16/2017 5:00988.43/16/2017 5:0003/16/2017 5:0021111/12/2017 7:000.800000011920933/16/2017 5:0085.93/16/2017 5:0020.611/12/2017 7:0022.611/12/2017 7:0055.411/12/2017 6:000.0
3/16/2017 6:0022.63/16/2017 6:00988.93/16/2017 6:0003/16/2017 6:0015311/12/2017 6:000.699999988079073/16/2017 6:0087.53/16/2017 6:0020.511/12/2017 6:0021.611/12/2017 6:0055.411/12/2017 5:000.0
3/16/2017 7:0022.53/16/2017 7:00989.43/16/2017 7:00123/16/2017 7:0017811/12/2017 5:000.600000023841863/16/2017 7:0090.23/16/2017 7:0020.911/12/2017 5:0021.911/12/2017 5:0055.411/12/2017 4:000.0
3/16/2017 8:0024.23/16/2017 8:00990.13/16/2017 8:00833/16/2017 8:0015911/12/2017 4:000.400000005960463/16/2017 8:0084.33/16/2017 8:0021.511/12/2017 4:0022.111/12/2017 4:0055.411/12/2017 3:000.0
3/16/2017 9:0026.43/16/2017 9:00990.93/16/2017 9:002523/16/2017 9:0016211/12/2017 3:000.53/16/2017 9:0075.23/16/2017 9:0021.711/12/2017 3:0022.411/12/2017 3:0055.411/12/2017 2:000.0
3/16/2017 10:0027.83/16/2017 10:00991.23/16/2017 10:003553/16/2017 10:0015411/12/2017 2:000.53/16/2017 10:0068.23/16/2017 10:0021.511/12/2017 2:0022.311/12/2017 2:0055.411/12/2017 1:000.0
3/16/2017 11:0028.03/16/2017 11:00991.03/16/2017 11:002453/16/2017 11:0012111/12/2017 1:000.53/16/2017 11:0066.83/16/2017 11:0021.311/12/2017 1:0022.611/12/2017 1:0055.411/12/2017 0:000.0
3/16/2017 12:0029.83/16/2017 12:00990.23/16/2017 12:006203/16/2017 12:0015311/12/2017 0:000.800000011920933/16/2017 12:0060.83/16/2017 12:0021.511/12/2017 0:0023.211/12/2017 0:0055.411/11/2017 23:000.0
3/16/2017 13:0030.63/16/2017 13:00989.13/16/2017 13:004903/16/2017 13:0015911/11/2017 23:000.699999988079073/16/2017 13:0056.63/16/2017 13:0021.111/11/2017 23:0023.811/11/2017 23:0055.411/11/2017 22:000.0
3/16/2017 14:0032.13/16/2017 14:00987.83/16/2017 14:006663/16/2017 14:0020111/11/2017 22:000.600000023841863/16/2017 14:0053.13/16/2017 14:0021.411/11/2017 22:0024.711/11/2017 22:0055.411/11/2017 21:000.0
3/16/2017 15:0031.13/16/2017 15:00986.73/16/2017 15:002553/16/2017 15:003111/11/2017 21:000.53/16/2017 15:0055.73/16/2017 15:0021.311/11/2017 21:0025.711/11/2017 21:0055.411/11/2017 20:000.0
3/16/2017 16:0030.13/16/2017 16:00986.23/16/2017 16:00593/16/2017 16:002111/11/2017 20:001.20000004768373/16/2017 16:0060.43/16/2017 16:0021.711/11/2017 20:0026.511/11/2017 20:0055.411/11/2017 19:000.0
3/16/2017 17:0028.63/16/2017 17:00986.63/16/2017 17:0073/16/2017 17:0031211/11/2017 19:001.70000004768373/16/2017 17:0070.63/16/2017 17:0022.811/11/2017 19:0026.811/11/2017 19:0055.411/11/2017 18:000.0
3/16/2017 18:0026.03/16/2017 18:00987.13/16/2017 18:0043/16/2017 18:0026211/11/2017 18:001.70000004768373/16/2017 18:0087.13/16/2017 18:0023.811/11/2017 18:0027.311/11/2017 18:0055.411/11/2017 17:000.0
3/16/2017 19:0025.23/16/2017 19:00987.93/16/2017 19:0003/16/2017 19:0020111/11/2017 17:0023/16/2017 19:0089.73/16/2017 19:0023.511/11/2017 17:0028.011/11/2017 17:0055.411/11/2017 16:000.0
3/16/2017 20:0024.93/16/2017 20:00989.43/16/2017 20:0003/16/2017 20:009911/11/2017 16:003.40000009536743/16/2017 20:0091.43/16/2017 20:0023.511/11/2017 16:0027.911/11/2017 16:0055.411/11/2017 15:000.0
3/16/2017 21:0025.03/16/2017 21:00990.73/16/2017 21:0003/16/2017 21:0014511/11/2017 15:0043/16/2017 21:0088.33/16/2017 21:0023.011/11/2017 15:0029.311/11/2017 15:0055.411/11/2017 14:000.0
3/16/2017 22:0024.13/16/2017 22:00991.43/16/2017 22:0003/16/2017 22:0013811/11/2017 14:004.09999990463263/16/2017 22:0085.83/16/2017 22:0021.611/11/2017 14:0029.511/11/2017 14:0055.411/11/2017 13:000.0
3/16/2017 23:0023.43/16/2017 23:00991.03/16/2017 23:0003/16/2017 23:0013611/11/2017 13:004.69999980926513/16/2017 23:0088.63/16/2017 23:0021.511/11/2017 13:0029.011/11/2017 13:0055.411/11/2017 12:000.0
3/17/2017 0:0023.23/17/2017 0:00990.73/17/2017 0:0003/17/2017 0:0018711/11/2017 12:004.09999990463263/17/2017 0:0090.93/17/2017 0:0021.711/11/2017 12:0028.711/11/2017 12:0055.411/11/2017 11:000.0
3/17/2017 1:0022.93/17/2017 1:00990.23/17/2017 1:0003/17/2017 1:0025011/11/2017 11:004.69999980926513/17/2017 1:0093.43/17/2017 1:0021.911/11/2017 11:0028.311/11/2017 11:0055.411/11/2017 10:000.0
3/17/2017 2:0022.73/17/2017 2:00989.83/17/2017 2:0003/17/2017 2:0025311/11/2017 10:004.40000009536743/17/2017 2:0094.33/17/2017 2:0021.811/11/2017 10:0028.311/11/2017 10:0055.411/11/2017 9:000.0
3/17/2017 3:0022.73/17/2017 3:00990.33/17/2017 3:0003/17/2017 3:0017811/11/2017 9:003.90000009536743/17/2017 3:0094.13/17/2017 3:0021.811/11/2017 9:0027.711/11/2017 9:0055.411/11/2017 8:000.0
3/17/2017 4:0022.63/17/2017 4:00990.33/17/2017 4:0003/17/2017 4:008811/11/2017 8:002.79999995231633/17/2017 4:0094.43/17/2017 4:0021.711/11/2017 8:0027.211/11/2017 8:0055.411/11/2017 7:000.0
3/17/2017 5:0022.53/17/2017 5:00989.33/17/2017 5:0003/17/2017 5:0011311/11/2017 7:001.20000004768373/17/2017 5:0095.03/17/2017 5:0021.711/11/2017 7:0026.311/11/2017 7:0055.411/11/2017 6:000.0
3/17/2017 6:0022.53/17/2017 6:00989.53/17/2017 6:0003/17/2017 6:0020911/11/2017 6:001.29999995231633/17/2017 6:0095.53/17/2017 6:0021.811/11/2017 6:0026.411/11/2017 6:0055.411/11/2017 5:000.0
3/17/2017 7:0022.43/17/2017 7:00990.43/17/2017 7:00153/17/2017 7:0030811/11/2017 5:0013/17/2017 7:0095.73/17/2017 7:0021.811/11/2017 5:0026.411/11/2017 5:0055.411/11/2017 4:000.0
3/17/2017 8:0022.93/17/2017 8:00991.53/17/2017 8:00683/17/2017 8:0019311/11/2017 4:001.60000002384193/17/2017 8:0095.23/17/2017 8:0022.211/11/2017 4:0026.811/11/2017 4:0055.411/11/2017 3:000.0
3/17/2017 9:0024.13/17/2017 9:00992.33/17/2017 9:001883/17/2017 9:0010011/11/2017 3:000.899999976158143/17/2017 9:0088.93/17/2017 9:0022.211/11/2017 3:0026.511/11/2017 3:0055.411/11/2017 2:000.0
3/17/2017 10:0025.63/17/2017 10:00992.43/17/2017 10:003633/17/2017 10:0026011/11/2017 2:000.699999988079073/17/2017 10:0083.03/17/2017 10:0022.611/11/2017 2:0025.411/11/2017 2:0055.411/11/2017 1:000.0
3/17/2017 11:0028.73/17/2017 11:00991.83/17/2017 11:007863/17/2017 11:0011711/11/2017 1:000.699999988079073/17/2017 11:0067.03/17/2017 11:0022.011/11/2017 1:0024.911/11/2017 1:0055.411/11/2017 0:000.0
3/17/2017 12:0029.93/17/2017 12:00990.93/17/2017 12:006093/17/2017 12:0017211/11/2017 0:000.800000011920933/17/2017 12:0061.73/17/2017 12:0021.811/11/2017 0:0024.911/11/2017 0:0055.411/10/2017 23:000.0
3/17/2017 13:0029.83/17/2017 13:00990.03/17/2017 13:003623/17/2017 13:0026811/10/2017 23:0013/17/2017 13:0060.53/17/2017 13:0021.411/10/2017 23:0026.211/10/2017 23:0055.411/10/2017 22:000.0
3/17/2017 14:0029.63/17/2017 14:00989.13/17/2017 14:003243/17/2017 14:0024211/10/2017 22:000.800000011920933/17/2017 14:0063.53/17/2017 14:0022.011/10/2017 22:0026.611/10/2017 22:0055.411/10/2017 21:000.0
3/17/2017 15:0030.13/17/2017 15:00988.03/17/2017 15:005823/17/2017 15:0027011/10/2017 21:001.89999997615813/17/2017 15:0060.73/17/2017 15:0021.711/10/2017 21:0027.111/10/2017 21:0055.411/10/2017 20:000.0
3/17/2017 16:0031.43/17/2017 16:00986.93/17/2017 16:004853/17/2017 16:003911/10/2017 20:001.53/17/2017 16:0053.53/17/2017 16:0020.911/10/2017 20:0027.211/10/2017 20:0055.411/10/2017 19:000.0
3/17/2017 17:0030.93/17/2017 17:00986.93/17/2017 17:001433/17/2017 17:0021211/10/2017 19:0023/17/2017 17:0054.93/17/2017 17:0020.911/10/2017 19:0027.811/10/2017 19:0055.411/10/2017 18:000.0
3/17/2017 18:0029.23/17/2017 18:00987.43/17/2017 18:00293/17/2017 18:0026811/10/2017 18:002.29999995231633/17/2017 18:0064.63/17/2017 18:0021.911/10/2017 18:0028.411/10/2017 18:0055.411/10/2017 17:000.0
3/17/2017 19:0027.23/17/2017 19:00988.13/17/2017 19:0003/17/2017 19:005811/10/2017 17:0033/17/2017 19:0077.33/17/2017 19:0023.011/10/2017 17:0029.211/10/2017 17:0055.411/10/2017 16:000.0
3/17/2017 20:0026.63/17/2017 20:00989.13/17/2017 20:0003/17/2017 20:007711/10/2017 16:0033/17/2017 20:0076.83/17/2017 20:0022.311/10/2017 16:0029.811/10/2017 16:0055.411/10/2017 15:000.0
3/17/2017 21:0026.63/17/2017 21:00990.63/17/2017 21:0003/17/2017 21:0013911/10/2017 15:002.79999995231633/17/2017 21:0075.03/17/2017 21:0021.911/10/2017 15:0030.011/10/2017 15:0055.411/10/2017 14:000.0
3/17/2017 22:0025.63/17/2017 22:00991.33/17/2017 22:0003/17/2017 22:009311/10/2017 14:003.70000004768373/17/2017 22:0079.83/17/2017 22:0021.911/10/2017 14:0030.411/10/2017 14:0055.411/10/2017 13:000.0
3/17/2017 23:0025.93/17/2017 23:00991.63/17/2017 23:0003/17/2017 23:0010111/10/2017 13:004.19999980926513/17/2017 23:0074.03/17/2017 23:0021.011/10/2017 13:0029.811/10/2017 13:0055.411/10/2017 12:000.0
3/18/2017 0:0024.53/18/2017 0:00991.53/18/2017 0:0003/18/2017 0:0013311/10/2017 12:003.79999995231633/18/2017 0:0082.43/18/2017 0:0021.411/10/2017 12:0029.011/10/2017 12:0055.411/10/2017 11:000.0
3/18/2017 1:0024.53/18/2017 1:00991.23/18/2017 1:0003/18/2017 1:0014811/10/2017 11:004.19999980926513/18/2017 1:0081.43/18/2017 1:0021.211/10/2017 11:0028.811/10/2017 11:0055.411/10/2017 10:000.0
3/18/2017 2:0023.73/18/2017 2:00990.83/18/2017 2:0003/18/2017 2:0019411/10/2017 10:004.59999990463263/18/2017 2:0086.43/18/2017 2:0021.411/10/2017 10:0028.511/10/2017 10:0055.411/10/2017 9:000.0
3/18/2017 3:0023.23/18/2017 3:00990.23/18/2017 3:0003/18/2017 3:0013911/10/2017 9:003.09999990463263/18/2017 3:0088.73/18/2017 3:0021.311/10/2017 9:0027.711/10/2017 9:0055.411/10/2017 8:000.0
3/18/2017 4:0022.83/18/2017 4:00990.03/18/2017 4:0003/18/2017 4:0012711/10/2017 8:002.79999995231633/18/2017 4:0090.63/18/2017 4:0021.311/10/2017 8:0027.211/10/2017 8:0055.411/10/2017 7:000.0
3/18/2017 5:0022.53/18/2017 5:00989.83/18/2017 5:0003/18/2017 5:0016811/10/2017 7:002.79999995231633/18/2017 5:0091.53/18/2017 5:0021.111/10/2017 7:0026.611/10/2017 7:0055.411/10/2017 6:000.0
3/18/2017 6:0022.03/18/2017 6:00990.23/18/2017 6:0003/18/2017 6:0033211/10/2017 6:002.59999990463263/18/2017 6:0093.73/18/2017 6:0021.011/10/2017 6:0026.311/10/2017 6:0055.411/10/2017 5:000.0
3/18/2017 7:0022.13/18/2017 7:00991.33/18/2017 7:00373/18/2017 7:0023711/10/2017 5:001.79999995231633/18/2017 7:0094.03/18/2017 7:0021.211/10/2017 5:0026.111/10/2017 5:0055.411/10/2017 4:000.0
3/18/2017 8:0023.83/18/2017 8:00992.23/18/2017 8:001703/18/2017 8:0013611/10/2017 4:002.09999990463263/18/2017 8:0086.93/18/2017 8:0021.611/10/2017 4:0026.011/10/2017 4:0055.411/10/2017 3:000.0
3/18/2017 9:0027.93/18/2017 9:00992.63/18/2017 9:005043/18/2017 9:0014011/10/2017 3:001.60000002384193/18/2017 9:0069.13/18/2017 9:0021.811/10/2017 3:0026.011/10/2017 3:0055.411/10/2017 2:000.0
3/18/2017 10:0029.43/18/2017 10:00992.53/18/2017 10:007063/18/2017 10:009511/10/2017 2:001.29999995231633/18/2017 10:0061.53/18/2017 10:0021.311/10/2017 2:0025.711/10/2017 2:0055.411/10/2017 1:000.0
3/18/2017 11:0031.43/18/2017 11:00992.03/18/2017 11:008603/18/2017 11:0014911/10/2017 1:000.699999988079073/18/2017 11:0054.63/18/2017 11:0021.211/10/2017 1:0025.111/10/2017 1:0055.411/10/2017 0:000.0
3/18/2017 12:0032.13/18/2017 12:00991.33/18/2017 12:006243/18/2017 12:0033811/10/2017 0:001.10000002384193/18/2017 12:0052.13/18/2017 12:0021.111/10/2017 0:0025.611/10/2017 0:0055.411/9/2017 23:000.0
3/18/2017 13:0032.73/18/2017 13:00990.23/18/2017 13:005823/18/2017 13:0030211/9/2017 23:001.60000002384193/18/2017 13:0049.03/18/2017 13:0020.711/9/2017 23:0025.811/9/2017 23:0055.411/9/2017 22:000.0
3/18/2017 14:0032.53/18/2017 14:00989.13/18/2017 14:005613/18/2017 14:0017811/9/2017 22:002.59999990463263/18/2017 14:0050.03/18/2017 14:0020.811/9/2017 22:0026.011/9/2017 22:0055.411/9/2017 21:000.0
3/18/2017 15:0033.33/18/2017 15:00988.13/18/2017 15:005713/18/2017 15:0015211/9/2017 21:001.70000004768373/18/2017 15:0047.03/18/2017 15:0020.511/9/2017 21:0026.111/9/2017 21:0055.411/9/2017 20:000.0
3/18/2017 16:0033.13/18/2017 16:00987.03/18/2017 16:001973/18/2017 16:0016511/9/2017 20:002.20000004768373/18/2017 16:0047.63/18/2017 16:0020.611/9/2017 20:0026.111/9/2017 20:0055.411/9/2017 19:000.0
3/18/2017 17:0032.53/18/2017 17:00986.73/18/2017 17:001403/18/2017 17:0025411/9/2017 19:002.53/18/2017 17:0051.03/18/2017 17:0021.111/9/2017 19:0026.311/9/2017 19:0055.411/9/2017 18:000.0
3/18/2017 18:0031.03/18/2017 18:00987.53/18/2017 18:00373/18/2017 18:0027411/9/2017 18:003.09999990463263/18/2017 18:0060.73/18/2017 18:0022.611/9/2017 18:0026.411/9/2017 18:0055.411/9/2017 17:000.0
3/18/2017 19:0028.93/18/2017 19:00988.43/18/2017 19:0003/18/2017 19:009311/9/2017 17:003.09999990463263/18/2017 19:0067.83/18/2017 19:0022.411/9/2017 17:0026.711/9/2017 17:0055.411/9/2017 16:000.0
3/18/2017 20:0025.83/18/2017 20:00990.13/18/2017 20:0003/18/2017 20:0013511/9/2017 16:004.59999990463263/18/2017 20:0081.23/18/2017 20:0022.411/9/2017 16:0027.311/9/2017 16:0055.411/9/2017 15:000.0
3/18/2017 21:0025.83/18/2017 21:00991.73/18/2017 21:0003/18/2017 21:0012811/9/2017 15:004.90000009536743/18/2017 21:0081.63/18/2017 21:0022.511/9/2017 15:0027.611/9/2017 15:0055.411/9/2017 14:000.0
3/18/2017 22:0024.93/18/2017 22:00991.83/18/2017 22:0003/18/2017 22:0010211/9/2017 14:0043/18/2017 22:0081.83/18/2017 22:0021.611/9/2017 14:0028.211/9/2017 14:0055.411/9/2017 13:000.0
3/18/2017 23:0023.93/18/2017 23:00992.83/18/2017 23:0003/18/2017 23:0029511/9/2017 13:003.70000004768373/18/2017 23:0088.33/18/2017 23:0021.911/9/2017 13:0028.611/9/2017 13:0055.411/9/2017 12:000.0
3/19/2017 0:0023.03/19/2017 0:00993.53/19/2017 0:0003/19/2017 0:0014011/9/2017 12:003.59999990463263/19/2017 0:0092.53/19/2017 0:0021.811/9/2017 12:0028.311/9/2017 12:0055.411/9/2017 11:000.0
3/19/2017 1:0022.53/19/2017 1:00992.23/19/2017 1:0003/19/2017 1:0012811/9/2017 11:003.29999995231633/19/2017 1:0092.43/19/2017 1:0021.311/9/2017 11:0027.311/9/2017 11:0055.411/9/2017 10:000.0
3/19/2017 2:0022.33/19/2017 2:00991.43/19/2017 2:0003/19/2017 2:0023911/9/2017 10:003.79999995231633/19/2017 2:0093.93/19/2017 2:0021.311/9/2017 10:0027.111/9/2017 10:0055.411/9/2017 9:000.0
3/19/2017 3:0022.33/19/2017 3:00991.03/19/2017 3:0003/19/2017 3:0029211/9/2017 9:003.59999990463263/19/2017 3:0094.83/19/2017 3:0021.511/9/2017 9:0026.811/9/2017 9:0055.411/9/2017 8:000.0
3/19/2017 4:0022.33/19/2017 4:00992.13/19/2017 4:0003/19/2017 4:0016111/9/2017 8:002.20000004768373/19/2017 4:0094.43/19/2017 4:0021.411/9/2017 8:0026.111/9/2017 8:0055.411/9/2017 7:000.0
3/19/2017 5:0022.43/19/2017 5:00992.33/19/2017 5:0003/19/2017 5:004111/9/2017 7:002.20000004768373/19/2017 5:0091.73/19/2017 5:0021.111/9/2017 7:0025.611/9/2017 7:0055.411/9/2017 6:000.0
3/19/2017 6:0022.23/19/2017 6:00992.43/19/2017 6:0003/19/2017 6:0021511/9/2017 6:002.70000004768373/19/2017 6:0093.43/19/2017 6:0021.211/9/2017 6:0025.311/9/2017 6:0055.411/9/2017 5:000.0
3/19/2017 7:0022.23/19/2017 7:00992.83/19/2017 7:00113/19/2017 7:0018311/9/2017 5:002.70000004768373/19/2017 7:0093.63/19/2017 7:0021.211/9/2017 5:0025.111/9/2017 5:0055.411/9/2017 4:000.0
3/19/2017 8:0022.23/19/2017 8:00993.53/19/2017 8:00513/19/2017 8:0012011/9/2017 4:002.59999990463263/19/2017 8:0094.03/19/2017 8:0021.311/9/2017 4:0025.111/9/2017 4:0055.411/9/2017 3:000.0
3/19/2017 9:0023.73/19/2017 9:00993.93/19/2017 9:003763/19/2017 9:0018111/9/2017 3:002.29999995231633/19/2017 9:0088.83/19/2017 9:0021.811/9/2017 3:0025.211/9/2017 3:0055.411/9/2017 2:000.0
3/19/2017 10:0025.03/19/2017 10:00994.23/19/2017 10:002313/19/2017 10:0014111/9/2017 2:002.70000004768373/19/2017 10:0082.63/19/2017 10:0021.911/9/2017 2:0025.311/9/2017 2:0055.411/9/2017 1:000.0
3/19/2017 11:0025.53/19/2017 11:00994.03/19/2017 11:004663/19/2017 11:006311/9/2017 1:002.53/19/2017 11:0080.93/19/2017 11:0022.111/9/2017 1:0025.211/9/2017 1:0055.411/9/2017 0:000.0
3/19/2017 12:0027.53/19/2017 12:00993.43/19/2017 12:008473/19/2017 12:0024311/9/2017 0:002.70000004768373/19/2017 12:0071.83/19/2017 12:0022.011/9/2017 0:0025.311/9/2017 0:0055.411/8/2017 23:000.0
3/19/2017 13:0029.83/19/2017 13:00992.13/19/2017 13:008723/19/2017 13:0017411/8/2017 23:0033/19/2017 13:0064.33/19/2017 13:0022.411/8/2017 23:0025.311/8/2017 23:0055.411/8/2017 22:000.0
3/19/2017 14:0031.03/19/2017 14:00990.73/19/2017 14:008003/19/2017 14:0030411/8/2017 22:002.40000009536743/19/2017 14:0060.63/19/2017 14:0022.611/8/2017 22:0025.111/8/2017 22:0055.411/8/2017 21:000.0
3/19/2017 15:0031.23/19/2017 15:00989.53/19/2017 15:005513/19/2017 15:0027511/8/2017 21:002.53/19/2017 15:0058.83/19/2017 15:0022.311/8/2017 21:0025.111/8/2017 21:0055.411/8/2017 20:000.0
3/19/2017 16:0030.93/19/2017 16:00989.13/19/2017 16:002353/19/2017 16:0021811/8/2017 20:003.20000004768373/19/2017 16:0061.13/19/2017 16:0022.611/8/2017 20:0025.011/8/2017 20:0055.411/8/2017 19:000.0
3/19/2017 17:0029.83/19/2017 17:00989.23/19/2017 17:001403/19/2017 17:0024011/8/2017 19:003.29999995231633/19/2017 17:0067.83/19/2017 17:0023.311/8/2017 19:0025.011/8/2017 19:0055.411/8/2017 18:000.0
3/19/2017 18:0029.63/19/2017 18:00989.43/19/2017 18:00723/19/2017 18:0027311/8/2017 18:003.40000009536743/19/2017 18:0068.33/19/2017 18:0023.211/8/2017 18:0025.111/8/2017 18:0055.411/8/2017 17:000.0
3/19/2017 19:0027.63/19/2017 19:00989.43/19/2017 19:0003/19/2017 19:0028411/8/2017 17:003.53/19/2017 19:0080.63/19/2017 19:0024.011/8/2017 17:0025.411/8/2017 17:0055.410/26/2017 19:000.0
3/19/2017 20:0026.13/19/2017 20:00990.13/19/2017 20:0003/19/2017 20:0012010/26/2017 19:001.79999995231633/19/2017 20:0088.03/19/2017 20:0024.010/26/2017 19:0027.210/26/2017 19:0055.410/26/2017 18:000.0
3/19/2017 21:0025.33/19/2017 21:00991.23/19/2017 21:0003/19/2017 21:0010810/26/2017 18:002.40000009536743/19/2017 21:0088.23/19/2017 21:0023.310/26/2017 18:0028.010/26/2017 18:0055.410/26/2017 17:000.0
3/19/2017 22:0024.53/19/2017 22:00991.83/19/2017 22:0003/19/2017 22:0015410/26/2017 17:0043/19/2017 22:0091.63/19/2017 22:0023.110/26/2017 17:0029.010/26/2017 17:0055.410/26/2017 16:000.0
3/19/2017 23:0024.33/19/2017 23:00992.13/19/2017 23:0003/19/2017 23:0010310/26/2017 16:002.29999995231633/19/2017 23:0091.33/19/2017 23:0022.910/26/2017 16:0031.810/26/2017 16:0067.310/26/2017 15:000.0
3/20/2017 0:0023.83/20/2017 0:00991.53/20/2017 0:0003/20/2017 0:0013910/26/2017 15:0043/20/2017 0:0091.93/20/2017 0:0022.510/26/2017 15:0030.710/26/2017 15:0055.410/26/2017 14:000.0
3/20/2017 1:0023.53/20/2017 1:00990.93/20/2017 1:0003/20/2017 1:0012510/26/2017 14:003.79999995231633/20/2017 1:0092.23/20/2017 1:0022.210/26/2017 14:0031.110/26/2017 14:0055.410/26/2017 13:000.0
3/20/2017 2:0023.43/20/2017 2:00990.43/20/2017 2:0003/20/2017 2:0011310/26/2017 13:005.19999980926513/20/2017 2:0092.63/20/2017 2:0022.210/26/2017 13:0030.610/26/2017 13:0055.410/26/2017 12:000.0
3/20/2017 3:0023.33/20/2017 3:00990.43/20/2017 3:0003/20/2017 3:0011110/26/2017 12:005.53/20/2017 3:0092.43/20/2017 3:0022.110/26/2017 12:0030.310/26/2017 12:0055.410/26/2017 11:000.0
3/20/2017 4:0023.13/20/2017 4:00990.33/20/2017 4:0003/20/2017 4:0011210/26/2017 11:005.53/20/2017 4:0092.73/20/2017 4:0021.910/26/2017 11:0029.610/26/2017 11:0055.410/26/2017 10:000.0
3/20/2017 5:0022.83/20/2017 5:00990.63/20/2017 5:0003/20/2017 5:0014010/26/2017 10:005.59999990463263/20/2017 5:0093.83/20/2017 5:0021.810/26/2017 10:0028.510/26/2017 10:0055.410/26/2017 9:000.0
3/20/2017 6:0022.83/20/2017 6:00991.13/20/2017 6:0003/20/2017 6:0010010/26/2017 9:005.19999980926513/20/2017 6:0093.33/20/2017 6:0021.710/26/2017 9:0027.610/26/2017 9:0055.410/26/2017 8:000.0
3/20/2017 7:0023.03/20/2017 7:00991.53/20/2017 7:00463/20/2017 7:0011910/26/2017 8:003.59999990463263/20/2017 7:0092.63/20/2017 7:0021.810/26/2017 8:0026.910/26/2017 8:0055.410/26/2017 7:000.0
3/20/2017 8:0025.33/20/2017 8:00992.03/20/2017 8:002573/20/2017 8:0014110/26/2017 7:002.53/20/2017 8:0082.43/20/2017 8:0022.210/26/2017 7:0026.310/26/2017 7:0055.410/26/2017 6:000.0
3/20/2017 9:0027.93/20/2017 9:00992.33/20/2017 9:004243/20/2017 9:0026710/26/2017 6:001.60000002384193/20/2017 9:0071.83/20/2017 9:0022.410/26/2017 6:0025.710/26/2017 6:0055.410/26/2017 5:000.0
3/20/2017 10:0028.73/20/2017 10:00992.43/20/2017 10:004323/20/2017 10:0027710/26/2017 5:001.20000004768373/20/2017 10:0068.63/20/2017 10:0022.410/26/2017 5:0025.710/26/2017 5:0055.410/26/2017 4:000.0
3/20/2017 11:0030.73/20/2017 11:00991.83/20/2017 11:006713/20/2017 11:0024810/26/2017 4:001.89999997615813/20/2017 11:0062.23/20/2017 11:0022.710/26/2017 4:0025.910/26/2017 4:0055.410/26/2017 3:000.0
3/20/2017 12:0031.43/20/2017 12:00990.73/20/2017 12:006663/20/2017 12:0026510/26/2017 3:001.53/20/2017 12:0059.73/20/2017 12:0022.710/26/2017 3:0025.210/26/2017 3:0055.410/26/2017 2:000.0
3/20/2017 13:0032.43/20/2017 13:00989.63/20/2017 13:008003/20/2017 13:0027210/26/2017 2:0023/20/2017 13:0053.13/20/2017 13:0021.710/26/2017 2:0025.610/26/2017 2:0055.410/26/2017 1:000.0
3/20/2017 14:0032.33/20/2017 14:00988.53/20/2017 14:004723/20/2017 14:0025710/26/2017 1:001.70000004768373/20/2017 14:0054.73/20/2017 14:0022.110/26/2017 1:0025.510/26/2017 1:0055.410/26/2017 0:000.0
3/20/2017 15:0027.03/20/2017 15:00988.83/20/2017 15:002133/20/2017 15:0014010/26/2017 0:001.70000004768373/20/2017 15:0077.13/20/2017 15:0022.710/26/2017 0:0025.410/26/2017 0:0055.410/25/2017 23:000.0
3/20/2017 16:0025.93/20/2017 16:00988.43/20/2017 16:003343/20/2017 16:0010910/25/2017 23:002.90000009536743/20/2017 16:0079.13/20/2017 16:0022.110/25/2017 23:0025.710/25/2017 23:0055.410/25/2017 22:000.0
3/20/2017 17:0027.23/20/2017 17:00988.33/20/2017 17:003323/20/2017 17:0014510/25/2017 22:0033/20/2017 17:0073.93/20/2017 17:0022.210/25/2017 22:0025.910/25/2017 22:0055.410/25/2017 21:000.0
3/20/2017 18:0026.73/20/2017 18:00988.03/20/2017 18:00773/20/2017 18:0014010/25/2017 21:002.53/20/2017 18:0075.13/20/2017 18:0022.010/25/2017 21:0026.110/25/2017 21:0055.410/25/2017 20:000.0
3/20/2017 19:0025.13/20/2017 19:00988.53/20/2017 19:0013/20/2017 19:0014110/25/2017 20:003.09999990463263/20/2017 19:0082.93/20/2017 19:0022.110/25/2017 20:0026.210/25/2017 20:0055.410/25/2017 19:000.0
3/20/2017 20:0023.83/20/2017 20:00989.43/20/2017 20:0003/20/2017 20:0014010/25/2017 19:003.70000004768373/20/2017 20:0088.73/20/2017 20:0021.910/25/2017 19:0026.310/25/2017 19:0055.410/25/2017 18:000.0
3/20/2017 21:0023.23/20/2017 21:00990.23/20/2017 21:0003/20/2017 21:0013610/25/2017 18:004.09999990463263/20/2017 21:0091.53/20/2017 21:0021.810/25/2017 18:0026.710/25/2017 18:0055.410/25/2017 17:000.0
3/20/2017 22:0022.93/20/2017 22:00990.53/20/2017 22:0003/20/2017 22:0011910/25/2017 17:003.90000009536743/20/2017 22:0092.13/20/2017 22:0021.610/25/2017 17:0027.510/25/2017 17:0055.410/25/2017 16:000.0
3/20/2017 23:0022.93/20/2017 23:00990.73/20/2017 23:0003/20/2017 23:0011710/25/2017 16:003.79999995231633/20/2017 23:0090.83/20/2017 23:0021.410/25/2017 16:0028.110/25/2017 16:0055.410/25/2017 15:000.0
3/21/2017 0:0022.73/21/2017 0:00990.83/21/2017 0:0003/21/2017 0:007110/25/2017 15:004.09999990463263/21/2017 0:0092.23/21/2017 0:0021.410/25/2017 15:0028.810/25/2017 15:0055.410/25/2017 14:000.0
3/21/2017 1:0022.63/21/2017 1:00990.73/21/2017 1:0003/21/2017 1:0011410/25/2017 14:005.53/21/2017 1:0092.83/21/2017 1:0021.510/25/2017 14:0028.610/25/2017 14:0055.410/25/2017 13:000.0
3/21/2017 2:0022.53/21/2017 2:00990.03/21/2017 2:0003/21/2017 2:0015310/25/2017 13:005.53/21/2017 2:0093.23/21/2017 2:0021.410/25/2017 13:0028.710/25/2017 13:0055.410/25/2017 12:000.0
3/21/2017 3:0022.23/21/2017 3:00989.53/21/2017 3:0003/21/2017 3:0011410/25/2017 12:005.19999980926513/21/2017 3:0093.93/21/2017 3:0021.210/25/2017 12:0028.410/25/2017 12:0055.410/25/2017 11:000.0
3/21/2017 4:0022.33/21/2017 4:00989.43/21/2017 4:0003/21/2017 4:0010410/25/2017 11:005.69999980926513/21/2017 4:0093.73/21/2017 4:0021.310/25/2017 11:0027.910/25/2017 11:0055.410/25/2017 10:000.0
3/21/2017 5:0022.33/21/2017 5:00989.63/21/2017 5:0003/21/2017 5:005910/25/2017 10:005.80000019073493/21/2017 5:0094.13/21/2017 5:0021.410/25/2017 10:0027.410/25/2017 10:0055.410/25/2017 9:000.0
3/21/2017 6:0022.33/21/2017 6:00990.53/21/2017 6:0003/21/2017 6:0023310/25/2017 9:004.80000019073493/21/2017 6:0094.43/21/2017 6:0021.410/25/2017 9:0026.810/25/2017 9:0055.410/25/2017 8:000.0
3/21/2017 7:0022.53/21/2017 7:00991.33/21/2017 7:00363/21/2017 7:0027010/25/2017 8:004.59999990463263/21/2017 7:0094.23/21/2017 7:0021.610/25/2017 8:0026.310/25/2017 8:0055.410/25/2017 7:000.0
3/21/2017 8:0023.23/21/2017 8:00992.03/21/2017 8:00543/21/2017 8:0031410/25/2017 7:003.53/21/2017 8:0091.83/21/2017 8:0021.910/25/2017 7:0026.010/25/2017 7:0055.410/25/2017 6:000.0
3/21/2017 9:0024.03/21/2017 9:00992.73/21/2017 9:001093/21/2017 9:0034510/25/2017 6:003.40000009536743/21/2017 9:0089.13/21/2017 9:0022.210/25/2017 6:0026.010/25/2017 6:0055.410/25/2017 5:000.0
3/21/2017 10:0024.73/21/2017 10:00992.53/21/2017 10:002313/21/2017 10:006710/25/2017 5:003.59999990463263/21/2017 10:0086.33/21/2017 10:0022.310/25/2017 5:0025.910/25/2017 5:0055.410/25/2017 4:000.0
5/5/2017 3:0024.05/5/2017 3:00989.75/5/2017 3:0085/5/2017 3:0012810/25/2017 4:003.40000009536745/5/2017 3:0088.15/5/2017 3:0022.010/25/2017 4:0025.710/25/2017 4:0055.410/25/2017 3:000.0
5/5/2017 4:0024.05/5/2017 4:00989.95/5/2017 4:0085/5/2017 4:0017110/25/2017 3:003.40000009536745/5/2017 4:0088.95/5/2017 4:0022.110/25/2017 3:0025.710/25/2017 3:0055.410/25/2017 2:000.0
5/5/2017 5:0024.15/5/2017 5:00990.75/5/2017 5:0085/5/2017 5:0012310/25/2017 2:003.55/5/2017 5:0089.15/5/2017 5:0022.310/25/2017 2:0025.610/25/2017 2:0055.410/25/2017 1:000.0
5/5/2017 6:0023.95/5/2017 6:00990.95/5/2017 6:00105/5/2017 6:0011310/25/2017 1:003.79999995231635/5/2017 6:0090.95/5/2017 6:0022.410/25/2017 1:0025.710/25/2017 1:0055.410/25/2017 0:000.0
5/5/2017 7:0024.35/5/2017 7:00991.45/5/2017 7:00575/5/2017 7:0011910/25/2017 0:002.70000004768375/5/2017 7:0089.45/5/2017 7:0022.510/25/2017 0:0025.710/25/2017 0:0055.410/24/2017 23:000.0
5/5/2017 8:0026.25/5/2017 8:00991.95/5/2017 8:001585/5/2017 8:0021810/24/2017 23:003.20000004768375/5/2017 8:0081.55/5/2017 8:0022.910/24/2017 23:0025.710/24/2017 23:0055.410/24/2017 22:000.0
5/5/2017 9:0028.95/5/2017 9:00992.15/5/2017 9:005025/5/2017 9:0014410/24/2017 22:003.29999995231635/5/2017 9:0069.75/5/2017 9:0022.910/24/2017 22:0026.010/24/2017 22:0055.410/24/2017 21:000.0
5/5/2017 10:0030.15/5/2017 10:00992.05/5/2017 10:006625/5/2017 10:0029610/24/2017 21:003.59999990463265/5/2017 10:0067.35/5/2017 10:0023.410/24/2017 21:0025.810/24/2017 21:0055.410/24/2017 20:000.0
5/5/2017 11:0031.75/5/2017 11:00991.85/5/2017 11:006845/5/2017 11:002410/24/2017 20:003.20000004768375/5/2017 11:0060.15/5/2017 11:0023.110/24/2017 20:0025.610/24/2017 20:0055.410/24/2017 19:000.0
5/5/2017 12:0033.05/5/2017 12:00991.35/5/2017 12:008265/5/2017 12:003210/24/2017 19:003.59999990463265/5/2017 12:0054.95/5/2017 12:0022.810/24/2017 19:0025.410/24/2017 19:0055.410/24/2017 18:000.0
5/5/2017 13:0033.95/5/2017 13:00990.45/5/2017 13:006225/5/2017 13:005810/24/2017 18:003.55/5/2017 13:0051.45/5/2017 13:0022.510/24/2017 18:0025.410/24/2017 18:0055.410/24/2017 17:000.0
5/5/2017 14:0034.85/5/2017 14:00989.05/5/2017 14:006855/5/2017 14:003910/24/2017 17:003.40000009536745/5/2017 14:0048.65/5/2017 14:0022.410/24/2017 17:0025.510/24/2017 17:0055.410/24/2017 16:000.0
5/5/2017 15:0033.95/5/2017 15:00988.05/5/2017 15:002695/5/2017 15:004910/24/2017 16:003.29999995231635/5/2017 15:0050.85/5/2017 15:0022.410/24/2017 16:0025.910/24/2017 16:0055.410/24/2017 15:000.0
5/5/2017 16:0030.75/5/2017 16:00988.05/5/2017 16:001985/5/2017 16:008510/24/2017 15:003.79999995231635/5/2017 16:0062.05/5/2017 16:0022.710/24/2017 15:0026.110/24/2017 15:0055.410/24/2017 14:000.0
5/5/2017 17:0029.45/5/2017 17:00988.15/5/2017 17:002545/5/2017 17:0013510/24/2017 14:004.40000009536745/5/2017 17:0065.15/5/2017 17:0022.210/24/2017 14:0026.510/24/2017 14:0055.410/24/2017 13:000.0
5/5/2017 18:0027.85/5/2017 18:00989.05/5/2017 18:00295/5/2017 18:0014510/24/2017 13:004.69999980926515/5/2017 18:0073.65/5/2017 18:0022.710/24/2017 13:0027.010/24/2017 13:0055.410/24/2017 12:000.0
5/5/2017 19:0027.45/5/2017 19:00990.35/5/2017 19:0085/5/2017 19:0023710/24/2017 12:005.09999990463265/5/2017 19:0077.15/5/2017 19:0023.110/24/2017 12:0027.310/24/2017 12:0055.410/24/2017 11:000.0
5/5/2017 20:0026.45/5/2017 20:00991.15/5/2017 20:0075/5/2017 20:0025810/24/2017 11:005.19999980926515/5/2017 20:0082.95/5/2017 20:0023.310/24/2017 11:0027.110/24/2017 11:0055.410/24/2017 10:000.0
5/5/2017 21:0025.55/5/2017 21:00991.75/5/2017 21:0075/5/2017 21:0024310/24/2017 10:005.09999990463265/5/2017 21:0086.55/5/2017 21:0023.210/24/2017 10:0026.310/24/2017 10:0055.410/24/2017 9:000.0
5/5/2017 22:0025.35/5/2017 22:00992.05/5/2017 22:0075/5/2017 22:0015810/24/2017 9:005.55/5/2017 22:0088.05/5/2017 22:0023.210/24/2017 9:0025.910/24/2017 9:0055.410/24/2017 8:000.0
5/5/2017 23:0025.15/5/2017 23:00992.55/5/2017 23:0075/5/2017 23:0026610/24/2017 8:004.55/5/2017 23:0090.05/5/2017 23:0023.410/24/2017 8:0025.710/24/2017 8:0055.410/24/2017 7:000.0
5/6/2017 0:0024.85/6/2017 0:00992.65/6/2017 0:0075/6/2017 0:0013210/24/2017 7:005.80000019073495/6/2017 0:0091.25/6/2017 0:0023.310/24/2017 7:0025.410/24/2017 7:0055.410/24/2017 6:000.0
5/6/2017 1:0024.45/6/2017 1:00992.25/6/2017 1:0075/6/2017 1:0015710/24/2017 6:0055/6/2017 1:0092.95/6/2017 1:0023.310/24/2017 6:0025.310/24/2017 6:0055.410/24/2017 5:000.0
5/6/2017 2:0024.05/6/2017 2:00991.95/6/2017 2:0075/6/2017 2:0014010/24/2017 5:005.55/6/2017 2:0093.85/6/2017 2:0023.010/24/2017 5:0025.510/24/2017 5:0055.410/24/2017 4:000.0
5/6/2017 3:0024.05/6/2017 3:00991.65/6/2017 3:0075/6/2017 3:0013510/24/2017 4:005.40000009536745/6/2017 3:0094.05/6/2017 3:0023.110/24/2017 4:0025.710/24/2017 4:0055.410/24/2017 3:000.0
5/6/2017 4:0023.85/6/2017 4:00991.65/6/2017 4:0075/6/2017 4:0029610/24/2017 3:004.59999990463265/6/2017 4:0094.65/6/2017 4:0023.010/24/2017 3:0025.710/24/2017 3:0055.410/24/2017 2:000.0
5/6/2017 5:0023.45/6/2017 5:00991.75/6/2017 5:0075/6/2017 5:0018210/24/2017 2:0055/6/2017 5:0095.25/6/2017 5:0022.710/24/2017 2:0025.810/24/2017 2:0055.410/24/2017 1:000.0
5/6/2017 6:0023.35/6/2017 6:00992.05/6/2017 6:00215/6/2017 6:0013410/24/2017 1:005.09999990463265/6/2017 6:0095.45/6/2017 6:0022.610/24/2017 1:0025.710/24/2017 1:0055.410/24/2017 0:000.0
5/6/2017 7:0024.75/6/2017 7:00992.95/6/2017 7:001365/6/2017 7:0013610/24/2017 0:0055/6/2017 7:0090.55/6/2017 7:0023.110/24/2017 0:0025.810/24/2017 0:0055.410/23/2017 23:000.0
5/6/2017 8:0027.45/6/2017 8:00993.45/6/2017 8:002875/6/2017 8:004110/23/2017 23:005.40000009536745/6/2017 8:0078.65/6/2017 8:0023.410/23/2017 23:0026.010/23/2017 23:0055.410/23/2017 22:000.0
5/6/2017 9:0029.75/6/2017 9:00993.55/6/2017 9:005195/6/2017 9:0023310/23/2017 22:004.90000009536745/6/2017 9:0068.65/6/2017 9:0023.410/23/2017 22:0026.210/23/2017 22:0055.410/23/2017 21:000.0
5/6/2017 10:0031.65/6/2017 10:00993.35/6/2017 10:006805/6/2017 10:0016010/23/2017 21:005.09999990463265/6/2017 10:0059.95/6/2017 10:0022.910/23/2017 21:0026.310/23/2017 21:0055.410/23/2017 20:000.0
5/6/2017 11:0032.95/6/2017 11:00992.75/6/2017 11:006475/6/2017 11:0017110/23/2017 20:003.70000004768375/6/2017 11:0053.85/6/2017 11:0022.410/23/2017 20:0026.410/23/2017 20:0055.410/23/2017 19:000.0
5/6/2017 12:0033.75/6/2017 12:00991.75/6/2017 12:006935/6/2017 12:0021110/23/2017 19:003.70000004768375/6/2017 12:0052.05/6/2017 12:0022.610/23/2017 19:0026.610/23/2017 19:0055.410/23/2017 18:000.0
5/6/2017 13:0034.65/6/2017 13:00990.45/6/2017 13:009605/6/2017 13:0028110/23/2017 18:003.59999990463265/6/2017 13:0050.05/6/2017 13:0022.710/23/2017 18:0027.010/23/2017 18:0055.410/23/2017 17:000.0
5/6/2017 14:0034.55/6/2017 14:00989.25/6/2017 14:005145/6/2017 14:005810/23/2017 17:003.79999995231635/6/2017 14:0049.25/6/2017 14:0022.410/23/2017 17:0027.710/23/2017 17:0055.410/23/2017 16:000.0
5/6/2017 15:0030.45/6/2017 15:00988.65/6/2017 15:001415/6/2017 15:001710/23/2017 16:004.40000009536745/6/2017 15:0062.85/6/2017 15:0022.610/23/2017 16:0028.310/23/2017 16:0055.410/23/2017 15:000.0
5/14/2017 7:0024.25/14/2017 7:00988.55/14/2017 7:00905/14/2017 7:0011910/23/2017 15:0055/14/2017 7:0094.85/14/2017 7:0023.410/23/2017 15:0028.410/23/2017 15:0055.410/23/2017 14:000.0
5/16/2017 22:0025.35/16/2017 22:00988.95/16/2017 22:0075/16/2017 22:008010/23/2017 14:003.90000009536745/16/2017 22:0069.55/16/2017 22:0019.410/23/2017 14:0028.610/23/2017 14:0055.410/23/2017 13:000.0
6/16/2017 0:0024.06/16/2017 0:00988.86/16/2017 0:0086/16/2017 0:0015110/23/2017 13:004.19999980926516/16/2017 0:0095.66/16/2017 0:0023.310/23/2017 13:0029.310/23/2017 13:0055.410/23/2017 12:000.0
6/16/2017 1:0023.76/16/2017 1:00988.26/16/2017 1:0086/16/2017 1:0013910/23/2017 12:004.69999980926516/16/2017 1:0096.16/16/2017 1:0023.110/23/2017 12:0029.610/23/2017 12:0055.410/23/2017 11:000.0
6/16/2017 2:0023.76/16/2017 2:00987.66/16/2017 2:0086/16/2017 2:0011910/23/2017 11:004.56/16/2017 2:0096.46/16/2017 2:0023.210/23/2017 11:0029.410/23/2017 11:0055.410/23/2017 10:000.0
6/16/2017 3:0023.56/16/2017 3:00987.66/16/2017 3:0086/16/2017 3:0014310/23/2017 10:0056/16/2017 3:0096.66/16/2017 3:0023.010/23/2017 10:0028.510/23/2017 10:0055.410/23/2017 9:000.0
6/16/2017 4:0023.46/16/2017 4:00987.76/16/2017 4:0086/16/2017 4:0010310/23/2017 9:004.56/16/2017 4:0096.86/16/2017 4:0022.910/23/2017 9:0027.710/23/2017 9:0055.410/23/2017 8:000.0
6/16/2017 5:0023.46/16/2017 5:00987.86/16/2017 5:0086/16/2017 5:0013310/23/2017 8:002.09999990463266/16/2017 5:0096.96/16/2017 5:0023.010/23/2017 8:0027.010/23/2017 8:0055.410/23/2017 7:000.0
6/16/2017 6:0023.26/16/2017 6:00987.96/16/2017 6:00226/16/2017 6:0014110/23/2017 7:001.39999997615816/16/2017 6:0097.16/16/2017 6:0022.810/23/2017 7:0025.810/23/2017 7:0055.410/23/2017 6:000.0
6/16/2017 7:0024.36/16/2017 7:00988.36/16/2017 7:001196/16/2017 7:0010410/23/2017 6:000.800000011920936/16/2017 7:0094.36/16/2017 7:0023.410/23/2017 6:0025.510/23/2017 6:0055.410/23/2017 5:000.0
6/16/2017 8:0026.66/16/2017 8:00988.76/16/2017 8:002036/16/2017 8:0011310/23/2017 5:0016/16/2017 8:0085.16/16/2017 8:0024.010/23/2017 5:0025.510/23/2017 5:0055.410/23/2017 4:000.0
6/16/2017 9:0027.46/16/2017 9:00988.96/16/2017 9:003096/16/2017 9:001810/23/2017 4:002.59999990463266/16/2017 9:0082.96/16/2017 9:0024.310/23/2017 4:0026.510/23/2017 4:0055.410/23/2017 3:000.0
6/16/2017 10:0029.06/16/2017 10:00988.76/16/2017 10:005506/16/2017 10:0028110/23/2017 3:003.79999995231636/16/2017 10:0077.36/16/2017 10:0024.710/23/2017 3:0026.510/23/2017 3:0055.410/23/2017 2:000.0
6/16/2017 11:0030.46/16/2017 11:00988.06/16/2017 11:007976/16/2017 11:0027010/23/2017 2:0036/16/2017 11:0071.36/16/2017 11:0024.710/23/2017 2:0026.210/23/2017 2:0055.410/23/2017 1:000.0
6/16/2017 12:0031.26/16/2017 12:00987.56/16/2017 12:008136/16/2017 12:0027810/23/2017 1:003.70000004768376/16/2017 12:0066.46/16/2017 12:0024.310/23/2017 1:0026.410/23/2017 1:0055.410/23/2017 0:000.0
6/16/2017 13:0031.96/16/2017 13:00986.76/16/2017 13:007796/16/2017 13:0028410/23/2017 0:003.09999990463266/16/2017 13:0062.26/16/2017 13:0023.810/23/2017 0:0026.410/23/2017 0:0055.410/22/2017 23:000.0
6/16/2017 14:0032.86/16/2017 14:00985.76/16/2017 14:007576/16/2017 14:0025610/22/2017 23:003.20000004768376/16/2017 14:0059.46/16/2017 14:0023.910/22/2017 23:0026.510/22/2017 23:0055.410/22/2017 22:000.0
6/16/2017 15:0033.26/16/2017 15:00984.86/16/2017 15:007366/16/2017 15:0025910/22/2017 22:002.56/16/2017 15:0057.86/16/2017 15:0023.810/22/2017 22:0026.510/22/2017 22:0055.410/22/2017 21:000.0
6/16/2017 16:0033.76/16/2017 16:00984.36/16/2017 16:005906/16/2017 16:0025110/22/2017 21:002.90000009536746/16/2017 16:0054.66/16/2017 16:0023.410/22/2017 21:0026.710/22/2017 21:0055.410/22/2017 20:000.0
6/16/2017 17:0033.56/16/2017 17:00984.26/16/2017 17:003056/16/2017 17:0023610/22/2017 20:0026/16/2017 17:0055.66/16/2017 17:0023.510/22/2017 20:0026.610/22/2017 20:0055.410/22/2017 19:000.0
6/16/2017 18:0032.26/16/2017 18:00984.56/16/2017 18:001296/16/2017 18:0023810/22/2017 19:001.89999997615816/16/2017 18:0060.56/16/2017 18:0023.710/22/2017 19:0026.910/22/2017 19:0055.410/22/2017 18:000.0
6/16/2017 19:0030.16/16/2017 19:00985.06/16/2017 19:00176/16/2017 19:0024010/22/2017 18:002.56/16/2017 19:0068.36/16/2017 19:0023.710/22/2017 18:0027.610/22/2017 18:0049.610/22/2017 17:000.0
6/16/2017 20:0027.86/16/2017 20:00985.76/16/2017 20:0066/16/2017 20:0012310/22/2017 17:003.90000009536746/16/2017 20:0080.76/16/2017 20:0024.310/22/2017 17:0029.010/22/2017 17:0048.910/22/2017 16:000.0
6/16/2017 21:0026.66/16/2017 21:00986.06/16/2017 21:0076/16/2017 21:0013310/22/2017 16:004.09999990463266/16/2017 21:0087.56/16/2017 21:0024.410/22/2017 16:0030.210/22/2017 16:0048.910/22/2017 15:000.0
6/16/2017 22:0025.66/16/2017 22:00986.26/16/2017 22:0076/16/2017 22:0014510/22/2017 15:004.19999980926516/16/2017 22:0090.66/16/2017 22:0024.010/22/2017 15:0031.110/22/2017 15:0052.810/22/2017 14:000.0
6/16/2017 23:0025.16/16/2017 23:00986.56/16/2017 23:0076/16/2017 23:0015910/22/2017 14:003.20000004768376/16/2017 23:0093.06/16/2017 23:0024.010/22/2017 14:0031.710/22/2017 14:0055.810/22/2017 13:000.0
6/17/2017 0:0024.76/17/2017 0:00986.36/17/2017 0:0076/17/2017 0:0015810/22/2017 13:003.70000004768376/17/2017 0:0094.36/17/2017 0:0023.810/22/2017 13:0031.210/22/2017 13:0056.210/22/2017 12:000.0
6/17/2017 1:0024.66/17/2017 1:00985.86/17/2017 1:0076/17/2017 1:0014810/22/2017 12:003.29999995231636/17/2017 1:0093.76/17/2017 1:0023.610/22/2017 12:0030.710/22/2017 12:0055.410/22/2017 11:000.0
6/17/2017 2:0024.46/17/2017 2:00985.66/17/2017 2:0086/17/2017 2:0015410/22/2017 11:003.56/17/2017 2:0094.46/17/2017 2:0023.510/22/2017 11:0029.610/22/2017 11:0055.410/22/2017 10:000.0
6/17/2017 3:0024.36/17/2017 3:00985.56/17/2017 3:0086/17/2017 3:0011610/22/2017 10:003.29999995231636/17/2017 3:0094.36/17/2017 3:0023.410/22/2017 10:0029.110/22/2017 10:0055.410/22/2017 9:000.0
6/17/2017 4:0024.36/17/2017 4:00985.46/17/2017 4:0086/17/2017 4:0014810/22/2017 9:002.70000004768376/17/2017 4:0095.16/17/2017 4:0023.510/22/2017 9:0028.210/22/2017 9:0055.410/22/2017 8:000.0
6/17/2017 5:0024.36/17/2017 5:00985.66/17/2017 5:0086/17/2017 5:0014210/22/2017 8:000.800000011920936/17/2017 5:0095.26/17/2017 5:0023.610/22/2017 8:0026.610/22/2017 8:0055.410/22/2017 7:000.0
6/17/2017 6:0024.46/17/2017 6:00985.96/17/2017 6:00156/17/2017 6:0012410/22/2017 7:000.899999976158146/17/2017 6:0095.06/17/2017 6:0023.610/22/2017 7:0024.310/22/2017 7:0055.410/22/2017 6:000.0
6/17/2017 7:0024.96/17/2017 7:00986.26/17/2017 7:00486/17/2017 7:0016410/22/2017 6:001.39999997615816/17/2017 7:0092.66/17/2017 7:0023.710/22/2017 6:0025.310/22/2017 6:0055.410/22/2017 5:000.0
6/17/2017 8:0026.06/17/2017 8:00986.36/17/2017 8:001656/17/2017 8:0012410/22/2017 5:002.09999990463266/17/2017 8:0088.16/17/2017 8:0024.010/22/2017 5:0026.110/22/2017 5:0055.410/22/2017 4:000.0
6/17/2017 9:0028.76/17/2017 9:00986.36/17/2017 9:003266/17/2017 9:0014610/22/2017 4:001.60000002384196/17/2017 9:0077.16/17/2017 9:0024.410/22/2017 4:0026.610/22/2017 4:0055.410/22/2017 3:000.0
6/17/2017 10:0029.46/17/2017 10:00986.46/17/2017 10:001956/17/2017 10:0015110/22/2017 3:001.39999997615816/17/2017 10:0074.26/17/2017 10:0024.410/22/2017 3:0026.610/22/2017 3:0055.410/22/2017 2:000.0
6/17/2017 11:0028.36/17/2017 11:00986.36/17/2017 11:001376/17/2017 11:0035410/22/2017 2:0026/17/2017 11:0079.36/17/2017 11:0024.410/22/2017 2:0026.610/22/2017 2:0055.410/22/2017 1:000.0
6/17/2017 12:0029.06/17/2017 12:00985.96/17/2017 12:002716/17/2017 12:0014210/22/2017 1:001.56/17/2017 12:0078.06/17/2017 12:0024.910/22/2017 1:0027.010/22/2017 1:0055.410/22/2017 0:000.0
6/17/2017 13:0029.66/17/2017 13:00985.26/17/2017 13:004066/17/2017 13:0012910/22/2017 0:001.89999997615816/17/2017 13:0075.26/17/2017 13:0024.810/22/2017 0:0027.110/22/2017 0:0055.410/21/2017 23:000.0
6/17/2017 14:0028.56/17/2017 14:00984.86/17/2017 14:001166/17/2017 14:0019110/21/2017 23:002.09999990463266/17/2017 14:0081.96/17/2017 14:0025.210/21/2017 23:0026.810/21/2017 23:0055.410/21/2017 22:000.0
6/17/2017 15:0026.36/17/2017 15:00984.66/17/2017 15:00776/17/2017 15:0021810/21/2017 22:001.29999995231636/17/2017 15:0091.16/17/2017 15:0024.810/21/2017 22:0026.210/21/2017 22:0055.410/21/2017 21:000.0
6/17/2017 16:0025.76/17/2017 16:00983.96/17/2017 16:001036/17/2017 16:0014210/21/2017 21:000.56/17/2017 16:0090.96/17/2017 16:0024.210/21/2017 21:0026.810/21/2017 21:0055.410/21/2017 20:000.0
6/17/2017 17:0025.56/17/2017 17:00983.86/17/2017 17:00766/17/2017 17:0013110/21/2017 20:002.09999990463266/17/2017 17:0091.56/17/2017 17:0024.110/21/2017 20:0027.710/21/2017 20:0055.410/21/2017 19:000.0
6/17/2017 18:0025.56/17/2017 18:00983.96/17/2017 18:00536/17/2017 18:0013910/21/2017 19:001.79999995231636/17/2017 18:0092.76/17/2017 18:0024.310/21/2017 19:0027.710/21/2017 19:0055.410/21/2017 18:000.0
6/17/2017 19:0025.36/17/2017 19:00984.36/17/2017 19:00136/17/2017 19:0016410/21/2017 18:002.29999995231636/17/2017 19:0094.16/17/2017 19:0024.410/21/2017 18:0028.410/21/2017 18:0055.410/21/2017 17:000.0
6/17/2017 20:0025.26/17/2017 20:00985.36/17/2017 20:0096/17/2017 20:008910/21/2017 17:002.56/17/2017 20:0095.26/17/2017 20:0024.510/21/2017 17:0029.410/21/2017 17:0055.410/21/2017 16:000.0
6/17/2017 21:0025.16/17/2017 21:00985.16/17/2017 21:0096/17/2017 21:006810/21/2017 16:002.79999995231636/17/2017 21:0094.86/17/2017 21:0024.310/21/2017 16:0030.110/21/2017 16:0055.410/21/2017 15:000.0
6/17/2017 22:0024.96/17/2017 22:00985.46/17/2017 22:0096/17/2017 22:008110/21/2017 15:003.40000009536746/17/2017 22:0095.16/17/2017 22:0024.110/21/2017 15:0030.610/21/2017 15:0055.410/21/2017 14:000.0
6/17/2017 23:0024.86/17/2017 23:00985.86/17/2017 23:0096/17/2017 23:0020610/21/2017 14:003.90000009536746/17/2017 23:0096.06/17/2017 23:0024.210/21/2017 14:0031.410/21/2017 14:0055.410/21/2017 13:000.0
6/18/2017 0:0024.66/18/2017 0:00985.76/18/2017 0:0096/18/2017 0:0018510/21/2017 13:003.40000009536746/18/2017 0:0096.46/18/2017 0:0024.110/21/2017 13:0031.610/21/2017 13:0055.410/21/2017 12:000.0
7/16/2017 20:0024.67/16/2017 20:00978.57/16/2017 20:0097/16/2017 20:0026610/21/2017 12:003.20000004768377/16/2017 20:0095.97/16/2017 20:0024.010/21/2017 12:0031.010/21/2017 12:0055.410/21/2017 11:000.0
7/16/2017 21:0024.67/16/2017 21:00978.87/16/2017 21:0097/16/2017 21:0026410/21/2017 11:003.29999995231637/16/2017 21:0096.17/16/2017 21:0024.010/21/2017 11:0030.410/21/2017 11:0055.410/21/2017 10:000.0
7/16/2017 22:0024.77/16/2017 22:00978.27/16/2017 22:0097/16/2017 22:0025110/21/2017 10:002.57/16/2017 22:0096.27/16/2017 22:0024.110/21/2017 10:0029.210/21/2017 10:0055.410/21/2017 9:000.0
7/16/2017 23:0024.97/16/2017 23:00977.77/16/2017 23:0097/16/2017 23:0024710/21/2017 9:001.57/16/2017 23:0096.67/16/2017 23:0024.410/21/2017 9:0028.110/21/2017 9:0055.410/21/2017 8:000.0
7/17/2017 0:0024.77/17/2017 0:00977.57/17/2017 0:0097/17/2017 0:0023910/21/2017 8:001.60000002384197/17/2017 0:0094.87/17/2017 0:0023.910/21/2017 8:0027.410/21/2017 8:0055.410/21/2017 7:000.0
7/17/2017 1:0024.37/17/2017 1:00977.17/17/2017 1:0097/17/2017 1:0022910/21/2017 7:000.57/17/2017 1:0095.77/17/2017 1:0023.610/21/2017 7:0025.710/21/2017 7:0055.410/21/2017 6:000.0
7/17/2017 2:0024.07/17/2017 2:00977.27/17/2017 2:0097/17/2017 2:0022910/21/2017 6:000.699999988079077/17/2017 2:0096.87/17/2017 2:0023.510/21/2017 6:0025.810/21/2017 6:0055.410/21/2017 5:000.0
7/17/2017 3:0023.87/17/2017 3:00977.77/17/2017 3:0097/17/2017 3:0021510/21/2017 5:001.10000002384197/17/2017 3:0096.27/17/2017 3:0023.210/21/2017 5:0025.610/21/2017 5:0055.410/21/2017 4:000.0
7/17/2017 4:0024.17/17/2017 4:00978.17/17/2017 4:0097/17/2017 4:0019310/21/2017 4:000.600000023841867/17/2017 4:0095.57/17/2017 4:0023.410/21/2017 4:0025.410/21/2017 4:0055.410/21/2017 3:000.0
7/17/2017 5:0024.37/17/2017 5:00978.67/17/2017 5:0097/17/2017 5:0021210/21/2017 3:000.699999988079077/17/2017 5:0094.87/17/2017 5:0023.510/21/2017 3:0025.110/21/2017 3:0055.410/21/2017 2:000.0
7/17/2017 6:0024.37/17/2017 6:00979.27/17/2017 6:00137/17/2017 6:0015310/21/2017 2:000.699999988079077/17/2017 6:0095.87/17/2017 6:0023.710/21/2017 2:0025.010/21/2017 2:0055.410/21/2017 1:000.0
7/17/2017 7:0024.97/17/2017 7:00980.77/17/2017 7:00537/17/2017 7:0017510/21/2017 1:000.600000023841867/17/2017 7:0091.37/17/2017 7:0023.510/21/2017 1:0024.110/21/2017 1:0055.410/21/2017 0:000.0
7/17/2017 8:0025.17/17/2017 8:00982.07/17/2017 8:00577/17/2017 8:0018410/21/2017 0:000.600000023841867/17/2017 8:0088.97/17/2017 8:0023.210/21/2017 0:0023.910/21/2017 0:0055.410/20/2017 23:000.0
7/17/2017 9:0025.17/17/2017 9:00982.97/17/2017 9:00517/17/2017 9:0018710/20/2017 23:000.57/17/2017 9:0087.97/17/2017 9:0023.010/20/2017 23:0024.910/20/2017 23:0055.410/20/2017 22:000.0
7/17/2017 10:0025.37/17/2017 10:00983.77/17/2017 10:001117/17/2017 10:0017110/20/2017 22:000.899999976158147/17/2017 10:0088.07/17/2017 10:0023.210/20/2017 22:0026.410/20/2017 22:0055.410/20/2017 21:000.0
7/17/2017 11:0025.57/17/2017 11:00983.77/17/2017 11:001257/17/2017 11:0017010/20/2017 21:000.899999976158147/17/2017 11:0087.77/17/2017 11:0023.410/20/2017 21:0026.910/20/2017 21:0055.410/20/2017 20:000.0
7/17/2017 12:0026.47/17/2017 12:00983.57/17/2017 12:001937/17/2017 12:0016410/20/2017 20:002.09999990463267/17/2017 12:0085.57/17/2017 12:0023.810/20/2017 20:0027.710/20/2017 20:0055.410/20/2017 19:000.0
7/17/2017 13:0027.07/17/2017 13:00983.27/17/2017 13:002677/17/2017 13:0017610/20/2017 19:001.39999997615817/17/2017 13:0083.47/17/2017 13:0024.010/20/2017 19:0028.410/20/2017 19:0055.410/20/2017 18:000.0
7/17/2017 14:0028.27/17/2017 14:00982.57/17/2017 14:005027/17/2017 14:0016810/20/2017 18:002.90000009536747/17/2017 14:0080.17/17/2017 14:0024.510/20/2017 18:0029.510/20/2017 18:0055.410/20/2017 17:000.0
7/17/2017 15:0029.57/17/2017 15:00981.97/17/2017 15:004117/17/2017 15:0018110/20/2017 17:002.40000009536747/17/2017 15:0073.87/17/2017 15:0024.410/20/2017 17:0030.810/20/2017 17:0055.410/20/2017 16:000.0
7/17/2017 16:0028.47/17/2017 16:00981.67/17/2017 16:002567/17/2017 16:0012810/20/2017 16:002.59999990463267/17/2017 16:0079.27/17/2017 16:0024.510/20/2017 16:0032.010/20/2017 16:0055.410/20/2017 15:000.0
7/17/2017 17:0027.27/17/2017 17:00982.07/17/2017 17:001167/17/2017 17:0028910/20/2017 15:002.70000004768377/17/2017 17:0088.87/17/2017 17:0025.310/20/2017 15:0032.010/20/2017 15:0055.410/20/2017 14:000.0
7/17/2017 18:0026.27/17/2017 18:00982.67/17/2017 18:00857/17/2017 18:0015510/20/2017 14:003.09999990463267/17/2017 18:0089.27/17/2017 18:0024.410/20/2017 14:0031.610/20/2017 14:0055.410/20/2017 13:000.0
7/17/2017 19:0026.17/17/2017 19:00983.87/17/2017 19:00247/17/2017 19:006910/20/2017 13:003.79999995231637/17/2017 19:0089.57/17/2017 19:0024.310/20/2017 13:0030.810/20/2017 13:0055.410/20/2017 12:000.0
7/17/2017 20:0025.77/17/2017 20:00984.77/17/2017 20:00107/17/2017 20:005010/20/2017 12:004.40000009536747/17/2017 20:0090.57/17/2017 20:0024.110/20/2017 12:0030.110/20/2017 12:0055.410/20/2017 11:000.0
7/17/2017 21:0025.27/17/2017 21:00985.87/17/2017 21:0097/17/2017 21:0011410/20/2017 11:004.57/17/2017 21:0093.67/17/2017 21:0024.210/20/2017 11:0029.510/20/2017 11:0055.410/20/2017 10:000.0
7/17/2017 22:0024.97/17/2017 22:00986.67/17/2017 22:00107/17/2017 22:003710/20/2017 10:0047/17/2017 22:0095.07/17/2017 22:0024.110/20/2017 10:0028.610/20/2017 10:0055.410/20/2017 9:000.0
7/17/2017 23:0024.97/17/2017 23:00987.47/17/2017 23:0097/17/2017 23:0016210/20/2017 9:002.90000009536747/17/2017 23:0093.17/17/2017 23:0023.810/20/2017 9:0027.610/20/2017 9:0055.410/20/2017 8:000.0
7/18/2017 0:0024.37/18/2017 0:00987.57/18/2017 0:0097/18/2017 0:0015610/20/2017 8:001.10000002384197/18/2017 0:0093.87/18/2017 0:0023.310/20/2017 8:0026.010/20/2017 8:0055.410/20/2017 7:000.0
7/18/2017 1:0024.07/18/2017 1:00987.07/18/2017 1:0097/18/2017 1:0016510/20/2017 7:001.20000004768377/18/2017 1:0094.37/18/2017 1:0023.110/20/2017 7:0024.010/20/2017 7:0055.410/20/2017 6:000.0
7/18/2017 2:0024.07/18/2017 2:00986.67/18/2017 2:0097/18/2017 2:0016110/20/2017 6:000.899999976158147/18/2017 2:0095.07/18/2017 2:0023.210/20/2017 6:0023.210/20/2017 6:0055.410/20/2017 5:000.0
7/18/2017 3:0023.87/18/2017 3:00986.47/18/2017 3:0097/18/2017 3:00010/20/2017 5:001.70000004768377/18/2017 3:0096.47/18/2017 3:0023.310/20/2017 5:0024.710/20/2017 5:0055.410/20/2017 4:000.0
7/18/2017 4:0023.97/18/2017 4:00986.67/18/2017 4:0097/18/2017 4:0010010/20/2017 4:000.57/18/2017 4:0096.27/18/2017 4:0023.310/20/2017 4:0022.510/20/2017 4:0055.410/20/2017 3:000.0
7/18/2017 5:0023.87/18/2017 5:00986.77/18/2017 5:0097/18/2017 5:0017610/20/2017 3:000.600000023841867/18/2017 5:0096.67/18/2017 5:0023.310/20/2017 3:0022.710/20/2017 3:0055.410/20/2017 2:000.0
7/18/2017 6:0023.77/18/2017 6:00986.97/18/2017 6:00107/18/2017 6:0022710/20/2017 2:000.600000023841867/18/2017 6:0095.97/18/2017 6:0023.110/20/2017 2:0023.510/20/2017 2:0055.410/20/2017 1:000.0
7/18/2017 7:0023.87/18/2017 7:00987.57/18/2017 7:00307/18/2017 7:0025310/20/2017 1:000.800000011920937/18/2017 7:0095.17/18/2017 7:0023.010/20/2017 1:0024.510/20/2017 1:0055.410/20/2017 0:000.0
7/18/2017 8:0024.37/18/2017 8:00988.17/18/2017 8:00867/18/2017 8:008910/20/2017 0:000.699999988079077/18/2017 8:0094.07/18/2017 8:0023.310/20/2017 0:0025.010/20/2017 0:0055.410/19/2017 23:000.0
7/18/2017 9:0025.07/18/2017 9:00988.77/18/2017 9:001367/18/2017 9:009510/19/2017 23:001.39999997615817/18/2017 9:0090.77/18/2017 9:0023.410/19/2017 23:0026.410/19/2017 23:0055.410/19/2017 22:000.0
7/18/2017 10:0025.67/18/2017 10:00988.97/18/2017 10:001517/18/2017 10:00110/19/2017 22:001.57/18/2017 10:0089.97/18/2017 10:0023.910/19/2017 22:0026.910/19/2017 22:0055.410/19/2017 21:000.0
7/18/2017 11:0025.87/18/2017 11:00988.77/18/2017 11:003137/18/2017 11:0030510/19/2017 21:001.70000004768377/18/2017 11:0090.47/18/2017 11:0024.210/19/2017 21:0027.010/19/2017 21:0055.410/19/2017 20:000.0
7/18/2017 12:0027.07/18/2017 12:00988.27/18/2017 12:004207/18/2017 12:0030510/19/2017 20:001.29999995231637/18/2017 12:0085.37/18/2017 12:0024.410/19/2017 20:0026.610/19/2017 20:0055.410/19/2017 19:000.0
7/18/2017 13:0026.77/18/2017 13:00988.17/18/2017 13:002227/18/2017 13:0028410/19/2017 19:001.20000004768377/18/2017 13:0088.07/18/2017 13:0024.610/19/2017 19:0026.610/19/2017 19:0055.410/19/2017 18:000.0
7/18/2017 14:0026.87/18/2017 14:00987.27/18/2017 14:002707/18/2017 14:001410/19/2017 18:001.70000004768377/18/2017 14:0088.17/18/2017 14:0024.710/19/2017 18:0026.710/19/2017 18:0055.410/19/2017 17:000.0
7/18/2017 15:0027.67/18/2017 15:00986.37/18/2017 15:005907/18/2017 15:0013110/19/2017 17:002.29999995231637/18/2017 15:0084.27/18/2017 15:0024.810/19/2017 17:0027.010/19/2017 17:0055.410/19/2017 16:000.0
7/18/2017 16:0028.47/18/2017 16:00985.47/18/2017 16:003917/18/2017 16:0014310/19/2017 16:0037/18/2017 16:0081.87/18/2017 16:0025.110/19/2017 16:0027.410/19/2017 16:0055.410/19/2017 15:000.0
7/18/2017 17:0030.17/18/2017 17:00985.27/18/2017 17:004287/18/2017 17:006010/19/2017 15:003.20000004768377/18/2017 17:0074.37/18/2017 17:0025.110/19/2017 15:0027.510/19/2017 15:0055.410/19/2017 14:000.0
7/18/2017 18:0029.67/18/2017 18:00985.37/18/2017 18:001517/18/2017 18:0015510/19/2017 14:002.70000004768377/18/2017 18:0076.37/18/2017 18:0025.110/19/2017 14:0027.110/19/2017 14:0055.410/19/2017 13:000.0
7/18/2017 19:0028.07/18/2017 19:00986.17/18/2017 19:00227/18/2017 19:0014410/19/2017 13:003.90000009536747/18/2017 19:0085.17/18/2017 19:0025.310/19/2017 13:0027.610/19/2017 13:0055.410/19/2017 12:000.0
7/18/2017 20:0026.57/18/2017 20:00987.07/18/2017 20:0077/18/2017 20:0011710/19/2017 12:004.69999980926517/18/2017 20:0092.27/18/2017 20:0025.210/19/2017 12:0028.010/19/2017 12:0055.410/19/2017 11:000.0
7/18/2017 21:0025.57/18/2017 21:00987.77/18/2017 21:0077/18/2017 21:009210/19/2017 11:005.19999980926517/18/2017 21:0094.17/18/2017 21:0024.610/19/2017 11:0027.910/19/2017 11:0055.410/19/2017 10:000.0
7/18/2017 22:0025.27/18/2017 22:00988.57/18/2017 22:0087/18/2017 22:009710/19/2017 10:003.59999990463267/18/2017 22:0094.27/18/2017 22:0024.310/19/2017 10:0027.210/19/2017 10:0055.410/19/2017 9:000.0
7/18/2017 23:0024.97/18/2017 23:00989.27/18/2017 23:0087/18/2017 23:006010/19/2017 9:002.20000004768377/18/2017 23:0094.77/18/2017 23:0024.110/19/2017 9:0026.610/19/2017 9:0055.410/19/2017 8:000.0
7/19/2017 0:0024.87/19/2017 0:00989.07/19/2017 0:0097/19/2017 0:0013010/19/2017 8:001.70000004768377/19/2017 0:0095.17/19/2017 0:0024.010/19/2017 8:0026.310/19/2017 8:0055.410/19/2017 7:000.0
7/19/2017 1:0024.77/19/2017 1:00988.37/19/2017 1:0087/19/2017 1:0011110/19/2017 7:0017/19/2017 1:0095.77/19/2017 1:0024.010/19/2017 7:0024.810/19/2017 7:0055.410/19/2017 6:000.0
7/19/2017 2:0024.57/19/2017 2:00987.67/19/2017 2:0097/19/2017 2:0010310/19/2017 6:001.10000002384197/19/2017 2:0096.57/19/2017 2:0024.010/19/2017 6:0024.210/19/2017 6:0055.410/19/2017 5:000.0
7/19/2017 3:0024.77/19/2017 3:00986.97/19/2017 3:0097/19/2017 3:0010410/19/2017 5:000.699999988079077/19/2017 3:0095.87/19/2017 3:0024.110/19/2017 5:0024.310/19/2017 5:0055.410/19/2017 4:000.0
7/19/2017 4:0024.77/19/2017 4:00986.87/19/2017 4:0097/19/2017 4:0017310/19/2017 4:000.600000023841867/19/2017 4:0095.97/19/2017 4:0024.110/19/2017 4:0024.310/19/2017 4:0055.410/19/2017 3:000.0
7/19/2017 5:0024.47/19/2017 5:00987.07/19/2017 5:0097/19/2017 5:0013910/19/2017 3:001.29999995231637/19/2017 5:0095.97/19/2017 5:0023.810/19/2017 3:0024.710/19/2017 3:0055.410/19/2017 2:000.0
7/19/2017 6:0024.47/19/2017 6:00987.37/19/2017 6:00117/19/2017 6:0015510/19/2017 2:0017/19/2017 6:0094.97/19/2017 6:0023.610/19/2017 2:0025.110/19/2017 2:0055.410/19/2017 1:000.0
7/19/2017 7:0024.47/19/2017 7:00987.67/19/2017 7:00307/19/2017 7:0016210/19/2017 1:000.600000023841867/19/2017 7:0095.07/19/2017 7:0023.610/19/2017 1:0024.510/19/2017 1:0055.410/19/2017 0:000.0
7/19/2017 8:0024.47/19/2017 8:00988.27/19/2017 8:00857/19/2017 8:0014510/19/2017 0:001.39999997615817/19/2017 8:0095.97/19/2017 8:0023.810/19/2017 0:0025.310/19/2017 0:0055.410/18/2017 23:000.0
7/19/2017 9:0025.27/19/2017 9:00988.47/19/2017 9:001277/19/2017 9:005910/18/2017 23:002.90000009536747/19/2017 9:0093.17/19/2017 9:0024.110/18/2017 23:0025.910/18/2017 23:0055.410/18/2017 22:000.0
7/19/2017 10:0026.27/19/2017 10:00988.17/19/2017 10:002427/19/2017 10:0019010/18/2017 22:002.70000004768377/19/2017 10:0087.87/19/2017 10:0024.110/18/2017 22:0025.710/18/2017 22:0055.410/18/2017 21:000.0
7/19/2017 11:0026.37/19/2017 11:00987.67/19/2017 11:003747/19/2017 11:0023510/18/2017 21:003.57/19/2017 11:0087.47/19/2017 11:0024.110/18/2017 21:0025.810/18/2017 21:0055.410/18/2017 20:000.0
7/19/2017 12:0026.97/19/2017 12:00987.07/19/2017 12:003687/19/2017 12:0025110/18/2017 20:003.29999995231637/19/2017 12:0084.47/19/2017 12:0024.110/18/2017 20:0025.810/18/2017 20:0055.410/18/2017 19:000.0
7/19/2017 13:0027.27/19/2017 13:00986.47/19/2017 13:004007/19/2017 13:0027910/18/2017 19:003.20000004768377/19/2017 13:0081.47/19/2017 13:0023.810/18/2017 19:0025.710/18/2017 19:0055.410/18/2017 18:000.0
7/19/2017 14:0026.87/19/2017 14:00985.57/19/2017 14:003507/19/2017 14:0026710/18/2017 18:0037/19/2017 14:0083.97/19/2017 14:0023.910/18/2017 18:0026.010/18/2017 18:0055.410/18/2017 17:000.0
7/19/2017 15:0027.67/19/2017 15:00984.57/19/2017 15:004087/19/2017 15:0027210/18/2017 17:0037/19/2017 15:0080.87/19/2017 15:0024.110/18/2017 17:0026.710/18/2017 17:0055.410/18/2017 16:000.0
7/19/2017 16:0027.97/19/2017 16:00983.57/19/2017 16:002597/19/2017 16:0026310/18/2017 16:002.57/19/2017 16:0079.07/19/2017 16:0024.010/18/2017 16:0026.710/18/2017 16:0055.410/18/2017 15:000.0
7/19/2017 17:0027.37/19/2017 17:00983.37/19/2017 17:001447/19/2017 17:0024310/18/2017 15:002.40000009536747/19/2017 17:0083.47/19/2017 17:0024.310/18/2017 15:0026.310/18/2017 15:0055.410/18/2017 14:000.0
7/19/2017 18:0027.27/19/2017 18:00983.87/19/2017 18:00797/19/2017 18:0016210/18/2017 14:003.09999990463267/19/2017 18:0084.37/19/2017 18:0024.410/18/2017 14:0026.710/18/2017 14:0055.410/18/2017 13:000.0
7/19/2017 19:0026.07/19/2017 19:00984.67/19/2017 19:00157/19/2017 19:0014210/18/2017 13:002.90000009536747/19/2017 19:0091.37/19/2017 19:0024.510/18/2017 13:0027.010/18/2017 13:0055.410/18/2017 12:000.0
7/19/2017 20:0025.27/19/2017 20:00985.27/19/2017 20:0077/19/2017 20:0013510/18/2017 12:002.57/19/2017 20:0095.07/19/2017 20:0024.410/18/2017 12:0026.710/18/2017 12:0055.410/18/2017 11:000.0
7/19/2017 21:0024.97/19/2017 21:00985.57/19/2017 21:0087/19/2017 21:0013810/18/2017 11:004.90000009536747/19/2017 21:0096.17/19/2017 21:0024.310/18/2017 11:0026.710/18/2017 11:0055.410/18/2017 10:000.0
7/19/2017 22:0024.67/19/2017 22:00986.07/19/2017 22:0087/19/2017 22:009510/18/2017 10:0047/19/2017 22:0096.67/19/2017 22:0024.110/18/2017 10:0026.910/18/2017 10:0055.410/18/2017 9:000.0
7/19/2017 23:0024.47/19/2017 23:00986.57/19/2017 23:0097/19/2017 23:0012910/18/2017 9:003.90000009536747/19/2017 23:0097.07/19/2017 23:0024.010/18/2017 9:0026.010/18/2017 9:0055.410/18/2017 8:000.0
7/20/2017 0:0024.47/20/2017 0:00986.17/20/2017 0:0097/20/2017 0:0010910/18/2017 8:004.69999980926517/20/2017 0:0097.17/20/2017 0:0024.010/18/2017 8:0025.010/18/2017 8:0055.410/18/2017 7:000.0
7/20/2017 1:0024.47/20/2017 1:00985.57/20/2017 1:0097/20/2017 1:0013410/18/2017 7:003.90000009536747/20/2017 1:0096.97/20/2017 1:0024.010/18/2017 7:0024.410/18/2017 7:0055.410/18/2017 6:000.0
7/20/2017 2:0024.47/20/2017 2:00985.07/20/2017 2:0087/20/2017 2:0012510/18/2017 6:002.79999995231637/20/2017 2:0096.67/20/2017 2:0023.910/18/2017 6:0024.210/18/2017 6:0055.410/18/2017 5:000.0
7/20/2017 3:0024.57/20/2017 3:00984.57/20/2017 3:0087/20/2017 3:0013610/18/2017 5:004.30000019073497/20/2017 3:0095.87/20/2017 3:0023.910/18/2017 5:0024.210/18/2017 5:0055.410/18/2017 4:000.0
7/20/2017 4:0024.67/20/2017 4:00984.47/20/2017 4:0087/20/2017 4:0014810/18/2017 4:004.59999990463267/20/2017 4:0095.37/20/2017 4:0023.910/18/2017 4:0024.310/18/2017 4:0055.410/18/2017 3:000.0
7/20/2017 5:0024.47/20/2017 5:00984.67/20/2017 5:00107/20/2017 5:0012110/18/2017 3:004.30000019073497/20/2017 5:0096.37/20/2017 5:0023.810/18/2017 3:0024.510/18/2017 3:0055.410/18/2017 2:000.0
7/20/2017 6:0024.37/20/2017 6:00984.77/20/2017 6:00117/20/2017 6:0016710/18/2017 2:003.29999995231637/20/2017 6:0095.57/20/2017 6:0023.610/18/2017 2:0024.510/18/2017 2:0055.410/18/2017 1:000.0
7/20/2017 7:0024.47/20/2017 7:00985.47/20/2017 7:00277/20/2017 7:0011710/18/2017 1:003.90000009536747/20/2017 7:0094.57/20/2017 7:0023.510/18/2017 1:0024.610/18/2017 1:0055.410/18/2017 0:000.0
7/20/2017 8:0024.97/20/2017 8:00985.97/20/2017 8:00897/20/2017 8:0010710/18/2017 0:0047/20/2017 8:0093.17/20/2017 8:0023.810/18/2017 0:0024.610/18/2017 0:0055.410/17/2017 23:000.0
7/20/2017 9:0026.07/20/2017 9:00986.27/20/2017 9:002107/20/2017 9:0016310/17/2017 23:003.90000009536747/20/2017 9:0087.87/20/2017 9:0023.910/17/2017 23:0024.710/17/2017 23:0055.410/17/2017 22:000.0
7/20/2017 10:0026.87/20/2017 10:00986.67/20/2017 10:002347/20/2017 10:0016410/17/2017 22:005.09999990463267/20/2017 10:0084.57/20/2017 10:0024.010/17/2017 22:0024.910/17/2017 22:0055.410/17/2017 21:000.0
7/20/2017 11:0027.57/20/2017 11:00986.57/20/2017 11:002987/20/2017 11:0018410/17/2017 21:005.69999980926517/20/2017 11:0081.67/20/2017 11:0024.110/17/2017 21:0025.010/17/2017 21:0055.410/17/2017 20:000.0
7/20/2017 12:0028.77/20/2017 12:00985.77/20/2017 12:003997/20/2017 12:0024910/17/2017 20:003.90000009536747/20/2017 12:0076.67/20/2017 12:0024.310/17/2017 20:0024.910/17/2017 20:0055.410/17/2017 19:000.0
7/20/2017 13:0028.17/20/2017 13:00984.87/20/2017 13:004207/20/2017 13:0031210/17/2017 19:004.59999990463267/20/2017 13:0080.87/20/2017 13:0024.610/17/2017 19:0024.810/17/2017 19:0055.410/17/2017 18:000.0
8/12/2017 5:0025.08/12/2017 5:00987.38/12/2017 5:0088/12/2017 5:0014210/17/2017 18:004.58/12/2017 5:0096.28/12/2017 5:0024.410/17/2017 18:0024.910/17/2017 18:0055.410/17/2017 17:000.0
8/12/2017 6:0025.18/12/2017 6:00987.48/12/2017 6:00118/12/2017 6:003910/17/2017 17:004.30000019073498/12/2017 6:0096.28/12/2017 6:0024.510/17/2017 17:0025.310/17/2017 17:0055.410/17/2017 16:000.0
8/12/2017 7:0025.48/12/2017 7:00988.08/12/2017 7:00678/12/2017 7:0011510/17/2017 16:005.30000019073498/12/2017 7:0095.98/12/2017 7:0024.810/17/2017 16:0025.710/17/2017 16:0055.48/21/2017 4:000.0
8/12/2017 8:0026.98/12/2017 8:00988.58/12/2017 8:002048/12/2017 8:00578/21/2017 4:000.800000011920938/12/2017 8:0090.88/12/2017 8:0025.38/21/2017 4:0027.38/21/2017 4:0055.38/21/2017 3:000.0
8/12/2017 9:0029.58/12/2017 9:00988.58/12/2017 9:004648/12/2017 9:002818/21/2017 3:000.600000023841868/12/2017 9:0080.88/12/2017 9:0025.98/21/2017 3:0027.68/21/2017 3:0055.38/21/2017 2:000.0
8/12/2017 10:0031.38/12/2017 10:00988.38/12/2017 10:006328/12/2017 10:002308/21/2017 2:000.800000011920938/12/2017 10:0072.58/12/2017 10:0025.88/21/2017 2:0027.88/21/2017 2:0055.38/21/2017 1:000.0
8/12/2017 11:0032.58/12/2017 11:00987.98/12/2017 11:008138/12/2017 11:002198/21/2017 1:000.800000011920938/12/2017 11:0067.68/12/2017 11:0025.88/21/2017 1:0027.88/21/2017 1:0055.38/21/2017 0:000.0
8/12/2017 12:0033.38/12/2017 12:00987.08/12/2017 12:009728/12/2017 12:002468/21/2017 0:000.899999976158148/12/2017 12:0062.68/12/2017 12:0025.38/21/2017 0:0028.28/21/2017 0:0055.38/20/2017 23:000.0
8/12/2017 13:0033.18/12/2017 13:00986.08/12/2017 13:006958/12/2017 13:002678/20/2017 23:000.400000005960468/12/2017 13:0062.98/12/2017 13:0025.28/20/2017 23:0028.38/20/2017 23:0055.38/20/2017 22:000.0
8/12/2017 14:0033.58/12/2017 14:00985.48/12/2017 14:007428/12/2017 14:002638/20/2017 22:000.600000023841868/12/2017 14:0062.48/12/2017 14:0025.48/20/2017 22:0028.98/20/2017 22:0055.38/20/2017 21:000.0
8/12/2017 15:0034.18/12/2017 15:00984.88/12/2017 15:005308/12/2017 15:002528/20/2017 21:000.899999976158148/12/2017 15:0059.88/12/2017 15:0025.38/20/2017 21:0029.78/20/2017 21:0055.38/20/2017 20:000.0
8/12/2017 16:0033.38/12/2017 16:00984.58/12/2017 16:002968/12/2017 16:002428/20/2017 20:001.39999997615818/12/2017 16:0063.18/12/2017 16:0025.48/20/2017 20:0030.18/20/2017 20:0055.38/20/2017 19:000.0
8/12/2017 17:0032.78/12/2017 17:00984.28/12/2017 17:002278/12/2017 17:002268/20/2017 19:002.09999990463268/12/2017 17:0065.78/12/2017 17:0025.58/20/2017 19:0030.38/20/2017 19:0055.38/20/2017 18:000.0
8/12/2017 18:0032.88/12/2017 18:00983.98/12/2017 18:001218/12/2017 18:002768/20/2017 18:001.70000004768378/12/2017 18:0066.58/12/2017 18:0025.88/20/2017 18:0031.28/20/2017 18:0055.48/20/2017 17:000.0
8/12/2017 19:0030.98/12/2017 19:00984.48/12/2017 19:00168/12/2017 19:00728/20/2017 17:003.20000004768378/12/2017 19:0079.08/12/2017 19:0026.98/20/2017 17:0032.18/20/2017 17:0055.48/20/2017 16:000.0
8/12/2017 20:0028.68/12/2017 20:00985.58/12/2017 20:0068/12/2017 20:001118/20/2017 16:002.58/12/2017 20:0089.48/12/2017 20:0026.88/20/2017 16:0033.68/20/2017 16:0055.48/20/2017 15:000.0
8/12/2017 21:0027.78/12/2017 21:00986.38/12/2017 21:0078/12/2017 21:001358/20/2017 15:001.58/12/2017 21:0091.38/12/2017 21:0026.28/20/2017 15:0033.98/20/2017 15:0055.38/20/2017 14:000.0
8/12/2017 22:0026.98/12/2017 22:00987.08/12/2017 22:0078/12/2017 22:001318/20/2017 14:001.10000002384198/12/2017 22:0093.78/12/2017 22:0025.98/20/2017 14:0033.18/20/2017 14:0055.48/20/2017 13:000.0
8/12/2017 23:0026.58/12/2017 23:00987.88/12/2017 23:0078/12/2017 23:001188/20/2017 13:0018/12/2017 23:0094.18/12/2017 23:0025.68/20/2017 13:0032.78/20/2017 13:0055.48/20/2017 12:000.0
8/13/2017 0:0026.28/13/2017 0:00988.08/13/2017 0:0078/13/2017 0:001248/20/2017 12:001.20000004768378/13/2017 0:0093.58/13/2017 0:0025.18/20/2017 12:0032.58/20/2017 12:0055.48/20/2017 11:000.0
8/13/2017 1:0026.08/13/2017 1:00987.88/13/2017 1:0088/13/2017 1:001248/20/2017 11:001.39999997615818/13/2017 1:0094.28/13/2017 1:0025.18/20/2017 11:0031.68/20/2017 11:0055.48/20/2017 10:000.0
8/13/2017 2:0025.68/13/2017 2:00987.58/13/2017 2:0088/13/2017 2:001798/20/2017 10:000.899999976158148/13/2017 2:0095.48/13/2017 2:0024.98/20/2017 10:0030.88/20/2017 10:0055.48/20/2017 9:000.0
8/13/2017 3:0025.48/13/2017 3:00987.48/13/2017 3:0078/13/2017 3:001298/20/2017 9:001.10000002384198/13/2017 3:0095.78/13/2017 3:0024.78/20/2017 9:0029.48/20/2017 9:0055.48/20/2017 8:000.0
8/13/2017 4:0025.08/13/2017 4:00987.58/13/2017 4:0088/13/2017 4:001298/20/2017 8:000.899999976158148/13/2017 4:0096.28/13/2017 4:0024.48/20/2017 8:0028.28/20/2017 8:0055.48/20/2017 7:000.0
8/13/2017 5:0024.98/13/2017 5:00987.58/13/2017 5:0088/13/2017 5:002058/20/2017 7:000.899999976158148/13/2017 5:0096.58/13/2017 5:0024.48/20/2017 7:0027.38/20/2017 7:0055.48/20/2017 6:000.0
8/13/2017 6:0024.68/13/2017 6:00987.68/13/2017 6:00148/13/2017 6:001208/20/2017 6:001.10000002384198/13/2017 6:0097.08/13/2017 6:0024.28/20/2017 6:0027.38/20/2017 6:0055.48/20/2017 5:000.0
8/13/2017 7:0025.28/13/2017 7:00988.18/13/2017 7:00868/13/2017 7:00988/20/2017 5:000.899999976158148/13/2017 7:0095.98/13/2017 7:0024.68/20/2017 5:0027.28/20/2017 5:0055.48/20/2017 4:000.0
8/13/2017 8:0027.88/13/2017 8:00988.58/13/2017 8:002468/13/2017 8:001078/20/2017 4:000.600000023841868/13/2017 8:0085.58/13/2017 8:0025.28/20/2017 4:0027.28/20/2017 4:0055.48/20/2017 3:000.0
8/13/2017 9:0029.58/13/2017 9:00988.88/13/2017 9:003728/13/2017 9:002228/20/2017 3:000.58/13/2017 9:0079.98/13/2017 9:0025.78/20/2017 3:0027.28/20/2017 3:0055.48/20/2017 2:000.0
8/13/2017 10:0032.18/13/2017 10:00988.78/13/2017 10:006998/13/2017 10:001868/20/2017 2:000.600000023841868/13/2017 10:0068.68/13/2017 10:0025.78/20/2017 2:0027.28/20/2017 2:0055.38/20/2017 1:000.0
8/13/2017 11:0032.88/13/2017 11:00988.18/13/2017 11:007958/13/2017 11:002328/20/2017 1:0018/13/2017 11:0065.08/13/2017 11:0025.48/20/2017 1:0027.38/20/2017 1:0055.38/20/2017 0:000.0
8/13/2017 12:0032.18/13/2017 12:00987.78/13/2017 12:005628/13/2017 12:002928/20/2017 0:000.899999976158148/13/2017 12:0068.08/13/2017 12:0025.58/20/2017 0:0027.88/20/2017 0:0055.38/19/2017 23:000.0
8/13/2017 13:0034.28/13/2017 13:00986.98/13/2017 13:009248/13/2017 13:002348/19/2017 23:000.800000011920938/13/2017 13:0059.18/13/2017 13:0025.18/19/2017 23:0028.78/19/2017 23:0055.38/19/2017 22:000.0
8/13/2017 14:0034.28/13/2017 14:00986.18/13/2017 14:005348/13/2017 14:002178/19/2017 22:001.29999995231638/13/2017 14:0059.58/13/2017 14:0025.38/19/2017 22:0029.38/19/2017 22:0055.48/19/2017 21:000.0
8/13/2017 15:0034.48/13/2017 15:00985.28/13/2017 15:005848/13/2017 15:002558/19/2017 21:001.10000002384198/13/2017 15:0057.48/13/2017 15:0024.88/19/2017 21:0029.78/19/2017 21:0055.48/19/2017 20:000.0
8/13/2017 16:0035.28/13/2017 16:00984.48/13/2017 16:005088/13/2017 16:002618/19/2017 20:001.10000002384198/13/2017 16:0054.48/13/2017 16:0024.78/19/2017 20:0030.08/19/2017 20:0055.48/19/2017 19:000.0
8/13/2017 17:0035.38/13/2017 17:00984.38/13/2017 17:003698/13/2017 17:002608/19/2017 19:001.58/13/2017 17:0053.58/13/2017 17:0024.58/19/2017 19:0030.38/19/2017 19:0055.48/19/2017 18:000.0
8/13/2017 18:0034.78/13/2017 18:00984.38/13/2017 18:001258/13/2017 18:002658/19/2017 18:001.20000004768378/13/2017 18:0057.98/13/2017 18:0025.38/19/2017 18:0030.78/19/2017 18:0055.48/19/2017 17:000.0
8/13/2017 19:0030.58/13/2017 19:00985.28/13/2017 19:0098/13/2017 19:003598/19/2017 17:002.29999995231638/13/2017 19:0079.58/13/2017 19:0026.68/19/2017 17:0030.68/19/2017 17:0055.48/19/2017 16:000.0
8/13/2017 20:0028.48/13/2017 20:00986.28/13/2017 20:0078/13/2017 20:00848/19/2017 16:003.70000004768378/13/2017 20:0089.88/13/2017 20:0026.68/19/2017 16:0031.88/19/2017 16:0055.48/19/2017 15:000.0
8/13/2017 21:0027.68/13/2017 21:00986.88/13/2017 21:0078/13/2017 21:00988/19/2017 15:003.59999990463268/13/2017 21:0091.78/13/2017 21:0026.28/19/2017 15:0032.58/19/2017 15:0055.48/19/2017 14:000.0
8/13/2017 22:0027.18/13/2017 22:00987.88/13/2017 22:0078/13/2017 22:001128/19/2017 14:002.29999995231638/13/2017 22:0091.08/13/2017 22:0025.68/19/2017 14:0032.48/19/2017 14:0055.48/19/2017 13:000.0
8/13/2017 23:0026.78/13/2017 23:00988.18/13/2017 23:0078/13/2017 23:001148/19/2017 13:001.79999995231638/13/2017 23:0092.18/13/2017 23:0025.48/19/2017 13:0032.08/19/2017 13:0055.48/19/2017 12:000.0
8/14/2017 0:0026.38/14/2017 0:00988.38/14/2017 0:0088/14/2017 0:001508/19/2017 12:001.58/14/2017 0:0092.88/14/2017 0:0025.18/19/2017 12:0031.58/19/2017 12:0055.48/19/2017 11:000.0
8/14/2017 1:0026.18/14/2017 1:00988.08/14/2017 1:0088/14/2017 1:001208/19/2017 11:001.10000002384198/14/2017 1:0093.48/14/2017 1:0025.08/19/2017 11:0030.68/19/2017 11:0055.48/19/2017 10:000.0
8/14/2017 2:0026.08/14/2017 2:00987.68/14/2017 2:0088/14/2017 2:001388/19/2017 10:001.58/14/2017 2:0093.78/14/2017 2:0025.08/19/2017 10:0029.68/19/2017 10:0055.48/19/2017 9:000.0
8/14/2017 3:0025.88/14/2017 3:00987.68/14/2017 3:0088/14/2017 3:001118/19/2017 9:0018/14/2017 3:0094.68/14/2017 3:0024.98/19/2017 9:0028.78/19/2017 9:0055.48/19/2017 8:000.0
8/14/2017 4:0025.78/14/2017 4:00987.88/14/2017 4:0088/14/2017 4:001088/19/2017 8:000.800000011920938/14/2017 4:0093.48/14/2017 4:0024.68/19/2017 8:0027.78/19/2017 8:0055.48/19/2017 7:000.0
8/14/2017 5:0025.38/14/2017 5:00988.08/14/2017 5:0088/14/2017 5:001388/19/2017 7:000.600000023841868/14/2017 5:0085.88/14/2017 5:0022.88/19/2017 7:0026.58/19/2017 7:0055.48/19/2017 6:000.0
8/14/2017 6:0024.88/14/2017 6:00988.28/14/2017 6:00138/14/2017 6:001258/19/2017 6:000.58/14/2017 6:0088.18/14/2017 6:0022.88/19/2017 6:0026.58/19/2017 6:0055.38/19/2017 5:000.0
8/14/2017 7:0024.78/14/2017 7:00988.78/14/2017 7:00608/14/2017 7:001328/19/2017 5:000.58/14/2017 7:0087.08/14/2017 7:0022.58/19/2017 5:0026.78/19/2017 5:0055.38/19/2017 4:000.0
8/14/2017 8:0026.38/14/2017 8:00988.68/14/2017 8:002188/14/2017 8:00978/19/2017 4:000.600000023841868/14/2017 8:0084.18/14/2017 8:0023.58/19/2017 4:0026.88/19/2017 4:0055.38/19/2017 3:000.0
8/14/2017 9:0029.68/14/2017 9:00988.38/14/2017 9:005098/14/2017 9:00688/19/2017 3:000.600000023841868/14/2017 9:0075.68/14/2017 9:0024.98/19/2017 3:0027.08/19/2017 3:0055.38/19/2017 2:000.0
8/14/2017 10:0031.38/14/2017 10:00988.28/14/2017 10:005798/14/2017 10:002598/19/2017 2:0018/14/2017 10:0071.88/14/2017 10:0025.78/19/2017 2:0027.98/19/2017 2:0055.38/19/2017 1:000.0
8/14/2017 11:0032.08/14/2017 11:00988.08/14/2017 11:005978/14/2017 11:002628/19/2017 1:001.58/14/2017 11:0069.08/14/2017 11:0025.78/19/2017 1:0028.88/19/2017 1:0055.38/19/2017 0:000.0
8/14/2017 12:0033.28/14/2017 12:00987.18/14/2017 12:008148/14/2017 12:002778/19/2017 0:001.39999997615818/14/2017 12:0063.28/14/2017 12:0025.38/19/2017 0:0028.58/19/2017 0:0055.38/18/2017 23:000.0
8/14/2017 13:0034.08/14/2017 13:00986.48/14/2017 13:009028/14/2017 13:002598/18/2017 23:001.20000004768378/14/2017 13:0060.28/14/2017 13:0025.38/18/2017 23:0028.78/18/2017 23:0055.38/18/2017 22:000.0
8/14/2017 14:0034.88/14/2017 14:00985.78/14/2017 14:008438/14/2017 14:002478/18/2017 22:000.899999976158148/14/2017 14:0056.68/14/2017 14:0025.08/18/2017 22:0028.98/18/2017 22:0055.38/18/2017 21:000.0
8/14/2017 15:0034.58/14/2017 15:00984.98/14/2017 15:006008/14/2017 15:002628/18/2017 21:001.70000004768378/14/2017 15:0057.08/14/2017 15:0024.88/18/2017 21:0029.28/18/2017 21:0055.38/18/2017 20:000.0
8/14/2017 16:0034.08/14/2017 16:00984.48/14/2017 16:003618/14/2017 16:002208/18/2017 20:0028/14/2017 16:0060.38/14/2017 16:0025.38/18/2017 20:0029.68/18/2017 20:0055.38/18/2017 19:000.0
8/14/2017 17:0034.58/14/2017 17:00984.28/14/2017 17:003748/14/2017 17:001878/18/2017 19:001.79999995231638/14/2017 17:0059.08/14/2017 17:0025.48/18/2017 19:0030.38/18/2017 19:0055.38/18/2017 18:000.0
8/14/2017 18:0032.78/14/2017 18:00984.78/14/2017 18:001108/14/2017 18:001988/18/2017 18:002.20000004768378/14/2017 18:0065.98/14/2017 18:0025.68/18/2017 18:0031.08/18/2017 18:0055.48/18/2017 17:000.0
8/14/2017 19:0030.38/14/2017 19:00985.48/14/2017 19:00128/14/2017 19:001418/18/2017 17:001.58/14/2017 19:0078.18/14/2017 19:0026.18/18/2017 17:0030.68/18/2017 17:0055.48/18/2017 16:000.0
8/14/2017 20:0028.78/14/2017 20:00986.18/14/2017 20:0078/14/2017 20:002978/18/2017 16:001.20000004768378/14/2017 20:0086.48/14/2017 20:0026.38/18/2017 16:0029.98/18/2017 16:0055.48/18/2017 15:000.0
8/14/2017 21:0027.88/14/2017 21:00987.18/14/2017 21:0078/14/2017 21:002538/18/2017 15:002.59999990463268/14/2017 21:0091.18/14/2017 21:0026.38/18/2017 15:0029.68/18/2017 15:0055.48/18/2017 14:000.0
8/14/2017 22:0027.48/14/2017 22:00987.78/14/2017 22:0078/14/2017 22:001388/18/2017 14:002.40000009536748/14/2017 22:0091.18/14/2017 22:0025.98/18/2017 14:0033.28/18/2017 14:0055.48/18/2017 13:000.0
8/14/2017 23:0026.98/14/2017 23:00988.18/14/2017 23:0078/14/2017 23:002088/18/2017 13:002.29999995231638/14/2017 23:0093.68/14/2017 23:0025.98/18/2017 13:0033.18/18/2017 13:0055.48/18/2017 12:000.0
8/15/2017 0:0026.58/15/2017 0:00988.38/15/2017 0:0088/15/2017 0:001308/18/2017 12:001.29999995231638/15/2017 0:0094.68/15/2017 0:0025.68/18/2017 12:0032.88/18/2017 12:0055.38/18/2017 11:000.0
8/15/2017 1:0026.28/15/2017 1:00987.38/15/2017 1:0078/15/2017 1:00868/18/2017 11:001.20000004768378/15/2017 1:0095.18/15/2017 1:0025.48/18/2017 11:0032.28/18/2017 11:0055.38/18/2017 10:000.0
8/15/2017 2:0026.08/15/2017 2:00986.78/15/2017 2:0078/15/2017 2:001418/18/2017 10:001.39999997615818/15/2017 2:0094.48/15/2017 2:0025.18/18/2017 10:0031.28/18/2017 10:0055.48/18/2017 9:000.0
8/15/2017 3:0025.68/15/2017 3:00986.68/15/2017 3:0078/15/2017 3:001398/18/2017 9:001.10000002384198/15/2017 3:0095.18/15/2017 3:0024.88/18/2017 9:0029.88/18/2017 9:0055.48/18/2017 8:000.0
8/15/2017 4:0025.38/15/2017 4:00986.48/15/2017 4:0088/15/2017 4:001298/18/2017 8:000.800000011920938/15/2017 4:0095.68/15/2017 4:0024.68/18/2017 8:0027.38/18/2017 8:0055.48/18/2017 7:000.0
8/15/2017 5:0025.38/15/2017 5:00986.38/15/2017 5:0078/15/2017 5:001248/18/2017 7:000.800000011920938/15/2017 5:0094.88/15/2017 5:0024.58/18/2017 7:0025.98/18/2017 7:0055.48/18/2017 6:000.0
8/15/2017 6:0025.28/15/2017 6:00987.28/15/2017 6:00108/15/2017 6:002568/18/2017 6:000.58/15/2017 6:0095.78/15/2017 6:0024.58/18/2017 6:0025.78/18/2017 6:0055.48/18/2017 5:000.0
8/15/2017 7:0025.88/15/2017 7:00987.98/15/2017 7:00818/15/2017 7:001398/18/2017 5:000.699999988079078/15/2017 7:0093.68/15/2017 7:0024.88/18/2017 5:0025.98/18/2017 5:0055.48/18/2017 4:000.0
8/15/2017 8:0026.88/15/2017 8:00988.18/15/2017 8:001058/15/2017 8:002118/18/2017 4:000.400000005960468/15/2017 8:0089.08/15/2017 8:0024.98/18/2017 4:0026.38/18/2017 4:0055.48/18/2017 3:000.0
8/15/2017 9:0028.78/15/2017 9:00988.28/15/2017 9:003508/15/2017 9:001328/18/2017 3:000.58/15/2017 9:0081.68/15/2017 9:0025.38/18/2017 3:0026.68/18/2017 3:0055.48/18/2017 2:000.0
8/15/2017 10:0029.78/15/2017 10:00987.78/15/2017 10:003808/15/2017 10:00368/18/2017 2:000.58/15/2017 10:0077.58/15/2017 10:0025.48/18/2017 2:0027.18/18/2017 2:0055.38/18/2017 1:000.0
8/15/2017 11:0030.98/15/2017 11:00987.18/15/2017 11:004318/15/2017 11:001658/18/2017 1:000.600000023841868/15/2017 11:0072.68/15/2017 11:0025.58/18/2017 1:0027.48/18/2017 1:0055.38/18/2017 0:000.0
8/15/2017 12:0031.28/15/2017 12:00986.68/15/2017 12:004848/15/2017 12:001748/18/2017 0:000.800000011920938/15/2017 12:0070.98/15/2017 12:0025.48/18/2017 0:0027.98/18/2017 0:0055.48/17/2017 23:000.0
8/15/2017 13:0030.88/15/2017 13:00986.28/15/2017 13:003368/15/2017 13:002468/17/2017 23:001.20000004768378/15/2017 13:0073.38/15/2017 13:0025.58/17/2017 23:0028.68/17/2017 23:0055.48/17/2017 22:000.0
8/15/2017 14:0030.48/15/2017 14:00985.48/15/2017 14:004208/15/2017 14:002788/17/2017 22:000.899999976158148/15/2017 14:0076.38/15/2017 14:0025.88/17/2017 22:0028.68/17/2017 22:0055.48/17/2017 21:000.0
8/15/2017 15:0031.58/15/2017 15:00984.38/15/2017 15:003908/15/2017 15:002298/17/2017 21:000.58/15/2017 15:0071.28/15/2017 15:0025.78/17/2017 21:0028.78/17/2017 21:0055.48/17/2017 20:000.0
8/15/2017 16:0029.98/15/2017 16:00983.48/15/2017 16:002078/15/2017 16:002848/17/2017 20:000.600000023841868/15/2017 16:0075.98/15/2017 16:0025.38/17/2017 20:0028.88/17/2017 20:0055.48/17/2017 19:000.0
8/15/2017 17:0028.88/15/2017 17:00983.58/15/2017 17:001758/15/2017 17:002898/17/2017 19:001.58/15/2017 17:0076.08/15/2017 17:0024.28/17/2017 19:0030.18/17/2017 19:0055.48/17/2017 18:000.0
8/15/2017 18:0028.48/15/2017 18:00983.98/15/2017 18:00928/15/2017 18:002728/17/2017 18:001.58/15/2017 18:0080.68/15/2017 18:0024.88/17/2017 18:0031.38/17/2017 18:0055.48/17/2017 17:000.0
8/15/2017 19:0027.28/15/2017 19:00984.68/15/2017 19:00118/15/2017 19:002978/17/2017 17:002.70000004768378/15/2017 19:0085.38/15/2017 19:0024.68/17/2017 17:0031.88/17/2017 17:0055.48/17/2017 16:000.0
8/15/2017 20:0026.38/15/2017 20:00985.58/15/2017 20:0078/15/2017 20:002878/17/2017 16:001.89999997615818/15/2017 20:0092.38/15/2017 20:0025.08/17/2017 16:0033.18/17/2017 16:0055.48/17/2017 15:000.0
8/15/2017 21:0025.98/15/2017 21:00986.48/15/2017 21:0078/15/2017 21:001088/17/2017 15:001.29999995231638/15/2017 21:0094.88/15/2017 21:0025.18/17/2017 15:0033.48/17/2017 15:0055.48/17/2017 14:000.0
8/15/2017 22:0025.98/15/2017 22:00987.38/15/2017 22:0078/15/2017 22:001358/17/2017 14:001.29999995231638/15/2017 22:0086.88/15/2017 22:0023.68/17/2017 14:0033.18/17/2017 14:0055.48/17/2017 13:000.0
8/15/2017 23:0024.78/15/2017 23:00987.68/15/2017 23:0078/15/2017 23:001338/17/2017 13:001.60000002384198/15/2017 23:0092.28/15/2017 23:0023.48/17/2017 13:0032.38/17/2017 13:0055.48/17/2017 12:000.0
8/16/2017 0:0024.48/16/2017 0:00987.58/16/2017 0:0088/16/2017 0:001218/17/2017 12:002.70000004768378/16/2017 0:0094.38/16/2017 0:0023.58/17/2017 12:0031.48/17/2017 12:0055.48/17/2017 11:000.0
8/16/2017 1:0024.18/16/2017 1:00986.48/16/2017 1:0088/16/2017 1:001808/17/2017 11:002.20000004768378/16/2017 1:0095.88/16/2017 1:0023.58/17/2017 11:0030.28/17/2017 11:0055.48/17/2017 10:000.0
8/16/2017 2:0023.88/16/2017 2:00985.98/16/2017 2:0088/16/2017 2:001508/17/2017 10:001.70000004768378/16/2017 2:0096.18/16/2017 2:0023.28/17/2017 10:0028.98/17/2017 10:0055.48/17/2017 9:000.0
8/16/2017 3:0023.58/16/2017 3:00985.98/16/2017 3:0088/16/2017 3:001368/17/2017 9:001.10000002384198/16/2017 3:0096.38/16/2017 3:0023.08/17/2017 9:0028.28/17/2017 9:0055.48/17/2017 8:000.0
8/16/2017 4:0023.58/16/2017 4:00986.48/16/2017 4:0088/16/2017 4:00778/17/2017 8:000.600000023841868/16/2017 4:0095.78/16/2017 4:0022.98/17/2017 8:0027.38/17/2017 8:0055.48/17/2017 7:000.0
8/16/2017 5:0023.68/16/2017 5:00986.28/16/2017 5:0078/16/2017 5:00778/17/2017 7:000.800000011920938/16/2017 5:0094.58/16/2017 5:0022.78/17/2017 7:0026.68/17/2017 7:0055.48/17/2017 6:000.0
8/16/2017 6:0023.68/16/2017 6:00986.68/16/2017 6:0098/16/2017 6:00888/17/2017 6:000.699999988079078/16/2017 6:0094.18/16/2017 6:0022.78/17/2017 6:0026.58/17/2017 6:0055.48/17/2017 5:000.0
8/16/2017 7:0023.68/16/2017 7:00987.38/16/2017 7:00308/16/2017 7:00838/17/2017 5:000.58/16/2017 7:0094.98/16/2017 7:0022.88/17/2017 5:0026.58/17/2017 5:0055.48/17/2017 4:000.0
8/16/2017 8:0023.98/16/2017 8:00987.78/16/2017 8:00518/16/2017 8:00898/17/2017 4:000.400000005960468/16/2017 8:0094.08/16/2017 8:0023.08/17/2017 4:0026.68/17/2017 4:0055.48/17/2017 3:000.0
8/16/2017 9:0025.38/16/2017 9:00987.88/16/2017 9:002198/16/2017 9:003388/17/2017 3:000.600000023841868/16/2017 9:0087.78/16/2017 9:0023.28/17/2017 3:0026.88/17/2017 3:0055.48/17/2017 2:000.0
8/16/2017 10:0027.38/16/2017 10:00987.78/16/2017 10:003738/16/2017 10:001758/17/2017 2:000.800000011920938/16/2017 10:0077.48/16/2017 10:0023.18/17/2017 2:0026.88/17/2017 2:0055.48/17/2017 1:000.0
8/16/2017 11:0027.68/16/2017 11:00987.58/16/2017 11:002768/16/2017 11:002658/17/2017 1:000.600000023841868/16/2017 11:0076.78/16/2017 11:0023.28/17/2017 1:0027.28/17/2017 1:0055.48/17/2017 0:000.0
8/16/2017 12:0027.78/16/2017 12:00987.08/16/2017 12:003958/16/2017 12:002978/17/2017 0:000.600000023841868/16/2017 12:0077.98/16/2017 12:0023.68/17/2017 0:0027.58/17/2017 0:0055.48/16/2017 23:000.0
8/16/2017 13:0028.28/16/2017 13:00985.98/16/2017 13:004308/16/2017 13:003168/16/2017 23:000.600000023841868/16/2017 13:0075.78/16/2017 13:0023.68/16/2017 23:0027.98/16/2017 23:0055.48/16/2017 22:000.0
8/16/2017 14:0028.88/16/2017 14:00985.28/16/2017 14:003788/16/2017 14:003168/16/2017 22:000.800000011920938/16/2017 14:0073.28/16/2017 14:0023.68/16/2017 22:0028.38/16/2017 22:0055.48/16/2017 21:000.0
8/16/2017 15:0028.78/16/2017 15:00984.48/16/2017 15:003718/16/2017 15:001208/16/2017 21:000.800000011920938/16/2017 15:0074.08/16/2017 15:0023.78/16/2017 21:0028.68/16/2017 21:0055.48/16/2017 20:000.0
8/16/2017 16:0029.98/16/2017 16:00983.48/16/2017 16:004798/16/2017 16:001358/16/2017 20:000.699999988079078/16/2017 16:0068.58/16/2017 16:0023.58/16/2017 20:0029.28/16/2017 20:0055.48/16/2017 19:000.0
8/16/2017 17:0031.08/16/2017 17:00983.18/16/2017 17:003728/16/2017 17:001508/16/2017 19:000.600000023841868/16/2017 17:0065.38/16/2017 17:0023.88/16/2017 19:0030.38/16/2017 19:0055.48/16/2017 18:000.0
8/16/2017 18:0029.08/16/2017 18:00983.38/16/2017 18:00858/16/2017 18:001278/16/2017 18:0018/16/2017 18:0073.88/16/2017 18:0023.98/16/2017 18:0031.18/16/2017 18:0055.48/16/2017 17:000.0
8/16/2017 19:0027.78/16/2017 19:00984.08/16/2017 19:00128/16/2017 19:001198/16/2017 17:001.10000002384198/16/2017 19:0083.18/16/2017 19:0024.68/16/2017 17:0031.48/16/2017 17:0055.48/16/2017 16:000.0
8/16/2017 20:0026.28/16/2017 20:00985.18/16/2017 20:0078/16/2017 20:00448/16/2017 16:001.29999995231638/16/2017 20:0091.98/16/2017 20:0024.98/16/2017 16:0030.88/16/2017 16:0055.48/16/2017 15:000.0
8/16/2017 21:0025.68/16/2017 21:00986.18/16/2017 21:0078/16/2017 21:001148/16/2017 15:001.58/16/2017 21:0094.18/16/2017 21:0024.78/16/2017 15:0030.48/16/2017 15:0055.48/16/2017 14:000.0
8/16/2017 22:0025.38/16/2017 22:00986.88/16/2017 22:0088/16/2017 22:00988/16/2017 14:0018/16/2017 22:0094.08/16/2017 22:0024.38/16/2017 14:0030.18/16/2017 14:0055.48/16/2017 13:000.0
8/16/2017 23:0025.08/16/2017 23:00986.98/16/2017 23:0078/16/2017 23:001058/16/2017 13:001.29999995231638/16/2017 23:0094.68/16/2017 23:0024.18/16/2017 13:0029.68/16/2017 13:0055.48/16/2017 12:000.0
8/17/2017 0:0024.58/17/2017 0:00986.78/17/2017 0:0078/17/2017 0:001108/16/2017 12:001.10000002384198/17/2017 0:0096.18/17/2017 0:0023.98/16/2017 12:0029.18/16/2017 12:0055.48/16/2017 11:000.0
8/17/2017 1:0024.28/17/2017 1:00986.48/17/2017 1:0078/17/2017 1:001328/16/2017 11:000.899999976158148/17/2017 1:0096.48/17/2017 1:0023.78/16/2017 11:0028.98/16/2017 11:0055.48/16/2017 10:000.0
8/17/2017 2:0024.08/17/2017 2:00985.88/17/2017 2:0088/17/2017 2:001298/16/2017 10:001.20000004768378/17/2017 2:0096.58/17/2017 2:0023.58/16/2017 10:0028.68/16/2017 10:0055.48/16/2017 9:000.0
8/17/2017 3:0024.08/17/2017 3:00985.38/17/2017 3:0088/17/2017 3:001348/16/2017 9:000.800000011920938/17/2017 3:0096.68/17/2017 3:0023.58/16/2017 9:0027.48/16/2017 9:0055.38/16/2017 8:000.0
8/17/2017 4:0023.88/17/2017 4:00985.08/17/2017 4:0088/17/2017 4:001078/16/2017 8:0018/17/2017 4:0096.98/17/2017 4:0023.48/16/2017 8:0026.68/16/2017 8:0055.38/16/2017 7:000.0
8/17/2017 5:0023.68/17/2017 5:00985.38/17/2017 5:0098/17/2017 5:001598/16/2017 7:0018/17/2017 5:0097.48/17/2017 5:0023.28/16/2017 7:0026.38/16/2017 7:0055.38/16/2017 6:000.0
8/17/2017 6:0023.68/17/2017 6:00986.08/17/2017 6:00108/17/2017 6:001378/16/2017 6:000.699999988079078/17/2017 6:0097.58/17/2017 6:0023.38/16/2017 6:0026.38/16/2017 6:0055.38/16/2017 5:000.0
8/17/2017 7:0024.08/17/2017 7:00986.58/17/2017 7:00608/17/2017 7:001318/16/2017 5:000.699999988079078/17/2017 7:0096.68/17/2017 7:0023.58/16/2017 5:0026.48/16/2017 5:0055.38/16/2017 4:000.0
8/17/2017 8:0025.28/17/2017 8:00987.38/17/2017 8:001488/17/2017 8:001518/16/2017 4:001.10000002384198/17/2017 8:0091.88/17/2017 8:0023.88/16/2017 4:0026.38/16/2017 4:0055.38/16/2017 3:000.0
8/17/2017 9:0026.38/17/2017 9:00988.18/17/2017 9:003128/17/2017 9:002638/16/2017 3:001.10000002384198/17/2017 9:0087.88/17/2017 9:0024.28/16/2017 3:0026.38/16/2017 3:0055.38/16/2017 2:000.0
8/17/2017 10:0027.28/17/2017 10:00987.98/17/2017 10:005878/17/2017 10:002838/16/2017 2:000.800000011920938/17/2017 10:0083.28/17/2017 10:0024.28/16/2017 2:0026.68/16/2017 2:0055.38/16/2017 1:000.0
8/17/2017 11:0028.98/17/2017 11:00987.38/17/2017 11:008798/17/2017 11:002968/16/2017 1:000.600000023841868/17/2017 11:0073.58/17/2017 11:0023.88/16/2017 1:0026.98/16/2017 1:0055.38/16/2017 0:000.0
8/17/2017 12:0030.08/17/2017 12:00986.68/17/2017 12:009398/17/2017 12:002958/16/2017 0:000.800000011920938/17/2017 12:0069.88/17/2017 12:0024.08/16/2017 0:0027.38/16/2017 0:0055.38/15/2017 23:000.0
8/17/2017 13:0031.48/17/2017 13:00985.68/17/2017 13:009638/17/2017 13:002918/15/2017 23:001.10000002384198/17/2017 13:0062.38/17/2017 13:0023.48/15/2017 23:0027.58/15/2017 23:0055.38/15/2017 22:000.0
8/17/2017 14:0032.68/17/2017 14:00984.58/17/2017 14:007198/17/2017 14:002848/15/2017 22:001.60000002384198/17/2017 14:0057.18/17/2017 14:0023.18/15/2017 22:0028.88/15/2017 22:0055.38/15/2017 21:000.0
8/17/2017 15:0032.98/17/2017 15:00983.38/17/2017 15:006978/17/2017 15:002678/15/2017 21:000.58/17/2017 15:0058.58/17/2017 15:0023.88/15/2017 21:0029.18/15/2017 21:0055.38/15/2017 20:000.0
8/17/2017 16:0032.08/17/2017 16:00982.68/17/2017 16:003668/17/2017 16:001068/15/2017 20:000.58/17/2017 16:0061.18/17/2017 16:0023.68/15/2017 20:0029.48/15/2017 20:0055.38/15/2017 19:000.0
8/17/2017 17:0029.68/17/2017 17:00983.18/17/2017 17:001608/17/2017 17:00858/15/2017 19:0018/17/2017 17:0068.08/17/2017 17:0023.18/15/2017 19:0030.18/15/2017 19:0055.38/15/2017 18:000.0
8/17/2017 18:0028.98/17/2017 18:00983.98/17/2017 18:00838/17/2017 18:00618/15/2017 18:001.29999995231638/17/2017 18:0073.88/17/2017 18:0023.88/15/2017 18:0030.98/15/2017 18:0055.38/15/2017 17:000.0
8/17/2017 19:0027.58/17/2017 19:00985.08/17/2017 19:0068/17/2017 19:001328/15/2017 17:001.79999995231638/17/2017 19:0080.38/17/2017 19:0023.98/15/2017 17:0031.18/15/2017 17:0055.38/15/2017 16:000.0
8/17/2017 20:0026.08/17/2017 20:00985.58/17/2017 20:0078/17/2017 20:001798/15/2017 16:001.79999995231638/17/2017 20:0087.98/17/2017 20:0023.98/15/2017 16:0032.08/15/2017 16:0055.48/15/2017 15:000.0
8/17/2017 21:0025.78/17/2017 21:00986.38/17/2017 21:0078/17/2017 21:002268/15/2017 15:001.29999995231638/17/2017 21:0091.68/17/2017 21:0024.38/15/2017 15:0032.98/15/2017 15:0055.38/15/2017 14:000.0
8/17/2017 22:0025.58/17/2017 22:00987.48/17/2017 22:0078/17/2017 22:002698/15/2017 14:001.70000004768378/17/2017 22:0092.78/17/2017 22:0024.38/15/2017 14:0032.38/15/2017 14:0055.48/15/2017 13:000.0
8/17/2017 23:0025.68/17/2017 23:00987.38/17/2017 23:0078/17/2017 23:003488/15/2017 13:001.39999997615818/17/2017 23:0089.48/17/2017 23:0023.88/15/2017 13:0032.38/15/2017 13:0055.48/15/2017 12:000.0
8/18/2017 0:0024.98/18/2017 0:00987.08/18/2017 0:0078/18/2017 0:002598/15/2017 12:002.09999990463268/18/2017 0:0093.38/18/2017 0:0023.88/15/2017 12:0032.58/15/2017 12:0055.48/15/2017 11:000.0
8/18/2017 1:0024.48/18/2017 1:00986.58/18/2017 1:0078/18/2017 1:002538/15/2017 11:001.60000002384198/18/2017 1:0094.68/18/2017 1:0023.68/15/2017 11:0032.38/15/2017 11:0055.48/15/2017 10:000.0
8/18/2017 2:0024.18/18/2017 2:00986.18/18/2017 2:0078/18/2017 2:002178/15/2017 10:000.899999976158148/18/2017 2:0095.48/18/2017 2:0023.48/15/2017 10:0031.38/15/2017 10:0055.48/15/2017 9:000.0
8/18/2017 3:0023.88/18/2017 3:00985.88/18/2017 3:0078/18/2017 3:001728/15/2017 9:000.699999988079078/18/2017 3:0096.18/18/2017 3:0023.28/15/2017 9:0030.28/15/2017 9:0055.48/15/2017 8:000.0
8/18/2017 4:0023.58/18/2017 4:00986.08/18/2017 4:0078/18/2017 4:002018/15/2017 8:000.400000005960468/18/2017 4:0096.68/18/2017 4:0023.08/15/2017 8:0029.28/15/2017 8:0055.48/15/2017 7:000.0
8/18/2017 5:0023.18/18/2017 5:00986.48/18/2017 5:0088/18/2017 5:001278/15/2017 7:000.699999988079078/18/2017 5:0096.98/18/2017 5:0022.78/15/2017 7:0028.68/15/2017 7:0055.38/15/2017 6:000.0
8/18/2017 6:0022.98/18/2017 6:00987.28/18/2017 6:00108/18/2017 6:001268/15/2017 6:000.600000023841868/18/2017 6:0097.28/18/2017 6:0022.58/15/2017 6:0028.18/15/2017 6:0055.38/15/2017 5:000.0
8/18/2017 7:0023.68/18/2017 7:00987.78/18/2017 7:00848/18/2017 7:001348/15/2017 5:000.58/18/2017 7:0095.38/18/2017 7:0022.98/15/2017 5:0028.38/15/2017 5:0055.38/15/2017 4:000.0
8/18/2017 8:0026.48/18/2017 8:00988.18/18/2017 8:003458/18/2017 8:00768/15/2017 4:000.600000023841868/18/2017 8:0084.28/18/2017 8:0023.68/15/2017 4:0028.38/15/2017 4:0055.38/15/2017 3:000.0
8/18/2017 9:0029.28/18/2017 9:00988.18/18/2017 9:006008/18/2017 9:002808/15/2017 3:000.58/18/2017 9:0073.58/18/2017 9:0024.18/15/2017 3:0028.78/15/2017 3:0055.38/15/2017 2:000.0
8/18/2017 10:0030.38/18/2017 10:00987.88/18/2017 10:006128/18/2017 10:002698/15/2017 2:000.699999988079078/18/2017 10:0069.48/18/2017 10:0024.18/15/2017 2:0029.18/15/2017 2:0055.38/15/2017 1:000.0
8/18/2017 11:0031.78/18/2017 11:00987.58/18/2017 11:007138/18/2017 11:00838/15/2017 1:0018/18/2017 11:0061.68/18/2017 11:0023.58/15/2017 1:0029.38/15/2017 1:0055.38/15/2017 0:000.0
8/18/2017 12:0032.08/18/2017 12:00987.28/18/2017 12:007138/18/2017 12:003368/15/2017 0:000.58/18/2017 12:0059.28/18/2017 12:0023.18/15/2017 0:0029.78/15/2017 0:0055.38/14/2017 23:000.0
8/18/2017 13:0031.98/18/2017 13:00986.48/18/2017 13:007648/18/2017 13:002988/14/2017 23:000.600000023841868/18/2017 13:0062.28/18/2017 13:0023.88/14/2017 23:0030.18/14/2017 23:0055.38/14/2017 22:000.0
8/18/2017 14:0031.38/18/2017 14:00985.58/18/2017 14:003788/18/2017 14:003498/14/2017 22:000.600000023841868/18/2017 14:0066.68/18/2017 14:0024.48/14/2017 22:0030.78/14/2017 22:0055.38/14/2017 21:000.0
8/18/2017 15:0027.28/18/2017 15:00985.68/18/2017 15:001478/18/2017 15:00358/14/2017 21:000.600000023841868/18/2017 15:0080.68/18/2017 15:0023.68/14/2017 21:0031.18/14/2017 21:0055.38/14/2017 20:000.0
8/18/2017 16:0027.48/18/2017 16:00985.98/18/2017 16:001288/18/2017 16:003028/14/2017 20:000.600000023841868/18/2017 16:0083.18/18/2017 16:0024.48/14/2017 20:0031.98/14/2017 20:0055.38/14/2017 19:000.0
8/18/2017 17:0028.48/18/2017 17:00985.28/18/2017 17:002118/18/2017 17:003388/14/2017 19:000.699999988079078/18/2017 17:0077.98/18/2017 17:0024.28/14/2017 19:0033.18/14/2017 19:0055.38/14/2017 18:000.0
8/18/2017 18:0028.78/18/2017 18:00985.68/18/2017 18:001058/18/2017 18:00448/14/2017 18:001.10000002384198/18/2017 18:0073.68/18/2017 18:0023.68/14/2017 18:0034.48/14/2017 18:0055.38/14/2017 17:000.0
8/18/2017 19:0027.78/18/2017 19:00986.68/18/2017 19:00128/18/2017 19:00578/14/2017 17:001.60000002384198/18/2017 19:0075.28/18/2017 19:0023.08/14/2017 17:0035.18/14/2017 17:0055.38/14/2017 16:000.0
8/18/2017 20:0027.08/18/2017 20:00987.38/18/2017 20:0078/18/2017 20:00458/14/2017 16:001.39999997615818/18/2017 20:0077.38/18/2017 20:0022.88/14/2017 16:0035.28/14/2017 16:0055.38/14/2017 15:000.0
8/18/2017 21:0026.58/18/2017 21:00988.08/18/2017 21:0078/18/2017 21:00278/14/2017 15:001.89999997615818/18/2017 21:0079.08/18/2017 21:0022.68/14/2017 15:0035.78/14/2017 15:0055.38/14/2017 14:000.0
8/18/2017 22:0026.08/18/2017 22:00988.48/18/2017 22:0078/18/2017 22:003378/14/2017 14:0028/18/2017 22:0082.28/18/2017 22:0022.88/14/2017 14:0035.68/14/2017 14:0055.38/14/2017 13:000.0
8/18/2017 23:0025.98/18/2017 23:00988.48/18/2017 23:0068/18/2017 23:00438/14/2017 13:001.79999995231638/18/2017 23:0082.28/18/2017 23:0022.78/14/2017 13:0035.18/14/2017 13:0055.38/14/2017 12:000.0
8/19/2017 0:0025.68/19/2017 0:00988.48/19/2017 0:0088/19/2017 0:00508/14/2017 12:001.79999995231638/19/2017 0:0083.88/19/2017 0:0022.78/14/2017 12:0034.48/14/2017 12:0055.38/14/2017 11:000.0
8/19/2017 1:0025.98/19/2017 1:00987.88/19/2017 1:0088/19/2017 1:00308/14/2017 11:001.10000002384198/19/2017 1:0081.88/19/2017 1:0022.68/14/2017 11:0033.28/14/2017 11:0055.38/14/2017 10:000.0
8/19/2017 2:0025.18/19/2017 2:00986.98/19/2017 2:0068/19/2017 2:003518/14/2017 10:0018/19/2017 2:0087.28/19/2017 2:0022.98/14/2017 10:0032.38/14/2017 10:0055.38/14/2017 9:000.0
8/19/2017 3:0024.28/19/2017 3:00986.58/19/2017 3:0078/19/2017 3:003038/14/2017 9:001.10000002384198/19/2017 3:0092.88/19/2017 3:0023.08/14/2017 9:0030.68/14/2017 9:0074.88/14/2017 8:000.0
8/19/2017 4:0023.98/19/2017 4:00986.78/19/2017 4:0088/19/2017 4:002878/14/2017 8:0018/19/2017 4:0094.58/19/2017 4:0023.08/14/2017 8:0028.38/14/2017 8:0079.28/14/2017 7:000.0
8/19/2017 5:0023.88/19/2017 5:00986.98/19/2017 5:0088/19/2017 5:002768/14/2017 7:001.29999995231638/19/2017 5:0095.18/19/2017 5:0023.08/14/2017 7:0027.28/14/2017 7:0059.48/14/2017 6:000.0
8/19/2017 6:0023.78/19/2017 6:00987.28/19/2017 6:00108/19/2017 6:002238/14/2017 6:001.29999995231638/19/2017 6:0096.08/19/2017 6:0023.18/14/2017 6:0027.58/14/2017 6:0055.38/14/2017 5:000.0
8/19/2017 7:0023.88/19/2017 7:00987.68/19/2017 7:00558/19/2017 7:002668/14/2017 5:001.60000002384198/19/2017 7:0095.78/19/2017 7:0023.18/14/2017 5:0028.08/14/2017 5:0055.68/14/2017 4:000.0
8/19/2017 8:0025.28/19/2017 8:00988.18/19/2017 8:001758/19/2017 8:002818/14/2017 4:001.39999997615818/19/2017 8:0091.08/19/2017 8:0023.78/14/2017 4:0028.88/14/2017 4:0071.68/14/2017 3:000.0
8/19/2017 9:0026.88/19/2017 9:00988.58/19/2017 9:002938/19/2017 9:003048/14/2017 3:000.699999988079078/19/2017 9:0083.58/19/2017 9:0023.88/14/2017 3:0028.88/14/2017 3:00100.08/14/2017 2:000.0
8/19/2017 10:0027.68/19/2017 10:00988.38/19/2017 10:003428/19/2017 10:002828/14/2017 2:000.800000011920938/19/2017 10:0082.18/19/2017 10:0024.38/14/2017 2:0029.18/14/2017 2:0093.48/14/2017 1:000.0
8/19/2017 11:0029.08/19/2017 11:00988.08/19/2017 11:004278/19/2017 11:003018/14/2017 1:000.800000011920938/19/2017 11:0075.98/19/2017 11:0024.48/14/2017 1:0029.28/14/2017 1:0091.28/14/2017 0:000.0
8/19/2017 12:0030.38/19/2017 12:00987.78/19/2017 12:005428/19/2017 12:00408/14/2017 0:000.600000023841868/19/2017 12:0067.28/19/2017 12:0023.68/14/2017 0:0029.38/14/2017 0:0094.18/13/2017 23:000.0
8/19/2017 13:0030.68/19/2017 13:00986.98/19/2017 13:004968/19/2017 13:00418/13/2017 23:000.800000011920938/19/2017 13:0066.58/19/2017 13:0023.78/13/2017 23:0029.88/13/2017 23:0099.98/13/2017 22:000.0
8/19/2017 14:0030.98/19/2017 14:00986.08/19/2017 14:006958/19/2017 14:00298/13/2017 22:000.899999976158148/19/2017 14:0067.58/19/2017 14:0024.38/13/2017 22:0030.28/13/2017 22:0099.58/13/2017 21:000.0
8/19/2017 15:0030.78/19/2017 15:00985.48/19/2017 15:005108/19/2017 15:00478/13/2017 21:000.58/19/2017 15:0065.98/19/2017 15:0023.78/13/2017 21:0030.98/13/2017 21:0099.58/13/2017 20:000.0
8/19/2017 16:0029.78/19/2017 16:00985.08/19/2017 16:002878/19/2017 16:00448/13/2017 20:000.600000023841868/19/2017 16:0068.28/19/2017 16:0023.38/13/2017 20:0031.68/13/2017 20:0099.08/13/2017 19:000.0
8/19/2017 17:0028.38/19/2017 17:00984.88/19/2017 17:001618/19/2017 17:00468/13/2017 19:000.600000023841868/19/2017 17:0074.08/19/2017 17:0023.38/13/2017 19:0033.18/13/2017 19:0098.68/13/2017 18:000.0
8/19/2017 18:0028.58/19/2017 18:00984.98/19/2017 18:00848/19/2017 18:00618/13/2017 18:000.899999976158148/19/2017 18:0072.18/19/2017 18:0023.18/13/2017 18:0035.58/13/2017 18:0092.98/13/2017 17:000.0
8/19/2017 19:0027.78/19/2017 19:00985.48/19/2017 19:00118/19/2017 19:00878/13/2017 17:001.39999997615818/19/2017 19:0074.78/19/2017 19:0022.98/13/2017 17:0036.08/13/2017 17:0099.48/13/2017 16:000.0
8/19/2017 20:0027.28/19/2017 20:00986.48/19/2017 20:0088/19/2017 20:003398/13/2017 16:001.58/19/2017 20:0077.68/19/2017 20:0023.08/13/2017 16:0036.08/13/2017 16:0098.48/13/2017 15:000.0
8/19/2017 21:0026.88/19/2017 21:00987.48/19/2017 21:0088/19/2017 21:003318/13/2017 15:001.70000004768378/19/2017 21:0079.08/19/2017 21:0022.98/13/2017 15:0035.68/13/2017 15:0097.48/13/2017 14:000.0
8/19/2017 22:0026.58/19/2017 22:00987.98/19/2017 22:0078/19/2017 22:00228/13/2017 14:001.39999997615818/19/2017 22:0080.28/19/2017 22:0022.98/13/2017 14:0035.18/13/2017 14:0096.98/13/2017 13:000.0
8/19/2017 23:0025.98/19/2017 23:00988.18/19/2017 23:0078/19/2017 23:00518/13/2017 13:001.89999997615818/19/2017 23:0083.68/19/2017 23:0023.08/13/2017 13:0035.28/13/2017 13:0096.48/13/2017 12:000.0
8/20/2017 0:0024.88/20/2017 0:00987.88/20/2017 0:0078/20/2017 0:001518/13/2017 12:0028/20/2017 0:0089.68/20/2017 0:0023.08/13/2017 12:0034.08/13/2017 12:0096.28/13/2017 11:000.0
8/20/2017 1:0024.38/20/2017 1:00986.98/20/2017 1:0088/20/2017 1:002718/13/2017 11:001.89999997615818/20/2017 1:0092.48/20/2017 1:0023.18/13/2017 11:0033.88/13/2017 11:0096.18/13/2017 10:000.0
8/20/2017 2:0024.48/20/2017 2:00986.78/20/2017 2:0098/20/2017 2:002678/13/2017 10:001.60000002384198/20/2017 2:0092.58/20/2017 2:0023.28/13/2017 10:0032.88/13/2017 10:0095.78/13/2017 9:000.0
8/20/2017 3:0024.48/20/2017 3:00986.38/20/2017 3:0098/20/2017 3:001898/13/2017 9:000.899999976158148/20/2017 3:0093.68/20/2017 3:0023.48/13/2017 9:0031.28/13/2017 9:0095.78/13/2017 8:000.0
8/20/2017 4:0024.48/20/2017 4:00986.68/20/2017 4:0088/20/2017 4:001418/13/2017 8:000.899999976158148/20/2017 4:0093.98/20/2017 4:0023.48/13/2017 8:0029.28/13/2017 8:0094.98/13/2017 7:000.0
8/20/2017 5:0024.38/20/2017 5:00987.38/20/2017 5:0088/20/2017 5:001348/13/2017 7:000.600000023841868/20/2017 5:0095.08/20/2017 5:0023.58/13/2017 7:0027.88/13/2017 7:0095.18/13/2017 6:000.0
8/20/2017 6:0024.48/20/2017 6:00987.48/20/2017 6:0098/20/2017 6:001248/13/2017 6:000.400000005960468/20/2017 6:0094.88/20/2017 6:0023.68/13/2017 6:0027.68/13/2017 6:0095.38/13/2017 5:000.0
8/20/2017 7:0024.48/20/2017 7:00988.08/20/2017 7:00348/20/2017 7:001238/13/2017 5:000.600000023841868/20/2017 7:0094.68/20/2017 7:0023.68/13/2017 5:0027.98/13/2017 5:0095.68/13/2017 4:000.0
8/20/2017 8:0026.08/20/2017 8:00988.08/20/2017 8:002248/20/2017 8:001088/13/2017 4:000.600000023841868/20/2017 8:0086.78/20/2017 8:0023.78/13/2017 4:0028.18/13/2017 4:0095.38/13/2017 3:000.0
8/20/2017 9:0028.68/20/2017 9:00987.98/20/2017 9:004838/20/2017 9:001188/13/2017 3:000.600000023841868/20/2017 9:0075.58/20/2017 9:0023.98/13/2017 3:0028.48/13/2017 3:0095.08/13/2017 2:000.0
8/20/2017 10:0030.28/20/2017 10:00987.68/20/2017 10:006808/20/2017 10:003338/13/2017 2:000.58/20/2017 10:0070.48/20/2017 10:0024.38/13/2017 2:0028.68/13/2017 2:0094.88/13/2017 1:000.0
8/20/2017 11:0030.78/20/2017 11:00987.18/20/2017 11:007598/20/2017 11:003298/13/2017 1:000.899999976158148/20/2017 11:0068.18/20/2017 11:0024.28/13/2017 1:0029.18/13/2017 1:0094.78/13/2017 0:000.0
8/20/2017 12:0032.18/20/2017 12:00986.48/20/2017 12:007068/20/2017 12:001758/13/2017 0:000.899999976158148/20/2017 12:0061.58/20/2017 12:0023.88/13/2017 0:0029.38/13/2017 0:0094.88/12/2017 23:000.0
8/20/2017 13:0031.98/20/2017 13:00985.78/20/2017 13:005468/20/2017 13:002438/12/2017 23:000.699999988079078/20/2017 13:0064.98/20/2017 13:0024.68/12/2017 23:0029.68/12/2017 23:0094.98/12/2017 22:000.0
8/20/2017 14:0032.68/20/2017 14:00985.08/20/2017 14:007548/20/2017 14:002778/12/2017 22:000.800000011920938/20/2017 14:0060.68/20/2017 14:0024.18/12/2017 22:0030.18/12/2017 22:0094.58/12/2017 21:000.0
8/20/2017 15:0033.68/20/2017 15:00983.88/20/2017 15:008238/20/2017 15:002928/12/2017 21:000.58/20/2017 15:0058.68/20/2017 15:0024.48/12/2017 21:0030.88/12/2017 21:0094.48/12/2017 20:000.0
8/20/2017 16:0032.78/20/2017 16:00983.28/20/2017 16:005718/20/2017 16:00798/12/2017 20:000.899999976158148/20/2017 16:0063.28/20/2017 16:0024.98/12/2017 20:0031.88/12/2017 20:0094.38/12/2017 19:000.0
8/20/2017 17:0029.88/20/2017 17:00983.18/20/2017 17:002898/20/2017 17:00688/12/2017 19:000.58/20/2017 17:0075.98/20/2017 17:0025.28/12/2017 19:0033.48/12/2017 19:0094.68/12/2017 18:000.0
8/20/2017 18:0028.78/20/2017 18:00983.58/20/2017 18:00848/20/2017 18:001088/12/2017 18:0018/20/2017 18:0077.48/20/2017 18:0024.48/12/2017 18:0034.48/12/2017 18:0094.88/12/2017 17:000.0
8/20/2017 19:0027.58/20/2017 19:00984.08/20/2017 19:00128/20/2017 19:001058/12/2017 17:001.20000004768378/20/2017 19:0082.08/20/2017 19:0024.28/12/2017 17:0034.28/12/2017 17:0093.88/12/2017 16:000.0
8/20/2017 20:0027.28/20/2017 20:00984.68/20/2017 20:0078/20/2017 20:00908/12/2017 16:001.20000004768378/20/2017 20:0083.38/20/2017 20:0024.28/12/2017 16:0034.88/12/2017 16:0093.58/12/2017 15:000.0
8/20/2017 21:0026.78/20/2017 21:00985.58/20/2017 21:0078/20/2017 21:001048/12/2017 15:001.60000002384198/20/2017 21:0085.98/20/2017 21:0024.28/12/2017 15:0035.28/12/2017 15:0093.18/12/2017 14:000.0
8/20/2017 22:0026.08/20/2017 22:00986.48/20/2017 22:0078/20/2017 22:001758/12/2017 14:0028/20/2017 22:0090.28/20/2017 22:0024.38/12/2017 14:0034.88/12/2017 14:0092.18/12/2017 13:000.0
8/20/2017 23:0025.38/20/2017 23:00987.08/20/2017 23:0078/20/2017 23:002368/12/2017 13:002.29999995231638/20/2017 23:0093.68/20/2017 23:0024.38/12/2017 13:0034.58/12/2017 13:0091.98/12/2017 12:000.0
8/21/2017 0:0025.38/21/2017 0:00987.18/21/2017 0:0088/21/2017 0:00838/12/2017 12:0028/21/2017 0:0094.38/21/2017 0:0024.48/12/2017 12:0034.58/12/2017 12:0091.58/12/2017 11:000.0
8/21/2017 1:0024.88/21/2017 1:00986.78/21/2017 1:0078/21/2017 1:003188/12/2017 11:0028/21/2017 1:0095.18/21/2017 1:0024.08/12/2017 11:0033.68/12/2017 11:0091.68/12/2017 10:000.0
8/21/2017 2:0024.88/21/2017 2:00986.58/21/2017 2:0088/21/2017 2:001368/12/2017 10:001.58/21/2017 2:0096.18/21/2017 2:0024.28/12/2017 10:0032.68/12/2017 10:0091.38/12/2017 9:000.0
8/21/2017 3:0024.78/21/2017 3:00986.28/21/2017 3:0078/21/2017 3:001318/12/2017 9:000.899999976158148/21/2017 3:0095.28/21/2017 3:0024.08/12/2017 9:0031.08/12/2017 9:0090.48/12/2017 8:000.0
8/21/2017 4:0024.38/21/2017 4:00985.98/21/2017 4:0088/21/2017 4:00628/12/2017 8:000.600000023841868/21/2017 4:0096.18/21/2017 4:0023.78/12/2017 8:0029.38/12/2017 8:0090.48/12/2017 7:000.0
10/17/2017 16:0023.910/17/2017 16:00987.810/17/2017 16:0017210/17/2017 16:00438/12/2017 7:000.6999999880790710/17/2017 16:0068.510/17/2017 16:0017.88/12/2017 7:0028.58/12/2017 7:0090.68/12/2017 6:000.0
10/17/2017 17:0023.310/17/2017 17:00988.210/17/2017 17:008210/17/2017 17:00458/12/2017 6:000.8999999761581410/17/2017 17:0070.510/17/2017 17:0017.78/12/2017 6:0028.38/12/2017 6:0094.08/12/2017 5:000.0
10/17/2017 18:0022.810/17/2017 18:00988.510/17/2017 18:001810/17/2017 18:00488/12/2017 5:000.6999999880790710/17/2017 18:0071.510/17/2017 18:0017.48/12/2017 5:0028.08/12/2017 5:0097.07/20/2017 13:000.0
10/17/2017 19:0022.710/17/2017 19:00988.910/17/2017 19:00710/17/2017 19:00577/20/2017 13:001.600000023841910/17/2017 19:0072.110/17/2017 19:0017.57/20/2017 13:0029.87/20/2017 13:0018.97/20/2017 12:000.0
10/17/2017 20:0022.710/17/2017 20:00990.210/17/2017 20:00710/17/2017 20:00607/20/2017 12:00110/17/2017 20:0072.210/17/2017 20:0017.57/20/2017 12:0029.97/20/2017 12:0019.47/20/2017 11:000.0
10/17/2017 21:0022.810/17/2017 21:00991.210/17/2017 21:00710/17/2017 21:00557/20/2017 11:001.600000023841910/17/2017 21:0071.410/17/2017 21:0017.47/20/2017 11:0029.47/20/2017 11:0019.17/20/2017 10:000.0
10/17/2017 22:0022.710/17/2017 22:00991.710/17/2017 22:00710/17/2017 22:00497/20/2017 10:001.700000047683710/17/2017 22:0072.710/17/2017 22:0017.67/20/2017 10:0029.07/20/2017 10:0018.97/20/2017 9:000.0
10/17/2017 23:0022.610/17/2017 23:00991.810/17/2017 23:00710/17/2017 23:00627/20/2017 9:001.200000047683710/17/2017 23:0074.110/17/2017 23:0017.87/20/2017 9:0028.47/20/2017 9:0018.47/20/2017 8:000.0
10/18/2017 0:0022.410/18/2017 0:00991.410/18/2017 0:00710/18/2017 0:00727/20/2017 8:000.8000000119209310/18/2017 0:0075.610/18/2017 0:0017.97/20/2017 8:0027.77/20/2017 8:0018.17/20/2017 7:000.0
10/18/2017 1:0022.410/18/2017 1:00991.110/18/2017 1:00710/18/2017 1:00587/20/2017 7:000.6999999880790710/18/2017 1:0076.610/18/2017 1:0018.27/20/2017 7:0027.47/20/2017 7:0017.97/20/2017 6:000.0
10/18/2017 2:0022.310/18/2017 2:00990.910/18/2017 2:00710/18/2017 2:00587/20/2017 6:000.6000000238418610/18/2017 2:0077.110/18/2017 2:0018.27/20/2017 6:0027.47/20/2017 6:0017.77/20/2017 5:000.0
10/18/2017 3:0022.310/18/2017 3:00990.310/18/2017 3:00710/18/2017 3:00757/20/2017 5:00110/18/2017 3:0076.810/18/2017 3:0018.17/20/2017 5:0027.47/20/2017 5:0017.67/20/2017 4:000.0
10/18/2017 4:0022.110/18/2017 4:00990.110/18/2017 4:00710/18/2017 4:00687/20/2017 4:001.100000023841910/18/2017 4:0076.910/18/2017 4:0017.97/20/2017 4:0027.57/20/2017 4:004.77/20/2017 3:000.0
10/18/2017 5:0022.010/18/2017 5:00990.410/18/2017 5:00710/18/2017 5:00577/20/2017 3:000.6999999880790710/18/2017 5:0077.210/18/2017 5:0017.97/20/2017 3:0027.57/20/2017 3:000.17/20/2017 2:000.0
10/18/2017 6:0022.010/18/2017 6:00990.910/18/2017 6:00810/18/2017 6:00497/20/2017 2:000.8000000119209310/18/2017 6:0076.610/18/2017 6:0017.87/20/2017 2:0027.47/20/2017 2:000.17/20/2017 1:000.0
10/18/2017 7:0022.610/18/2017 7:00991.210/18/2017 7:0011810/18/2017 7:00537/20/2017 1:000.6000000238418610/18/2017 7:0070.610/18/2017 7:0017.17/20/2017 1:0027.47/20/2017 1:000.17/20/2017 0:000.0
10/18/2017 8:0023.410/18/2017 8:00991.910/18/2017 8:0030910/18/2017 8:00557/20/2017 0:000.6000000238418610/18/2017 8:0067.010/18/2017 8:0017.07/20/2017 0:0027.47/20/2017 0:000.17/19/2017 23:000.0
10/18/2017 9:0024.610/18/2017 9:00992.410/18/2017 9:0058910/18/2017 9:00607/19/2017 23:000.6000000238418610/18/2017 9:0064.110/18/2017 9:0017.47/19/2017 23:0027.47/19/2017 23:000.17/19/2017 22:000.0
10/18/2017 10:0025.610/18/2017 10:00992.610/18/2017 10:0069610/18/2017 10:00627/19/2017 22:000.6000000238418610/18/2017 10:0061.910/18/2017 10:0017.87/19/2017 22:0027.67/19/2017 22:000.17/19/2017 21:000.0
10/18/2017 11:0025.110/18/2017 11:00992.410/18/2017 11:0026810/18/2017 11:00647/19/2017 21:000.510/18/2017 11:0064.310/18/2017 11:0018.07/19/2017 21:0027.97/19/2017 21:000.17/19/2017 20:000.0
10/18/2017 12:0024.910/18/2017 12:00991.910/18/2017 12:0019010/18/2017 12:00817/19/2017 20:000.8999999761581410/18/2017 12:0066.010/18/2017 12:0018.27/19/2017 20:0028.27/19/2017 20:003.17/19/2017 19:000.0
10/18/2017 13:0025.510/18/2017 13:00991.010/18/2017 13:0047410/18/2017 13:00957/19/2017 19:001.100000023841910/18/2017 13:0066.110/18/2017 13:0018.87/19/2017 19:0028.97/19/2017 19:002.97/19/2017 18:000.0
10/18/2017 14:0025.110/18/2017 14:00990.210/18/2017 14:0023910/18/2017 14:00867/19/2017 18:000.6999999880790710/18/2017 14:0067.910/18/2017 14:0018.87/19/2017 18:0029.57/19/2017 18:000.27/19/2017 17:000.0
10/18/2017 15:0024.410/18/2017 15:00990.010/18/2017 15:0016510/18/2017 15:00837/19/2017 17:000.6999999880790710/18/2017 15:0070.710/18/2017 15:0018.87/19/2017 17:0029.47/19/2017 17:005.47/19/2017 16:000.0
10/18/2017 16:0024.810/18/2017 16:00989.610/18/2017 16:0020510/18/2017 16:00817/19/2017 16:001.200000047683710/18/2017 16:0069.710/18/2017 16:0019.07/19/2017 16:0029.87/19/2017 16:0022.67/19/2017 15:000.0
10/18/2017 17:0024.810/18/2017 17:00989.410/18/2017 17:0013810/18/2017 17:00707/19/2017 15:001.600000023841910/18/2017 17:0069.910/18/2017 17:0019.07/19/2017 15:0029.37/19/2017 15:0013.77/19/2017 14:000.0
10/18/2017 18:0023.910/18/2017 18:00989.810/18/2017 18:002510/18/2017 18:00777/19/2017 14:002.099999904632610/18/2017 18:0072.410/18/2017 18:0018.77/19/2017 14:0029.07/19/2017 14:008.07/19/2017 13:000.0
10/18/2017 19:0023.410/18/2017 19:00990.310/18/2017 19:00710/18/2017 19:00637/19/2017 13:00310/18/2017 19:0074.210/18/2017 19:0018.67/19/2017 13:0029.37/19/2017 13:0012.87/19/2017 12:000.0
10/18/2017 20:0023.510/18/2017 20:00991.010/18/2017 20:00710/18/2017 20:00627/19/2017 12:00210/18/2017 20:0074.710/18/2017 20:0018.87/19/2017 12:0029.17/19/2017 12:005.47/19/2017 11:000.0
10/18/2017 21:0023.510/18/2017 21:00991.710/18/2017 21:00710/18/2017 21:00597/19/2017 11:001.600000023841910/18/2017 21:0075.810/18/2017 21:0019.17/19/2017 11:0028.57/19/2017 11:004.97/19/2017 10:000.0
10/18/2017 22:0023.410/18/2017 22:00992.110/18/2017 22:00710/18/2017 22:00607/19/2017 10:001.100000023841910/18/2017 22:0076.910/18/2017 22:0019.27/19/2017 10:0028.67/19/2017 10:005.17/19/2017 9:000.0
10/18/2017 23:0023.510/18/2017 23:00992.110/18/2017 23:00610/18/2017 23:00717/19/2017 9:000.8999999761581410/18/2017 23:0076.410/18/2017 23:0019.27/19/2017 9:0027.97/19/2017 9:005.07/19/2017 8:000.0
10/19/2017 0:0023.010/19/2017 0:00992.010/19/2017 0:00810/19/2017 0:00587/19/2017 8:000.6999999880790710/19/2017 0:0080.910/19/2017 0:0019.67/19/2017 8:0027.37/19/2017 8:004.47/19/2017 7:000.0
10/19/2017 1:0022.010/19/2017 1:00991.610/19/2017 1:00910/19/2017 1:003157/19/2017 7:000.8000000119209310/19/2017 1:0089.210/19/2017 1:0020.27/19/2017 7:0027.27/19/2017 7:006.47/19/2017 6:000.0
10/19/2017 2:0022.310/19/2017 2:00990.910/19/2017 2:00910/19/2017 2:001267/19/2017 6:000.6999999880790710/19/2017 2:0086.410/19/2017 2:0020.07/19/2017 6:0027.47/19/2017 6:007.07/19/2017 5:000.0
10/19/2017 3:0022.110/19/2017 3:00990.610/19/2017 3:00610/19/2017 3:00927/19/2017 5:000.6000000238418610/19/2017 3:0087.510/19/2017 3:0020.07/19/2017 5:0027.47/19/2017 5:006.87/19/2017 4:000.0
10/19/2017 4:0021.710/19/2017 4:00990.510/19/2017 4:00810/19/2017 4:003077/19/2017 4:000.6000000238418610/19/2017 4:0092.510/19/2017 4:0020.57/19/2017 4:0027.77/19/2017 4:007.07/19/2017 3:000.0
10/19/2017 5:0021.610/19/2017 5:00990.510/19/2017 5:00810/19/2017 5:002487/19/2017 3:000.510/19/2017 5:0093.410/19/2017 5:0020.67/19/2017 3:0027.87/19/2017 3:007.87/19/2017 2:000.0
10/19/2017 6:0021.610/19/2017 6:00991.010/19/2017 6:00910/19/2017 6:002967/19/2017 2:000.510/19/2017 6:0093.210/19/2017 6:0020.57/19/2017 2:0027.57/19/2017 2:007.57/19/2017 1:000.0
10/19/2017 7:0022.210/19/2017 7:00991.510/19/2017 7:003910/19/2017 7:002027/19/2017 1:000.6000000238418610/19/2017 7:0090.110/19/2017 7:0020.67/19/2017 1:0027.67/19/2017 1:007.27/19/2017 0:000.0
10/19/2017 8:0024.110/19/2017 8:00991.810/19/2017 8:0015410/19/2017 8:00717/19/2017 0:000.6999999880790710/19/2017 8:0079.010/19/2017 8:0020.37/19/2017 0:0027.87/19/2017 0:007.07/18/2017 23:000.0
10/19/2017 9:0024.410/19/2017 9:00992.310/19/2017 9:0012310/19/2017 9:00877/18/2017 23:000.8000000119209310/19/2017 9:0076.810/19/2017 9:0020.17/18/2017 23:0027.97/18/2017 23:006.77/18/2017 22:000.0
10/19/2017 10:0025.110/19/2017 10:00992.710/19/2017 10:0034210/19/2017 10:00727/18/2017 22:000.6000000238418610/19/2017 10:0073.910/19/2017 10:0020.27/18/2017 22:0028.27/18/2017 22:006.57/18/2017 21:000.0
10/19/2017 11:0026.210/19/2017 11:00992.310/19/2017 11:0069410/19/2017 11:00527/18/2017 21:00110/19/2017 11:0070.210/19/2017 11:0020.47/18/2017 21:0028.67/18/2017 21:006.47/18/2017 20:000.0
10/19/2017 12:0026.110/19/2017 12:00991.710/19/2017 12:0034210/19/2017 12:00557/18/2017 20:000.8000000119209310/19/2017 12:0071.010/19/2017 12:0020.57/18/2017 20:0029.67/18/2017 20:005.97/18/2017 19:000.0
10/19/2017 13:0025.610/19/2017 13:00991.410/19/2017 13:0021710/19/2017 13:00607/18/2017 19:000.8999999761581410/19/2017 13:0073.010/19/2017 13:0020.57/18/2017 19:0030.47/18/2017 19:006.37/18/2017 18:000.0
10/19/2017 14:0025.010/19/2017 14:00990.810/19/2017 14:0017010/19/2017 14:00647/18/2017 18:000.8999999761581410/19/2017 14:0076.410/19/2017 14:0020.67/18/2017 18:0031.17/18/2017 18:006.67/18/2017 17:000.0
10/19/2017 15:0025.410/19/2017 15:00990.310/19/2017 15:0022110/19/2017 15:00547/18/2017 17:000.8000000119209310/19/2017 15:0074.510/19/2017 15:0020.67/18/2017 17:0031.07/18/2017 17:006.07/18/2017 16:000.0
10/19/2017 16:0025.210/19/2017 16:00989.910/19/2017 16:0013710/19/2017 16:00567/18/2017 16:001.100000023841910/19/2017 16:0074.710/19/2017 16:0020.57/18/2017 16:0030.17/18/2017 16:005.77/18/2017 15:000.0
10/19/2017 17:0024.810/19/2017 17:00989.810/19/2017 17:004110/19/2017 17:00447/18/2017 15:001.299999952316310/19/2017 17:0076.510/19/2017 17:0020.57/18/2017 15:0029.27/18/2017 15:005.27/18/2017 14:000.0
10/19/2017 18:0024.310/19/2017 18:00990.010/19/2017 18:001310/19/2017 18:00387/18/2017 14:001.100000023841910/19/2017 18:0078.810/19/2017 18:0020.57/18/2017 14:0029.27/18/2017 14:005.47/18/2017 13:000.0
10/19/2017 19:0024.110/19/2017 19:00990.410/19/2017 19:00910/19/2017 19:00517/18/2017 13:00110/19/2017 19:0080.110/19/2017 19:0020.57/18/2017 13:0029.07/18/2017 13:004.57/18/2017 12:000.0
10/19/2017 20:0024.110/19/2017 20:00991.110/19/2017 20:00710/19/2017 20:00517/18/2017 12:001.510/19/2017 20:0079.710/19/2017 20:0020.47/18/2017 12:0029.07/18/2017 12:004.57/18/2017 11:000.0
10/19/2017 21:0024.510/19/2017 21:00992.010/19/2017 21:00810/19/2017 21:00417/18/2017 11:00110/19/2017 21:0076.010/19/2017 21:0020.17/18/2017 11:0028.07/18/2017 11:004.17/18/2017 10:000.0
10/19/2017 22:0024.410/19/2017 22:00992.410/19/2017 22:00710/19/2017 22:00447/18/2017 10:000.8000000119209310/19/2017 22:0076.310/19/2017 22:0020.07/18/2017 10:0028.07/18/2017 10:004.77/18/2017 9:000.0
10/19/2017 23:0023.910/19/2017 23:00992.610/19/2017 23:00610/19/2017 23:00257/18/2017 9:000.8999999761581410/19/2017 23:0078.010/19/2017 23:0019.97/18/2017 9:0027.67/18/2017 9:004.57/18/2017 8:000.0
10/20/2017 0:0022.110/20/2017 0:00992.710/20/2017 0:00610/20/2017 0:002777/18/2017 8:00110/20/2017 0:0086.810/20/2017 0:0019.97/18/2017 8:0027.17/18/2017 8:003.87/18/2017 7:000.0
10/20/2017 1:0021.310/20/2017 1:00992.310/20/2017 1:00710/20/2017 1:002287/18/2017 7:000.6999999880790710/20/2017 1:0089.710/20/2017 1:0019.67/18/2017 7:0026.97/18/2017 7:003.77/18/2017 6:000.0
10/20/2017 2:0020.710/20/2017 2:00991.710/20/2017 2:00610/20/2017 2:002247/18/2017 6:000.6999999880790710/20/2017 2:0091.910/20/2017 2:0019.47/18/2017 6:0026.77/18/2017 6:003.67/18/2017 5:000.0
10/20/2017 3:0019.810/20/2017 3:00991.510/20/2017 3:00710/20/2017 3:002107/18/2017 5:00110/20/2017 3:0095.310/20/2017 3:0019.17/18/2017 5:0026.77/18/2017 5:003.67/18/2017 4:000.0
10/20/2017 4:0019.510/20/2017 4:00991.610/20/2017 4:00710/20/2017 4:002487/18/2017 4:000.8000000119209310/20/2017 4:0096.110/20/2017 4:0018.97/18/2017 4:0026.97/18/2017 4:003.77/18/2017 3:000.0
10/20/2017 5:0020.910/20/2017 5:00992.010/20/2017 5:00510/20/2017 5:003337/18/2017 3:000.8000000119209310/20/2017 5:0089.210/20/2017 5:0019.17/18/2017 3:0026.87/18/2017 3:003.67/18/2017 2:000.0
10/20/2017 6:0020.310/20/2017 6:00992.210/20/2017 6:00710/20/2017 6:002997/18/2017 2:00110/20/2017 6:0091.410/20/2017 6:0018.97/18/2017 2:0026.97/18/2017 2:003.67/18/2017 1:000.0
10/20/2017 7:0021.810/20/2017 7:00992.610/20/2017 7:0010410/20/2017 7:0097/18/2017 1:001.510/20/2017 7:0086.110/20/2017 7:0019.47/18/2017 1:0027.07/18/2017 1:003.67/18/2017 0:000.0
10/20/2017 8:0025.010/20/2017 8:00992.910/20/2017 8:0033310/20/2017 8:001147/18/2017 0:001.200000047683710/20/2017 8:0073.810/20/2017 8:0020.17/18/2017 0:0027.37/18/2017 0:003.97/17/2017 23:000.0
10/20/2017 9:0026.310/20/2017 9:00993.310/20/2017 9:0056510/20/2017 9:00627/17/2017 23:001.299999952316310/20/2017 9:0066.610/20/2017 9:0019.77/17/2017 23:0027.97/17/2017 23:005.77/17/2017 22:000.0
10/20/2017 10:0027.110/20/2017 10:00993.510/20/2017 10:0071110/20/2017 10:00557/17/2017 22:00110/20/2017 10:0064.110/20/2017 10:0019.87/17/2017 22:0028.17/17/2017 22:005.97/17/2017 21:000.0
10/20/2017 11:0028.010/20/2017 11:00993.010/20/2017 11:0087210/20/2017 11:00457/17/2017 21:00110/20/2017 11:0060.410/20/2017 11:0019.77/17/2017 21:0028.37/17/2017 21:008.17/17/2017 20:000.0
10/20/2017 12:0028.810/20/2017 12:00992.010/20/2017 12:0094310/20/2017 12:00317/17/2017 20:000.510/20/2017 12:0057.110/20/2017 12:0019.57/17/2017 20:0028.97/17/2017 20:009.57/17/2017 19:000.0
10/20/2017 13:0029.610/20/2017 13:00990.910/20/2017 13:0091610/20/2017 13:00437/17/2017 19:000.510/20/2017 13:0054.010/20/2017 13:0019.47/17/2017 19:0029.17/17/2017 19:009.67/17/2017 18:000.0
10/20/2017 14:0030.510/20/2017 14:00989.710/20/2017 14:0082010/20/2017 14:00397/17/2017 18:00110/20/2017 14:0051.810/20/2017 14:0019.57/17/2017 18:0029.07/17/2017 18:009.57/17/2017 17:000.0
10/20/2017 15:0031.110/20/2017 15:00988.710/20/2017 15:0065010/20/2017 15:00677/17/2017 17:00110/20/2017 15:0050.110/20/2017 15:0019.67/17/2017 17:0029.97/17/2017 17:0011.47/17/2017 16:000.0
10/20/2017 16:0030.710/20/2017 16:00988.310/20/2017 16:0037210/20/2017 16:00767/17/2017 16:001.799999952316310/20/2017 16:0052.210/20/2017 16:0019.97/17/2017 16:0030.57/17/2017 16:008.17/17/2017 15:000.0
10/20/2017 17:0029.010/20/2017 17:00988.510/20/2017 17:009210/20/2017 17:00577/17/2017 15:00110/20/2017 17:0058.610/20/2017 17:0020.17/17/2017 15:0030.77/17/2017 15:007.07/17/2017 14:000.0
10/20/2017 18:0027.310/20/2017 18:00989.110/20/2017 18:001510/20/2017 18:00737/17/2017 14:001.510/20/2017 18:0064.010/20/2017 18:0020.07/17/2017 14:0029.77/17/2017 14:006.27/17/2017 13:000.0
10/20/2017 19:0026.110/20/2017 19:00989.610/20/2017 19:00610/20/2017 19:001147/17/2017 13:001.510/20/2017 19:0068.010/20/2017 19:0019.87/17/2017 13:0029.27/17/2017 13:005.77/17/2017 12:000.0
10/20/2017 20:0025.210/20/2017 20:00990.510/20/2017 20:00610/20/2017 20:00437/17/2017 12:001.200000047683710/20/2017 20:0071.910/20/2017 20:0019.87/17/2017 12:0028.77/17/2017 12:005.57/17/2017 11:000.0
10/20/2017 21:0024.210/20/2017 21:00991.410/20/2017 21:00610/20/2017 21:002407/17/2017 11:001.399999976158110/20/2017 21:0077.710/20/2017 21:0020.17/17/2017 11:0028.27/17/2017 11:005.37/17/2017 10:000.0
10/20/2017 22:0023.710/20/2017 22:00991.810/20/2017 22:00610/20/2017 22:00397/17/2017 10:001.700000047683710/20/2017 22:0080.310/20/2017 22:0020.27/17/2017 10:0028.07/17/2017 10:005.57/17/2017 9:000.0
10/20/2017 23:0022.010/20/2017 23:00991.910/20/2017 23:00710/20/2017 23:001317/17/2017 9:001.799999952316310/20/2017 23:0089.910/20/2017 23:0020.37/17/2017 9:0028.17/17/2017 9:005.67/17/2017 8:000.0
10/21/2017 0:0021.210/21/2017 0:00992.110/21/2017 0:00710/21/2017 0:002197/17/2017 8:002.099999904632610/21/2017 0:0093.110/21/2017 0:0020.17/17/2017 8:0028.17/17/2017 8:004.97/17/2017 7:000.0
10/21/2017 1:0021.010/21/2017 1:00991.910/21/2017 1:00710/21/2017 1:001167/17/2017 7:001.799999952316310/21/2017 1:0093.410/21/2017 1:0020.07/17/2017 7:0028.07/17/2017 7:004.47/17/2017 6:000.0
10/21/2017 2:0021.710/21/2017 2:00991.610/21/2017 2:00710/21/2017 2:00387/17/2017 6:000.8000000119209310/21/2017 2:0087.110/21/2017 2:0019.57/17/2017 6:0027.67/17/2017 6:004.37/17/2017 5:000.0
10/21/2017 3:0022.210/21/2017 3:00991.710/21/2017 3:00810/21/2017 3:003557/17/2017 5:001.200000047683710/21/2017 3:0085.010/21/2017 3:0019.67/17/2017 5:0027.67/17/2017 5:005.37/17/2017 4:000.0
10/21/2017 4:0022.210/21/2017 4:00991.410/21/2017 4:00910/21/2017 4:002747/17/2017 4:002.200000047683710/21/2017 4:0086.710/21/2017 4:0020.07/17/2017 4:0027.67/17/2017 4:007.07/17/2017 3:000.0
10/21/2017 5:0022.310/21/2017 5:00991.310/21/2017 5:00910/21/2017 5:003047/17/2017 3:002.510/21/2017 5:0088.210/21/2017 5:0020.37/17/2017 3:0027.57/17/2017 3:008.97/17/2017 2:000.0
10/21/2017 6:0023.010/21/2017 6:00991.510/21/2017 6:00910/21/2017 6:003257/17/2017 2:002.599999904632610/21/2017 6:0083.610/21/2017 6:0020.17/17/2017 2:0027.67/17/2017 2:007.77/17/2017 1:000.0
10/21/2017 7:0024.010/21/2017 7:00992.010/21/2017 7:0012910/21/2017 7:002167/17/2017 1:002.599999904632610/21/2017 7:0081.910/21/2017 7:0020.87/17/2017 1:0027.87/17/2017 1:007.07/17/2017 0:000.0
10/21/2017 8:0026.710/21/2017 8:00992.310/21/2017 8:0035710/21/2017 8:001167/17/2017 0:003.299999952316310/21/2017 8:0066.810/21/2017 8:0020.17/17/2017 0:0028.07/17/2017 0:008.07/16/2017 23:000.0
10/21/2017 9:0027.310/21/2017 9:00992.510/21/2017 9:0055010/21/2017 9:00727/16/2017 23:003.200000047683710/21/2017 9:0063.610/21/2017 9:0019.97/16/2017 23:0028.67/16/2017 23:006.87/16/2017 22:000.0
10/21/2017 10:0028.010/21/2017 10:00992.410/21/2017 10:0068510/21/2017 10:00797/16/2017 22:002.400000095367410/21/2017 10:0061.310/21/2017 10:0019.97/16/2017 22:0028.27/16/2017 22:006.57/16/2017 21:000.0
10/21/2017 11:0029.110/21/2017 11:00991.610/21/2017 11:0085210/21/2017 11:00457/16/2017 21:001.399999976158110/21/2017 11:0056.510/21/2017 11:0019.67/16/2017 21:0027.97/16/2017 21:005.87/16/2017 20:000.0
10/21/2017 12:0029.810/21/2017 12:00990.510/21/2017 12:0070710/21/2017 12:00487/16/2017 20:001.200000047683710/21/2017 12:0053.410/21/2017 12:0019.47/16/2017 20:0027.87/16/2017 20:005.76/18/2017 0:000.0
10/21/2017 13:0030.410/21/2017 13:00989.410/21/2017 13:0082310/21/2017 13:00496/18/2017 0:000.510/21/2017 13:0053.210/21/2017 13:0019.96/18/2017 0:0027.86/18/2017 0:0048.56/17/2017 23:000.0
10/21/2017 14:0030.110/21/2017 14:00988.910/21/2017 14:0075310/21/2017 14:00656/17/2017 23:000.6999999880790710/21/2017 14:0056.010/21/2017 14:0020.46/17/2017 23:0027.96/17/2017 23:0048.46/17/2017 22:000.0
10/21/2017 15:0029.010/21/2017 15:00988.410/21/2017 15:0050610/21/2017 15:00916/17/2017 22:000.6999999880790710/21/2017 15:0060.810/21/2017 15:0020.76/17/2017 22:0028.16/17/2017 22:0048.36/17/2017 21:000.0
10/21/2017 16:0028.410/21/2017 16:00988.310/21/2017 16:0025110/21/2017 16:00636/17/2017 21:000.8000000119209310/21/2017 16:0062.410/21/2017 16:0020.66/17/2017 21:0028.26/17/2017 21:0048.06/17/2017 20:000.0
10/21/2017 17:0027.310/21/2017 17:00988.610/21/2017 17:007210/21/2017 17:00386/17/2017 20:000.6000000238418610/21/2017 17:0066.210/21/2017 17:0020.56/17/2017 20:0028.36/17/2017 20:0047.86/17/2017 19:000.0
10/21/2017 18:0026.110/21/2017 18:00989.010/21/2017 18:001310/21/2017 18:00416/17/2017 19:000.6000000238418610/21/2017 18:0070.110/21/2017 18:0020.36/17/2017 19:0028.46/17/2017 19:0047.76/17/2017 18:000.0
10/21/2017 19:0025.310/21/2017 19:00989.410/21/2017 19:00710/21/2017 19:00406/17/2017 18:000.510/21/2017 19:0073.710/21/2017 19:0020.36/17/2017 18:0028.46/17/2017 18:0047.96/17/2017 17:000.0
10/21/2017 20:0025.210/21/2017 20:00990.210/21/2017 20:00810/21/2017 20:00436/17/2017 17:001.200000047683710/21/2017 20:0073.610/21/2017 20:0020.26/17/2017 17:0028.36/17/2017 17:0047.96/17/2017 16:000.0
10/21/2017 21:0024.210/21/2017 21:00990.910/21/2017 21:00710/21/2017 21:003146/17/2017 16:001.200000047683710/21/2017 21:0079.510/21/2017 21:0020.56/17/2017 16:0028.56/17/2017 16:0047.86/17/2017 15:000.0
10/21/2017 22:0023.310/21/2017 22:00991.510/21/2017 22:00610/21/2017 22:003496/17/2017 15:000.8000000119209310/21/2017 22:0083.310/21/2017 22:0020.46/17/2017 15:0029.26/17/2017 15:0047.96/17/2017 14:004.2
10/21/2017 23:0024.210/21/2017 23:00991.910/21/2017 23:00610/21/2017 23:00566/17/2017 14:00110/21/2017 23:0077.010/21/2017 23:0020.06/17/2017 14:0030.86/17/2017 14:0051.06/17/2017 13:000.0
10/22/2017 0:0024.610/22/2017 0:00991.610/22/2017 0:00610/22/2017 0:00366/17/2017 13:001.399999976158110/22/2017 0:0074.110/22/2017 0:0019.86/17/2017 13:0031.36/17/2017 13:0052.06/17/2017 12:000.0
10/22/2017 1:0024.510/22/2017 1:00991.210/22/2017 1:00610/22/2017 1:00466/17/2017 12:00110/22/2017 1:0073.710/22/2017 1:0019.66/17/2017 12:0031.06/17/2017 12:0051.86/17/2017 11:000.0
10/22/2017 2:0024.010/22/2017 2:00990.810/22/2017 2:00610/22/2017 2:00166/17/2017 11:000.6999999880790710/22/2017 2:0076.010/22/2017 2:0019.66/17/2017 11:0030.76/17/2017 11:0052.06/17/2017 10:000.0
10/22/2017 3:0023.910/22/2017 3:00990.510/22/2017 3:00610/22/2017 3:0086/17/2017 10:000.6999999880790710/22/2017 3:0075.710/22/2017 3:0019.46/17/2017 10:0031.16/17/2017 10:0052.46/17/2017 9:000.0
10/22/2017 4:0024.010/22/2017 4:00990.110/22/2017 4:00610/22/2017 4:00216/17/2017 9:000.6000000238418610/22/2017 4:0074.810/22/2017 4:0019.36/17/2017 9:0030.06/17/2017 9:0051.66/17/2017 8:000.0
10/22/2017 5:0023.510/22/2017 5:00990.210/22/2017 5:00610/22/2017 5:0006/17/2017 8:000.6999999880790710/22/2017 5:0077.510/22/2017 5:0019.46/17/2017 8:0028.56/17/2017 8:0051.66/17/2017 7:000.0
10/22/2017 6:0022.710/22/2017 6:00990.510/22/2017 6:00810/22/2017 6:0026/17/2017 7:000.510/22/2017 6:0081.910/22/2017 6:0019.56/17/2017 7:0027.76/17/2017 7:0051.66/17/2017 6:000.0
10/22/2017 7:0021.910/22/2017 7:00991.210/22/2017 7:008510/22/2017 7:002646/17/2017 6:000.4000000059604610/22/2017 7:0088.010/22/2017 7:0019.96/17/2017 6:0027.56/17/2017 6:0051.56/17/2017 5:000.0
10/22/2017 8:0025.710/22/2017 8:00991.510/22/2017 8:0031410/22/2017 8:002296/17/2017 5:000.4000000059604610/22/2017 8:0074.910/22/2017 8:0021.06/17/2017 5:0027.46/17/2017 5:0051.66/17/2017 4:000.0
10/22/2017 9:0027.010/22/2017 9:00991.710/22/2017 9:0056910/22/2017 9:00486/17/2017 4:000.4000000059604610/22/2017 9:0065.410/22/2017 9:0020.06/17/2017 4:0027.36/17/2017 4:0051.46/17/2017 3:000.0
10/22/2017 10:0027.510/22/2017 10:00991.810/22/2017 10:0059710/22/2017 10:00386/17/2017 3:000.3000000119209310/22/2017 10:0063.210/22/2017 10:0020.06/17/2017 3:0027.46/17/2017 3:0051.46/17/2017 2:000.0
10/22/2017 11:0028.010/22/2017 11:00991.310/22/2017 11:0051410/22/2017 11:00446/17/2017 2:000.510/22/2017 11:0061.810/22/2017 11:0020.16/17/2017 2:0027.46/17/2017 2:0051.36/17/2017 1:000.0
10/22/2017 12:0029.310/22/2017 12:00990.410/22/2017 12:0091310/22/2017 12:00676/17/2017 1:000.510/22/2017 12:0056.810/22/2017 12:0019.96/17/2017 1:0027.76/17/2017 1:0051.16/17/2017 0:000.0
10/22/2017 13:0030.010/22/2017 13:00989.410/22/2017 13:0088610/22/2017 13:00546/17/2017 0:000.6000000238418610/22/2017 13:0054.210/22/2017 13:0019.86/17/2017 0:0027.86/17/2017 0:0050.86/16/2017 23:000.0
10/22/2017 14:0030.510/22/2017 14:00988.510/22/2017 14:0071310/22/2017 14:00576/16/2017 23:000.6000000238418610/22/2017 14:0054.410/22/2017 14:0020.36/16/2017 23:0028.26/16/2017 23:0050.56/16/2017 22:000.0
10/22/2017 15:0029.810/22/2017 15:00988.010/22/2017 15:0064410/22/2017 15:00486/16/2017 22:000.8000000119209310/22/2017 15:0056.710/22/2017 15:0020.46/16/2017 22:0028.66/16/2017 22:0050.46/16/2017 21:000.0
10/22/2017 16:0028.810/22/2017 16:00987.910/22/2017 16:0043810/22/2017 16:00496/16/2017 21:000.8000000119209310/22/2017 16:0060.610/22/2017 16:0020.56/16/2017 21:0029.66/16/2017 21:0050.06/16/2017 20:000.0
10/22/2017 17:0027.210/22/2017 17:00988.210/22/2017 17:0018510/22/2017 17:00526/16/2017 20:000.6000000238418610/22/2017 17:0065.910/22/2017 17:0020.36/16/2017 20:0030.86/16/2017 20:0049.96/16/2017 19:000.0
10/22/2017 18:0025.410/22/2017 18:00988.910/22/2017 18:001710/22/2017 18:00556/16/2017 19:000.8000000119209310/22/2017 18:0072.310/22/2017 18:0020.16/16/2017 19:0032.86/16/2017 19:0050.16/16/2017 18:000.0
10/22/2017 19:0024.510/22/2017 19:00989.510/22/2017 19:00610/22/2017 19:00596/16/2017 18:001.299999952316310/22/2017 19:0075.410/22/2017 19:0019.96/16/2017 18:0033.96/16/2017 18:0034.96/16/2017 17:000.0
10/22/2017 20:0024.210/22/2017 20:00990.510/22/2017 20:00610/22/2017 20:00496/16/2017 17:001.600000023841910/22/2017 20:0076.210/22/2017 20:0019.86/16/2017 17:0034.46/16/2017 17:0031.46/16/2017 16:000.0
10/22/2017 21:0024.310/22/2017 21:00991.510/22/2017 21:00610/22/2017 21:00626/16/2017 16:002.099999904632610/22/2017 21:0075.010/22/2017 21:0019.76/16/2017 16:0034.76/16/2017 16:0030.66/16/2017 15:000.0
10/22/2017 22:0024.210/22/2017 22:00992.210/22/2017 22:00610/22/2017 22:00666/16/2017 15:002.299999952316310/22/2017 22:0076.010/22/2017 22:0019.86/16/2017 15:0034.56/16/2017 15:0029.36/16/2017 14:000.0
10/22/2017 23:0024.010/22/2017 23:00992.310/22/2017 23:00610/22/2017 23:00656/16/2017 14:002.099999904632610/22/2017 23:0077.010/22/2017 23:0019.86/16/2017 14:0034.16/16/2017 14:0028.46/16/2017 13:000.0
10/23/2017 0:0024.010/23/2017 0:00991.910/23/2017 0:00610/23/2017 0:00576/16/2017 13:002.900000095367410/23/2017 0:0076.310/23/2017 0:0019.66/16/2017 13:0033.66/16/2017 13:0027.66/16/2017 12:000.0
10/23/2017 1:0023.910/23/2017 1:00991.510/23/2017 1:00610/23/2017 1:00526/16/2017 12:002.799999952316310/23/2017 1:0076.010/23/2017 1:0019.56/16/2017 12:0032.96/16/2017 12:0027.26/16/2017 11:000.0
10/23/2017 2:0023.810/23/2017 2:00990.810/23/2017 2:00610/23/2017 2:00486/16/2017 11:002.599999904632610/23/2017 2:0076.210/23/2017 2:0019.46/16/2017 11:0032.16/16/2017 11:0027.06/16/2017 10:000.0
10/23/2017 3:0024.110/23/2017 3:00990.610/23/2017 3:00610/23/2017 3:00646/16/2017 10:001.700000047683710/23/2017 3:0073.310/23/2017 3:0019.16/16/2017 10:0030.86/16/2017 10:0015.26/16/2017 9:000.0
10/23/2017 4:0024.210/23/2017 4:00990.310/23/2017 4:00610/23/2017 4:00686/16/2017 9:000.6000000238418610/23/2017 4:0072.110/23/2017 4:0018.96/16/2017 9:0029.26/16/2017 9:0020.46/16/2017 8:000.0
10/23/2017 5:0023.010/23/2017 5:00990.410/23/2017 5:00610/23/2017 5:002726/16/2017 8:000.510/23/2017 5:0079.010/23/2017 5:0019.26/16/2017 8:0028.06/16/2017 8:0021.86/16/2017 7:000.0
10/23/2017 6:0022.710/23/2017 6:00991.010/23/2017 6:00810/23/2017 6:001346/16/2017 7:000.4000000059604610/23/2017 6:0080.010/23/2017 6:0019.16/16/2017 7:0026.56/16/2017 7:0018.96/16/2017 6:000.0
10/23/2017 7:0023.610/23/2017 7:00991.810/23/2017 7:009610/23/2017 7:0066/16/2017 6:000.4000000059604610/23/2017 7:0076.010/23/2017 7:0019.26/16/2017 6:0026.06/16/2017 6:000.16/16/2017 5:000.0
10/23/2017 8:0025.610/23/2017 8:00992.310/23/2017 8:0031010/23/2017 8:00476/16/2017 5:000.510/23/2017 8:0067.210/23/2017 8:0019.16/16/2017 5:0026.36/16/2017 5:000.16/16/2017 4:000.0
10/23/2017 9:0026.210/23/2017 9:00992.710/23/2017 9:0055110/23/2017 9:00516/16/2017 4:000.510/23/2017 9:0064.710/23/2017 9:0019.16/16/2017 4:0026.46/16/2017 4:000.16/16/2017 3:000.0
10/23/2017 10:0027.010/23/2017 10:00992.910/23/2017 10:0074110/23/2017 10:00456/16/2017 3:000.4000000059604610/23/2017 10:0062.910/23/2017 10:0019.46/16/2017 3:0026.56/16/2017 3:000.16/16/2017 2:000.0
10/23/2017 11:0027.910/23/2017 11:00992.710/23/2017 11:0082710/23/2017 11:00486/16/2017 2:000.510/23/2017 11:0060.410/23/2017 11:0019.66/16/2017 2:0026.66/16/2017 2:000.16/16/2017 1:000.0
10/23/2017 12:0028.310/23/2017 12:00992.310/23/2017 12:0077810/23/2017 12:00486/16/2017 1:000.4000000059604610/23/2017 12:0059.810/23/2017 12:0019.86/16/2017 1:0026.76/16/2017 1:001.16/16/2017 0:000.0
10/23/2017 13:0028.010/23/2017 13:00991.910/23/2017 13:0091910/23/2017 13:00496/16/2017 0:000.3000000119209310/23/2017 13:0061.710/23/2017 13:0020.06/16/2017 0:0026.96/16/2017 0:0025.05/16/2017 22:000.0
10/23/2017 14:0027.010/23/2017 14:00991.410/23/2017 14:0041110/23/2017 14:00535/16/2017 22:001.799999952316310/23/2017 14:0065.410/23/2017 14:0020.05/16/2017 22:0027.85/16/2017 22:0055.35/14/2017 7:000.0
10/23/2017 15:0027.010/23/2017 15:00991.110/23/2017 15:0065110/23/2017 15:00465/14/2017 7:000.8000000119209310/23/2017 15:0065.310/23/2017 15:0020.05/14/2017 7:0026.95/14/2017 7:0055.35/6/2017 15:000.0
10/23/2017 16:0026.710/23/2017 16:00990.910/23/2017 16:0034210/23/2017 16:00445/6/2017 15:003.200000047683710/23/2017 16:0066.610/23/2017 16:0020.05/6/2017 15:0032.55/6/2017 15:0055.35/6/2017 14:000.0
10/23/2017 17:0025.610/23/2017 17:00991.410/23/2017 17:008810/23/2017 17:00425/6/2017 14:001.799999952316310/23/2017 17:0069.710/23/2017 17:0019.75/6/2017 14:0035.45/6/2017 14:0055.35/6/2017 13:000.0
10/23/2017 18:0024.710/23/2017 18:00991.910/23/2017 18:001410/23/2017 18:00455/6/2017 13:001.799999952316310/23/2017 18:0071.910/23/2017 18:0019.45/6/2017 13:0035.05/6/2017 13:0055.35/6/2017 12:000.0
10/23/2017 19:0024.310/23/2017 19:00992.510/23/2017 19:00710/23/2017 19:00455/6/2017 12:001.299999952316310/23/2017 19:0073.210/23/2017 19:0019.35/6/2017 12:0033.95/6/2017 12:0055.35/6/2017 11:000.0
10/23/2017 20:0024.110/23/2017 20:00993.210/23/2017 20:00610/23/2017 20:00475/6/2017 11:001.399999976158110/23/2017 20:0072.810/23/2017 20:0019.05/6/2017 11:0033.15/6/2017 11:0055.35/6/2017 10:000.0
10/23/2017 21:0024.110/23/2017 21:00994.310/23/2017 21:00710/23/2017 21:00535/6/2017 10:001.200000047683710/23/2017 21:0073.510/23/2017 21:0019.15/6/2017 10:0031.85/6/2017 10:0055.35/6/2017 9:000.0
10/23/2017 22:0023.910/23/2017 22:00994.710/23/2017 22:00710/23/2017 22:00505/6/2017 9:000.8999999761581410/23/2017 22:0073.510/23/2017 22:0018.95/6/2017 9:0030.35/6/2017 9:0055.35/6/2017 8:000.0
10/23/2017 23:0023.810/23/2017 23:00994.810/23/2017 23:00710/23/2017 23:00515/6/2017 8:000.8000000119209310/23/2017 23:0073.010/23/2017 23:0018.75/6/2017 8:0028.85/6/2017 8:0055.35/6/2017 7:000.0
10/24/2017 0:0023.610/24/2017 0:00994.510/24/2017 0:00710/24/2017 0:00525/6/2017 7:000.8999999761581410/24/2017 0:0072.010/24/2017 0:0018.35/6/2017 7:0027.05/6/2017 7:0055.35/6/2017 6:000.0
10/24/2017 1:0023.510/24/2017 1:00994.010/24/2017 1:00710/24/2017 1:00525/6/2017 6:001.299999952316310/24/2017 1:0072.510/24/2017 1:0018.35/6/2017 6:0026.35/6/2017 6:0055.35/6/2017 5:000.0
10/24/2017 2:0023.610/24/2017 2:00993.510/24/2017 2:00710/24/2017 2:00505/6/2017 5:000.510/24/2017 2:0071.510/24/2017 2:0018.25/6/2017 5:0026.45/6/2017 5:0055.35/6/2017 4:000.0
10/24/2017 3:0023.510/24/2017 3:00993.410/24/2017 3:00710/24/2017 3:00465/6/2017 4:000.6999999880790710/24/2017 3:0071.310/24/2017 3:0018.15/6/2017 4:0026.75/6/2017 4:0055.35/6/2017 3:000.0
10/24/2017 4:0023.510/24/2017 4:00993.410/24/2017 4:00710/24/2017 4:00445/6/2017 3:000.6000000238418610/24/2017 4:0071.310/24/2017 4:0018.15/6/2017 3:0027.05/6/2017 3:0055.35/6/2017 2:000.0
10/24/2017 5:0023.310/24/2017 5:00993.510/24/2017 5:00710/24/2017 5:00435/6/2017 2:001.299999952316310/24/2017 5:0072.010/24/2017 5:0018.05/6/2017 2:0027.05/6/2017 2:0055.35/6/2017 1:000.0
10/24/2017 6:0023.210/24/2017 6:00993.810/24/2017 6:00810/24/2017 6:00555/6/2017 1:000.8000000119209310/24/2017 6:0071.610/24/2017 6:0017.95/6/2017 1:0027.35/6/2017 1:0055.35/6/2017 0:000.0
10/24/2017 7:0023.310/24/2017 7:00994.410/24/2017 7:006710/24/2017 7:00545/6/2017 0:000.510/24/2017 7:0071.510/24/2017 7:0017.95/6/2017 0:0027.95/6/2017 0:0055.35/5/2017 23:000.0
10/24/2017 8:0023.910/24/2017 8:00995.110/24/2017 8:0026110/24/2017 8:00585/5/2017 23:000.8999999761581410/24/2017 8:0069.810/24/2017 8:0018.15/5/2017 23:0028.15/5/2017 23:0055.35/5/2017 22:000.0
10/24/2017 9:0024.110/24/2017 9:00996.010/24/2017 9:0033310/24/2017 9:00575/5/2017 22:000.8000000119209310/24/2017 9:0070.310/24/2017 9:0018.45/5/2017 22:0028.25/5/2017 22:0055.35/5/2017 21:000.0
10/24/2017 10:0024.510/24/2017 10:00996.410/24/2017 10:0048910/24/2017 10:00685/5/2017 21:00110/24/2017 10:0068.910/24/2017 10:0018.55/5/2017 21:0028.45/5/2017 21:0055.35/5/2017 20:000.0
10/24/2017 11:0025.610/24/2017 11:00996.210/24/2017 11:0086610/24/2017 11:00685/5/2017 20:001.100000023841910/24/2017 11:0065.110/24/2017 11:0018.65/5/2017 20:0029.15/5/2017 20:0055.35/5/2017 19:000.0
10/24/2017 12:0026.010/24/2017 12:00995.510/24/2017 12:0092110/24/2017 12:00675/5/2017 19:000.8000000119209310/24/2017 12:0064.310/24/2017 12:0018.85/5/2017 19:0030.25/5/2017 19:0055.35/5/2017 18:000.0
10/24/2017 13:0025.510/24/2017 13:00994.910/24/2017 13:0056110/24/2017 13:00675/5/2017 18:001.899999976158110/24/2017 13:0066.610/24/2017 13:0018.95/5/2017 18:0030.45/5/2017 18:0055.35/5/2017 17:000.0
10/24/2017 14:0024.810/24/2017 14:00994.410/24/2017 14:0034510/24/2017 14:00745/5/2017 17:00210/24/2017 14:0069.710/24/2017 14:0019.05/5/2017 17:0031.25/5/2017 17:0055.35/5/2017 16:000.0
10/24/2017 15:0024.310/24/2017 15:00994.010/24/2017 15:0026810/24/2017 15:00795/5/2017 16:003.099999904632610/24/2017 15:0071.010/24/2017 15:0018.85/5/2017 16:0032.65/5/2017 16:0055.35/5/2017 15:000.0
10/24/2017 16:0024.010/24/2017 16:00993.710/24/2017 16:0010010/24/2017 16:00675/5/2017 15:001.299999952316310/24/2017 16:0071.510/24/2017 16:0018.65/5/2017 15:0035.35/5/2017 15:0055.35/5/2017 14:000.0
10/24/2017 17:0023.410/24/2017 17:00993.710/24/2017 17:004010/24/2017 17:00635/5/2017 14:001.399999976158110/24/2017 17:0073.310/24/2017 17:0018.45/5/2017 14:0035.35/5/2017 14:0055.35/5/2017 13:000.0
10/24/2017 18:0023.210/24/2017 18:00994.010/24/2017 18:001110/24/2017 18:00635/5/2017 13:001.510/24/2017 18:0074.310/24/2017 18:0018.45/5/2017 13:0034.75/5/2017 13:0055.35/5/2017 12:000.0
10/24/2017 19:0023.210/24/2017 19:00994.710/24/2017 19:00810/24/2017 19:00705/5/2017 12:001.799999952316310/24/2017 19:0074.710/24/2017 19:0018.55/5/2017 12:0033.95/5/2017 12:0055.35/5/2017 11:000.0
10/24/2017 20:0023.310/24/2017 20:00995.310/24/2017 20:00810/24/2017 20:00835/5/2017 11:00210/24/2017 20:0074.210/24/2017 20:0018.55/5/2017 11:0032.95/5/2017 11:0055.35/5/2017 10:000.0
10/24/2017 21:0023.610/24/2017 21:00996.110/24/2017 21:00810/24/2017 21:00735/5/2017 10:001.700000047683710/24/2017 21:0073.510/24/2017 21:0018.75/5/2017 10:0031.35/5/2017 10:0055.35/5/2017 9:000.0
10/24/2017 22:0023.710/24/2017 22:00996.110/24/2017 22:00710/24/2017 22:00625/5/2017 9:00110/24/2017 22:0073.610/24/2017 22:0018.85/5/2017 9:0029.55/5/2017 9:0055.35/5/2017 8:000.0
10/24/2017 23:0023.410/24/2017 23:00995.910/24/2017 23:00710/24/2017 23:00655/5/2017 8:000.510/24/2017 23:0076.010/24/2017 23:0019.05/5/2017 8:0028.05/5/2017 8:0055.35/5/2017 7:000.0
10/25/2017 0:0023.310/25/2017 0:00995.710/25/2017 0:00710/25/2017 0:00815/5/2017 7:000.6999999880790710/25/2017 0:0076.210/25/2017 0:0018.95/5/2017 7:0027.05/5/2017 7:0055.35/5/2017 6:000.0
10/25/2017 1:0023.410/25/2017 1:00995.110/25/2017 1:00810/25/2017 1:00735/5/2017 6:000.6999999880790710/25/2017 1:0077.410/25/2017 1:0019.35/5/2017 6:0026.75/5/2017 6:0055.35/5/2017 5:000.0
10/25/2017 2:0023.310/25/2017 2:00994.410/25/2017 2:00710/25/2017 2:00735/5/2017 5:000.510/25/2017 2:0077.010/25/2017 2:0019.15/5/2017 5:0026.95/5/2017 5:0055.35/5/2017 4:000.0
10/25/2017 3:0023.410/25/2017 3:00994.310/25/2017 3:00710/25/2017 3:00735/5/2017 4:000.6000000238418610/25/2017 3:0076.310/25/2017 3:0019.15/5/2017 4:0026.85/5/2017 4:0055.35/5/2017 3:000.0
10/25/2017 4:0023.410/25/2017 4:00994.310/25/2017 4:00710/25/2017 4:00645/5/2017 3:000.8000000119209310/25/2017 4:0076.410/25/2017 4:0019.15/5/2017 3:0026.85/5/2017 3:0055.33/21/2017 10:000.0
10/25/2017 5:0023.510/25/2017 5:00994.410/25/2017 5:00710/25/2017 5:00673/21/2017 10:001.299999952316310/25/2017 5:0075.610/25/2017 5:0019.03/21/2017 10:0027.13/21/2017 10:0055.33/21/2017 9:000.0
10/25/2017 6:0023.610/25/2017 6:00995.010/25/2017 6:00810/25/2017 6:00663/21/2017 9:000.6999999880790710/25/2017 6:0076.110/25/2017 6:0019.23/21/2017 9:0026.43/21/2017 9:0055.33/21/2017 8:000.0
10/25/2017 7:0023.710/25/2017 7:00995.710/25/2017 7:003210/25/2017 7:00633/21/2017 8:000.6000000238418610/25/2017 7:0075.910/25/2017 7:0019.33/21/2017 8:0025.83/21/2017 8:0055.33/21/2017 7:000.0
10/25/2017 8:0024.210/25/2017 8:00996.210/25/2017 8:0013710/25/2017 8:00583/21/2017 7:000.6000000238418610/25/2017 8:0074.210/25/2017 8:0019.43/21/2017 7:0025.23/21/2017 7:0055.33/21/2017 6:000.0
10/25/2017 9:0025.010/25/2017 9:00996.510/25/2017 9:0042210/25/2017 9:00533/21/2017 6:001.100000023841910/25/2017 9:0071.110/25/2017 9:0019.53/21/2017 6:0025.23/21/2017 6:0055.33/21/2017 5:000.0
10/25/2017 10:0025.810/25/2017 10:00996.910/25/2017 10:0068010/25/2017 10:00483/21/2017 5:000.6000000238418610/25/2017 10:0068.910/25/2017 10:0019.73/21/2017 5:0025.03/21/2017 5:0055.33/21/2017 4:000.0
10/25/2017 11:0026.310/25/2017 11:00996.410/25/2017 11:0076310/25/2017 11:00463/21/2017 4:000.8000000119209310/25/2017 11:0066.910/25/2017 11:0019.73/21/2017 4:0025.13/21/2017 4:0055.33/21/2017 3:000.0
10/25/2017 12:0026.810/25/2017 12:00995.510/25/2017 12:0072910/25/2017 12:00473/21/2017 3:000.8000000119209310/25/2017 12:0065.610/25/2017 12:0019.93/21/2017 3:0025.13/21/2017 3:0055.33/21/2017 2:000.0
10/25/2017 13:0027.310/25/2017 13:00994.810/25/2017 13:0080810/25/2017 13:00403/21/2017 2:000.6000000238418610/25/2017 13:0063.710/25/2017 13:0019.93/21/2017 2:0025.23/21/2017 2:0055.33/21/2017 1:000.0
10/25/2017 14:0027.110/25/2017 14:00994.110/25/2017 14:0071710/25/2017 14:00413/21/2017 1:000.8000000119209310/25/2017 14:0064.110/25/2017 14:0019.83/21/2017 1:0025.43/21/2017 1:0055.33/21/2017 0:000.0
10/25/2017 15:0027.410/25/2017 15:00993.510/25/2017 15:0058510/25/2017 15:00393/21/2017 0:000.6999999880790710/25/2017 15:0063.010/25/2017 15:0019.83/21/2017 0:0025.53/21/2017 0:0055.33/20/2017 23:000.0
10/25/2017 16:0026.310/25/2017 16:00993.510/25/2017 16:0018810/25/2017 16:00493/20/2017 23:00110/25/2017 16:0066.810/25/2017 16:0019.73/20/2017 23:0025.83/20/2017 23:0055.33/20/2017 22:000.0
10/25/2017 17:0025.510/25/2017 17:00993.810/25/2017 17:0014310/25/2017 17:00563/20/2017 22:001.100000023841910/25/2017 17:0068.610/25/2017 17:0019.43/20/2017 22:0025.83/20/2017 22:0055.33/20/2017 21:000.0
10/25/2017 18:0024.510/25/2017 18:00994.310/25/2017 18:00910/25/2017 18:00623/20/2017 21:001.899999976158110/25/2017 18:0073.010/25/2017 18:0019.43/20/2017 21:0026.13/20/2017 21:0055.33/20/2017 20:000.0
10/25/2017 19:0024.010/25/2017 19:00994.810/25/2017 19:00010/25/2017 19:00573/20/2017 20:001.799999952316310/25/2017 19:0074.910/25/2017 19:0019.33/20/2017 20:0026.73/20/2017 20:0055.33/20/2017 19:000.0
10/25/2017 20:0024.010/25/2017 20:00995.610/25/2017 20:00010/25/2017 20:00573/20/2017 19:002.400000095367410/25/2017 20:0072.410/25/2017 20:0018.83/20/2017 19:0027.73/20/2017 19:0055.33/20/2017 18:000.0
10/25/2017 21:0023.810/25/2017 21:00996.010/25/2017 21:00010/25/2017 21:00443/20/2017 18:00210/25/2017 21:0071.810/25/2017 21:0018.53/20/2017 18:0028.83/20/2017 18:0055.33/20/2017 17:000.0
10/25/2017 22:0023.610/25/2017 22:00996.110/25/2017 22:00010/25/2017 22:00483/20/2017 17:00310/25/2017 22:0070.710/25/2017 22:0018.03/20/2017 17:0028.93/20/2017 17:0055.33/20/2017 16:000.0
10/25/2017 23:0023.510/25/2017 23:00996.010/25/2017 23:00010/25/2017 23:00513/20/2017 16:003.200000047683710/25/2017 23:0070.910/25/2017 23:0018.03/20/2017 16:0028.23/20/2017 16:0055.33/20/2017 15:002.6
10/26/2017 0:0023.110/26/2017 0:00995.710/26/2017 0:00010/26/2017 0:00743/20/2017 15:002.799999952316310/26/2017 0:0072.810/26/2017 0:0018.03/20/2017 15:0029.33/20/2017 15:0055.33/20/2017 14:000.0
10/26/2017 1:0023.110/26/2017 1:00995.210/26/2017 1:00010/26/2017 1:00603/20/2017 14:002.400000095367410/26/2017 1:0072.310/26/2017 1:0017.93/20/2017 14:0033.43/20/2017 14:0055.33/20/2017 13:000.0
10/26/2017 2:0023.310/26/2017 2:00994.610/26/2017 2:00010/26/2017 2:00743/20/2017 13:00210/26/2017 2:0072.410/26/2017 2:0018.13/20/2017 13:0033.23/20/2017 13:0055.33/20/2017 12:000.0
10/26/2017 3:0022.510/26/2017 3:00994.210/26/2017 3:00010/26/2017 3:00503/20/2017 12:001.799999952316310/26/2017 3:0076.510/26/2017 3:0018.23/20/2017 12:0032.73/20/2017 12:0055.33/20/2017 11:000.0
10/26/2017 4:0023.610/26/2017 4:00994.110/26/2017 4:00010/26/2017 4:00953/20/2017 11:001.100000023841910/26/2017 4:0070.710/26/2017 4:0018.03/20/2017 11:0031.53/20/2017 11:0055.33/20/2017 10:000.0
10/26/2017 5:0023.110/26/2017 5:00994.110/26/2017 5:00010/26/2017 5:00903/20/2017 10:001.200000047683710/26/2017 5:0073.410/26/2017 5:0018.23/20/2017 10:0030.23/20/2017 10:0055.33/20/2017 9:000.0
10/26/2017 6:0023.110/26/2017 6:00994.410/26/2017 6:00010/26/2017 6:00373/20/2017 9:000.8000000119209310/26/2017 6:0075.110/26/2017 6:0018.53/20/2017 9:0028.73/20/2017 9:0055.33/20/2017 8:000.0
10/26/2017 7:0024.210/26/2017 7:00994.910/26/2017 7:007510/26/2017 7:00743/20/2017 8:001.399999976158110/26/2017 7:0072.510/26/2017 7:0019.03/20/2017 8:0026.83/20/2017 8:0055.33/20/2017 7:000.0
10/26/2017 8:0025.110/26/2017 8:00995.310/26/2017 8:0025110/26/2017 8:00683/20/2017 7:000.8999999761581410/26/2017 8:0069.910/26/2017 8:0019.33/20/2017 7:0025.63/20/2017 7:0055.33/20/2017 6:000.0
10/26/2017 9:0026.010/26/2017 9:00995.610/26/2017 9:0052310/26/2017 9:00603/20/2017 6:000.8000000119209310/26/2017 9:0063.710/26/2017 9:0018.73/20/2017 6:0025.63/20/2017 6:0055.33/20/2017 5:000.0
10/26/2017 10:0027.110/26/2017 10:00995.810/26/2017 10:0071210/26/2017 10:00433/20/2017 5:001.100000023841910/26/2017 10:0059.110/26/2017 10:0018.53/20/2017 5:0025.63/20/2017 5:0055.33/20/2017 4:000.0
10/26/2017 11:0028.310/26/2017 11:00994.810/26/2017 11:0084310/26/2017 11:00473/20/2017 4:00110/26/2017 11:0054.510/26/2017 11:0018.33/20/2017 4:0026.03/20/2017 4:0055.33/20/2017 3:000.0
10/26/2017 12:0029.010/26/2017 12:00993.710/26/2017 12:0092110/26/2017 12:00453/20/2017 3:000.6999999880790710/26/2017 12:0053.610/26/2017 12:0018.73/20/2017 3:0026.23/20/2017 3:0055.33/20/2017 2:000.0
10/26/2017 13:0029.410/26/2017 13:00992.810/26/2017 13:0089610/26/2017 13:00433/20/2017 2:000.6999999880790710/26/2017 13:0052.910/26/2017 13:0018.93/20/2017 2:0026.33/20/2017 2:0055.33/20/2017 1:000.0
10/26/2017 14:0029.910/26/2017 14:00991.810/26/2017 14:0057410/26/2017 14:00333/20/2017 1:000.8999999761581410/26/2017 14:0051.110/26/2017 14:0018.83/20/2017 1:0026.43/20/2017 1:0055.33/20/2017 0:000.0
10/26/2017 15:0029.310/26/2017 15:00991.310/26/2017 15:0044310/26/2017 15:00493/20/2017 0:001.299999952316310/26/2017 15:0053.810/26/2017 15:0019.03/20/2017 0:0026.73/20/2017 0:0055.33/19/2017 23:000.0
10/26/2017 16:0031.010/26/2017 16:00994.210/26/2017 16:0042310/26/2017 16:00303/19/2017 23:001.100000023841910/26/2017 16:0050.010/26/2017 16:0019.43/19/2017 23:0027.33/19/2017 23:0055.33/19/2017 22:000.0
10/26/2017 17:0027.210/26/2017 17:00991.810/26/2017 17:0012910/26/2017 17:00643/19/2017 22:000.8000000119209310/26/2017 17:0062.610/26/2017 17:0019.53/19/2017 22:0027.43/19/2017 22:0055.33/19/2017 21:000.0
10/26/2017 18:0025.810/26/2017 18:00992.510/26/2017 18:00610/26/2017 18:00633/19/2017 21:001.200000047683710/26/2017 18:0065.810/26/2017 18:0019.03/19/2017 21:0028.33/19/2017 21:0055.33/19/2017 20:000.0
10/26/2017 19:0024.910/26/2017 19:00993.210/26/2017 19:00010/26/2017 19:00653/19/2017 20:000.8999999761581410/26/2017 19:0068.610/26/2017 19:0018.83/19/2017 20:0029.23/19/2017 20:0055.33/19/2017 19:000.0
11/8/2017 17:0023.411/8/2017 17:00990.911/8/2017 17:006311/8/2017 17:00843/19/2017 19:000.8000000119209311/8/2017 17:0071.311/8/2017 17:0018.03/19/2017 19:0030.73/19/2017 19:0055.33/19/2017 18:000.0
11/8/2017 18:0022.911/8/2017 18:00991.111/8/2017 18:00511/8/2017 18:00773/19/2017 18:000.6999999880790711/8/2017 18:0072.811/8/2017 18:0017.83/19/2017 18:0031.73/19/2017 18:0055.33/19/2017 17:000.0
11/8/2017 19:0022.811/8/2017 19:00991.511/8/2017 19:00011/8/2017 19:00833/19/2017 17:000.8000000119209311/8/2017 19:0073.411/8/2017 19:0017.93/19/2017 17:0031.73/19/2017 17:0055.33/19/2017 16:000.0
11/8/2017 20:0022.811/8/2017 20:00992.211/8/2017 20:00011/8/2017 20:00743/19/2017 16:001.399999976158111/8/2017 20:0073.411/8/2017 20:0017.93/19/2017 16:0032.53/19/2017 16:0055.33/19/2017 15:000.0
11/8/2017 21:0022.911/8/2017 21:00992.911/8/2017 21:00011/8/2017 21:00823/19/2017 15:001.899999976158111/8/2017 21:0073.511/8/2017 21:0018.03/19/2017 15:0032.53/19/2017 15:0055.33/19/2017 14:000.0
11/8/2017 22:0022.911/8/2017 22:00992.611/8/2017 22:00011/8/2017 22:00863/19/2017 14:001.200000047683711/8/2017 22:0074.011/8/2017 22:0018.13/19/2017 14:0031.73/19/2017 14:0055.33/19/2017 13:000.0
11/8/2017 23:0023.011/8/2017 23:00992.311/8/2017 23:00011/8/2017 23:00803/19/2017 13:001.299999952316311/8/2017 23:0074.011/8/2017 23:0018.23/19/2017 13:0030.43/19/2017 13:0055.33/19/2017 12:000.0
11/9/2017 0:0023.011/9/2017 0:00992.211/9/2017 0:00011/9/2017 0:00783/19/2017 12:00111/9/2017 0:0074.911/9/2017 0:0018.43/19/2017 12:0028.73/19/2017 12:0055.33/19/2017 11:000.0
11/9/2017 1:0022.911/9/2017 1:00991.611/9/2017 1:00011/9/2017 1:00803/19/2017 11:000.8999999761581411/9/2017 1:0075.811/9/2017 1:0018.53/19/2017 11:0027.23/19/2017 11:0055.33/19/2017 10:001.7
11/9/2017 2:0022.911/9/2017 2:00991.011/9/2017 2:00011/9/2017 2:00803/19/2017 10:001.100000023841911/9/2017 2:0076.011/9/2017 2:0018.53/19/2017 10:0026.83/19/2017 10:0055.33/19/2017 9:000.0
11/9/2017 3:0022.911/9/2017 3:00991.011/9/2017 3:00011/9/2017 3:00763/19/2017 9:00111/9/2017 3:0077.211/9/2017 3:0018.83/19/2017 9:0025.83/19/2017 9:0055.33/19/2017 8:001.0
11/9/2017 4:0022.811/9/2017 4:00991.011/9/2017 4:00011/9/2017 4:00723/19/2017 8:001.511/9/2017 4:0078.111/9/2017 4:0018.93/19/2017 8:0024.93/19/2017 8:0055.33/19/2017 7:000.0
11/9/2017 5:0022.711/9/2017 5:00990.811/9/2017 5:00011/9/2017 5:00903/19/2017 7:000.8999999761581411/9/2017 5:0078.411/9/2017 5:0018.83/19/2017 7:0025.03/19/2017 7:0055.33/19/2017 6:000.1
11/9/2017 6:0022.911/9/2017 6:00991.311/9/2017 6:00011/9/2017 6:00853/19/2017 6:00111/9/2017 6:0077.511/9/2017 6:0018.83/19/2017 6:0025.13/19/2017 6:0055.33/19/2017 5:000.2
11/9/2017 7:0023.211/9/2017 7:00991.711/9/2017 7:003011/9/2017 7:001023/19/2017 5:001.100000023841911/9/2017 7:0076.911/9/2017 7:0019.03/19/2017 5:0025.33/19/2017 5:0055.33/19/2017 4:000.0
11/9/2017 8:0024.011/9/2017 8:00992.111/9/2017 8:0012211/9/2017 8:00893/19/2017 4:001.399999976158111/9/2017 8:0074.811/9/2017 8:0019.33/19/2017 4:0025.23/19/2017 4:0055.33/19/2017 3:000.1
11/9/2017 9:0024.711/9/2017 9:00992.811/9/2017 9:0020411/9/2017 9:00783/19/2017 3:000.8000000119209311/9/2017 9:0072.011/9/2017 9:0019.43/19/2017 3:0025.13/19/2017 3:0055.33/19/2017 2:000.0
11/9/2017 10:0025.211/9/2017 10:00993.011/9/2017 10:0027311/9/2017 10:00703/19/2017 2:000.8000000119209311/9/2017 10:0071.411/9/2017 10:0019.73/19/2017 2:0025.23/19/2017 2:0055.33/19/2017 1:001.1
11/9/2017 11:0025.311/9/2017 11:00992.611/9/2017 11:0028211/9/2017 11:00823/19/2017 1:001.511/9/2017 11:0071.211/9/2017 11:0019.83/19/2017 1:0025.53/19/2017 1:0055.33/19/2017 0:003.2
11/9/2017 12:0026.611/9/2017 12:00991.611/9/2017 12:0054711/9/2017 12:00733/19/2017 0:001.899999976158111/9/2017 12:0067.111/9/2017 12:0020.13/19/2017 0:0026.03/19/2017 0:0055.33/18/2017 23:002.6
11/9/2017 13:0027.011/9/2017 13:00990.711/9/2017 13:0048311/9/2017 13:00813/18/2017 23:002.200000047683711/9/2017 13:0065.311/9/2017 13:0020.03/18/2017 23:0026.73/18/2017 23:0055.33/18/2017 22:000.0
11/9/2017 14:0026.411/9/2017 14:00990.011/9/2017 14:0030411/9/2017 14:00673/18/2017 22:001.600000023841911/9/2017 14:0067.311/9/2017 14:0019.93/18/2017 22:0027.73/18/2017 22:0055.33/18/2017 21:000.0
11/9/2017 15:0025.611/9/2017 15:00989.811/9/2017 15:0022311/9/2017 15:00543/18/2017 21:002.400000095367411/9/2017 15:0070.311/9/2017 15:0019.93/18/2017 21:0028.63/18/2017 21:0055.33/18/2017 20:000.0
11/9/2017 16:0025.311/9/2017 16:00989.811/9/2017 16:0017011/9/2017 16:00603/18/2017 20:002.799999952316311/9/2017 16:0071.211/9/2017 16:0019.83/18/2017 20:0028.63/18/2017 20:0055.33/18/2017 19:000.0
11/9/2017 17:0024.511/9/2017 17:00990.111/9/2017 17:005511/9/2017 17:00523/18/2017 19:002.599999904632611/9/2017 17:0074.111/9/2017 17:0019.73/18/2017 19:0031.53/18/2017 19:0055.33/18/2017 18:000.0
11/9/2017 18:0024.011/9/2017 18:00990.511/9/2017 18:00311/9/2017 18:00453/18/2017 18:001.100000023841911/9/2017 18:0076.411/9/2017 18:0019.73/18/2017 18:0033.43/18/2017 18:0055.33/18/2017 17:000.0
11/9/2017 19:0023.911/9/2017 19:00991.211/9/2017 19:00011/9/2017 19:00413/18/2017 17:001.200000047683711/9/2017 19:0077.311/9/2017 19:0019.83/18/2017 17:0034.13/18/2017 17:0055.33/18/2017 16:000.0
11/9/2017 20:0023.711/9/2017 20:00991.811/9/2017 20:00011/9/2017 20:00673/18/2017 16:000.8999999761581411/9/2017 20:0078.111/9/2017 20:0019.73/18/2017 16:0034.23/18/2017 16:0055.33/18/2017 15:000.0
11/9/2017 21:0023.611/9/2017 21:00992.211/9/2017 21:00011/9/2017 21:00683/18/2017 15:002.511/9/2017 21:0078.111/9/2017 21:0019.63/18/2017 15:0034.13/18/2017 15:0055.33/18/2017 14:000.0
11/9/2017 22:0023.611/9/2017 22:00992.411/9/2017 22:00011/9/2017 22:00533/18/2017 14:003.099999904632611/9/2017 22:0078.411/9/2017 22:0019.73/18/2017 14:0033.73/18/2017 14:0055.33/18/2017 13:000.0
11/9/2017 23:0023.311/9/2017 23:00992.411/9/2017 23:00011/9/2017 23:00753/18/2017 13:001.700000047683711/9/2017 23:0079.811/9/2017 23:0019.73/18/2017 13:0033.73/18/2017 13:0055.33/18/2017 12:000.0
11/10/2017 0:0023.111/10/2017 0:00992.311/10/2017 0:00011/10/2017 0:00553/18/2017 12:001.200000047683711/10/2017 0:0081.311/10/2017 0:0019.83/18/2017 12:0032.93/18/2017 12:0055.33/18/2017 11:000.0
11/10/2017 1:0022.611/10/2017 1:00992.011/10/2017 1:00011/10/2017 1:002403/18/2017 11:001.600000023841911/10/2017 1:0085.111/10/2017 1:0020.03/18/2017 11:0031.93/18/2017 11:0055.33/18/2017 10:000.0
11/10/2017 2:0022.611/10/2017 2:00991.711/10/2017 2:00011/10/2017 2:00223/18/2017 10:001.399999976158111/10/2017 2:0084.511/10/2017 2:0019.93/18/2017 10:0030.13/18/2017 10:0055.33/18/2017 9:000.0
11/10/2017 3:0023.511/10/2017 3:00991.111/10/2017 3:00011/10/2017 3:00313/18/2017 9:000.8999999761581411/10/2017 3:0079.811/10/2017 3:0019.93/18/2017 9:0027.93/18/2017 9:0055.33/18/2017 8:000.0
11/10/2017 4:0023.311/10/2017 4:00990.911/10/2017 4:00011/10/2017 4:00253/18/2017 8:000.6000000238418611/10/2017 4:0081.111/10/2017 4:0019.93/18/2017 8:0025.63/18/2017 8:0055.33/18/2017 7:000.0
11/10/2017 5:0023.511/10/2017 5:00990.811/10/2017 5:00011/10/2017 5:00323/18/2017 7:000.4000000059604611/10/2017 5:0080.011/10/2017 5:0019.93/18/2017 7:0024.73/18/2017 7:0055.33/18/2017 6:000.0
11/10/2017 6:0023.711/10/2017 6:00991.411/10/2017 6:00011/10/2017 6:00263/18/2017 6:000.6999999880790711/10/2017 6:0079.211/10/2017 6:0020.03/18/2017 6:0024.83/18/2017 6:0055.33/18/2017 5:000.0
11/10/2017 7:0024.211/10/2017 7:00992.011/10/2017 7:005611/10/2017 7:00333/18/2017 5:000.8000000119209311/10/2017 7:0077.511/10/2017 7:0020.13/18/2017 5:0025.33/18/2017 5:0055.33/18/2017 4:000.0
11/10/2017 8:0025.011/10/2017 8:00992.411/10/2017 8:0015011/10/2017 8:00413/18/2017 4:001.600000023841911/10/2017 8:0074.611/10/2017 8:0020.23/18/2017 4:0025.63/18/2017 4:0055.33/18/2017 3:000.0
11/10/2017 9:0025.511/10/2017 9:00993.011/10/2017 9:0020811/10/2017 9:00453/18/2017 3:000.8999999761581411/10/2017 9:0072.811/10/2017 9:0020.33/18/2017 3:0026.13/18/2017 3:0055.33/18/2017 2:000.0
11/10/2017 10:0026.611/10/2017 10:00992.811/10/2017 10:0043411/10/2017 10:00433/18/2017 2:000.6000000238418611/10/2017 10:0068.811/10/2017 10:0020.53/18/2017 2:0026.53/18/2017 2:0055.33/18/2017 1:000.0
11/10/2017 11:0026.911/10/2017 11:00992.411/10/2017 11:0036311/10/2017 11:00433/18/2017 1:00111/10/2017 11:0067.611/10/2017 11:0020.53/18/2017 1:0027.43/18/2017 1:0055.33/18/2017 0:000.0
11/10/2017 12:0027.111/10/2017 12:00991.411/10/2017 12:0041511/10/2017 12:00353/18/2017 0:000.6000000238418611/10/2017 12:0067.011/10/2017 12:0020.53/18/2017 0:0027.63/18/2017 0:0055.33/17/2017 23:000.0
11/10/2017 13:0028.211/10/2017 13:00990.411/10/2017 13:0055311/10/2017 13:00453/17/2017 23:001.200000047683711/10/2017 13:0062.411/10/2017 13:0020.43/17/2017 23:0028.63/17/2017 23:0055.33/17/2017 22:000.0
11/10/2017 14:0028.811/10/2017 14:00989.511/10/2017 14:0047811/10/2017 14:00513/17/2017 22:001.100000023841911/10/2017 14:0060.811/10/2017 14:0020.63/17/2017 22:0028.73/17/2017 22:0055.33/17/2017 21:000.0
11/10/2017 15:0028.111/10/2017 15:00989.311/10/2017 15:0019511/10/2017 15:00443/17/2017 21:001.100000023841911/10/2017 15:0063.411/10/2017 15:0020.63/17/2017 21:0029.43/17/2017 21:0055.33/17/2017 20:000.0
11/10/2017 16:0027.911/10/2017 16:00989.411/10/2017 16:0022611/10/2017 16:00383/17/2017 20:001.299999952316311/10/2017 16:0064.611/10/2017 16:0020.73/17/2017 20:0029.63/17/2017 20:0055.33/17/2017 19:000.0
11/10/2017 17:0027.111/10/2017 17:00989.611/10/2017 17:0010211/10/2017 17:00283/17/2017 19:000.6999999880790711/10/2017 17:0067.311/10/2017 17:0020.63/17/2017 19:0030.03/17/2017 19:0055.33/17/2017 18:000.0
11/10/2017 18:0026.011/10/2017 18:00990.111/10/2017 18:00411/10/2017 18:00333/17/2017 18:000.6999999880790711/10/2017 18:0071.111/10/2017 18:0020.43/17/2017 18:0031.43/17/2017 18:0055.33/17/2017 17:000.0
11/10/2017 19:0025.411/10/2017 19:00990.911/10/2017 19:00011/10/2017 19:00423/17/2017 17:000.8000000119209311/10/2017 19:0074.011/10/2017 19:0020.53/17/2017 17:0032.23/17/2017 17:0055.33/17/2017 16:000.0
11/10/2017 20:0024.611/10/2017 20:00991.611/10/2017 20:00011/10/2017 20:00363/17/2017 16:001.399999976158111/10/2017 20:0077.111/10/2017 20:0020.43/17/2017 16:0032.13/17/2017 16:0055.33/17/2017 15:000.0
11/10/2017 21:0024.511/10/2017 21:00992.311/10/2017 21:00011/10/2017 21:00383/17/2017 15:001.600000023841911/10/2017 21:0076.311/10/2017 21:0020.13/17/2017 15:0031.43/17/2017 15:0055.33/17/2017 14:000.0
11/10/2017 22:0023.811/10/2017 22:00992.711/10/2017 22:00011/10/2017 22:00933/17/2017 14:001.799999952316311/10/2017 22:0079.311/10/2017 22:0020.13/17/2017 14:0031.23/17/2017 14:0055.33/17/2017 13:000.0
11/10/2017 23:0023.611/10/2017 23:00992.611/10/2017 23:00011/10/2017 23:00933/17/2017 13:001.600000023841911/10/2017 23:0079.811/10/2017 23:0020.03/17/2017 13:0031.23/17/2017 13:0055.33/17/2017 12:000.0
11/11/2017 0:0022.011/11/2017 0:00992.411/11/2017 0:00011/11/2017 0:002143/17/2017 12:001.399999976158111/11/2017 0:0088.311/11/2017 0:0020.03/17/2017 12:0030.73/17/2017 12:0055.33/17/2017 11:000.0
11/11/2017 1:0022.111/11/2017 1:00992.211/11/2017 1:00011/11/2017 1:002773/17/2017 11:001.399999976158111/11/2017 1:0089.411/11/2017 1:0020.33/17/2017 11:0029.73/17/2017 11:0055.33/17/2017 10:000.0
11/11/2017 2:0022.411/11/2017 2:00991.711/11/2017 2:00011/11/2017 2:003053/17/2017 10:000.8000000119209311/11/2017 2:0088.611/11/2017 2:0020.53/17/2017 10:0027.43/17/2017 10:0055.33/17/2017 9:000.0
11/11/2017 3:0023.511/11/2017 3:00991.311/11/2017 3:00011/11/2017 3:00973/17/2017 9:000.6000000238418611/11/2017 3:0082.111/11/2017 3:0020.33/17/2017 9:0026.33/17/2017 9:0055.33/17/2017 8:000.0
11/11/2017 4:0024.311/11/2017 4:00991.011/11/2017 4:00011/11/2017 4:00663/17/2017 8:000.6000000238418611/11/2017 4:0076.211/11/2017 4:0019.93/17/2017 8:0025.73/17/2017 8:0055.33/17/2017 7:000.0
11/11/2017 5:0023.911/11/2017 5:00990.811/11/2017 5:00011/11/2017 5:00123/17/2017 7:000.6000000238418611/11/2017 5:0076.911/11/2017 5:0019.73/17/2017 7:0025.33/17/2017 7:0055.33/17/2017 6:000.0
11/11/2017 6:0023.911/11/2017 6:00991.111/11/2017 6:00011/11/2017 6:00233/17/2017 6:00111/11/2017 6:0076.511/11/2017 6:0019.63/17/2017 6:0025.33/17/2017 6:0055.33/17/2017 5:000.4
11/11/2017 7:0023.711/11/2017 7:00991.611/11/2017 7:003511/11/2017 7:00413/17/2017 5:00111/11/2017 7:0077.111/11/2017 7:0019.53/17/2017 5:0025.43/17/2017 5:0055.33/17/2017 4:000.5
11/11/2017 8:0024.911/11/2017 8:00992.311/11/2017 8:008711/11/2017 8:00543/17/2017 4:000.6999999880790711/11/2017 8:0072.511/11/2017 8:0019.73/17/2017 4:0025.53/17/2017 4:0055.33/17/2017 3:000.0
11/11/2017 9:0025.611/11/2017 9:00992.811/11/2017 9:0024611/11/2017 9:00523/17/2017 3:000.6999999880790711/11/2017 9:0070.511/11/2017 9:0019.93/17/2017 3:0025.63/17/2017 3:0055.33/17/2017 2:000.0
11/11/2017 10:0026.311/11/2017 10:00992.911/11/2017 10:0034711/11/2017 10:00593/17/2017 2:000.6999999880790711/11/2017 10:0068.411/11/2017 10:0020.13/17/2017 2:0025.63/17/2017 2:0055.33/17/2017 1:000.0
11/11/2017 11:0026.311/11/2017 11:00992.711/11/2017 11:0025511/11/2017 11:00493/17/2017 1:000.6999999880790711/11/2017 11:0069.211/11/2017 11:0020.33/17/2017 1:0025.83/17/2017 1:0055.33/17/2017 0:000.0
11/11/2017 12:0026.711/11/2017 12:00992.011/11/2017 12:0034611/11/2017 12:00563/17/2017 0:00111/11/2017 12:0068.111/11/2017 12:0020.43/17/2017 0:0026.03/17/2017 0:0055.33/16/2017 23:000.0
11/11/2017 13:0027.211/11/2017 13:00990.811/11/2017 13:0049611/11/2017 13:00523/16/2017 23:001.799999952316311/11/2017 13:0065.811/11/2017 13:0020.33/16/2017 23:0026.23/16/2017 23:0055.33/16/2017 22:000.0
11/11/2017 14:0027.811/11/2017 14:00990.011/11/2017 14:0048011/11/2017 14:00473/16/2017 22:002.299999952316311/11/2017 14:0063.911/11/2017 14:0020.43/16/2017 22:0026.93/16/2017 22:0055.33/16/2017 21:000.1
11/11/2017 15:0027.311/11/2017 15:00989.711/11/2017 15:0017811/11/2017 15:00463/16/2017 21:002.511/11/2017 15:0066.011/11/2017 15:0020.53/16/2017 21:0028.13/16/2017 21:0055.33/16/2017 20:000.2
11/11/2017 16:0025.811/11/2017 16:00989.811/11/2017 16:0013111/11/2017 16:00473/16/2017 20:00111/11/2017 16:0071.811/11/2017 16:0020.43/16/2017 20:0028.13/16/2017 20:0055.33/16/2017 19:000.2
11/11/2017 17:0025.811/11/2017 17:00989.611/11/2017 17:006711/11/2017 17:00403/16/2017 19:001.100000023841911/11/2017 17:0071.911/11/2017 17:0020.43/16/2017 19:0028.33/16/2017 19:0055.33/16/2017 18:000.8
11/11/2017 18:0024.911/11/2017 18:00989.811/11/2017 18:00611/11/2017 18:00333/16/2017 18:00111/11/2017 18:0076.211/11/2017 18:0020.53/16/2017 18:0029.03/16/2017 18:0055.33/16/2017 17:000.6
11/11/2017 19:0024.311/11/2017 19:00990.311/11/2017 19:00011/11/2017 19:00353/16/2017 17:00111/11/2017 19:0076.911/11/2017 19:0020.13/16/2017 17:0031.33/16/2017 17:0055.33/16/2017 16:000.0
11/11/2017 20:0023.911/11/2017 20:00991.011/11/2017 20:00011/11/2017 20:00633/16/2017 16:001.511/11/2017 20:0077.311/11/2017 20:0019.83/16/2017 16:0032.43/16/2017 16:0055.33/16/2017 15:000.0
11/11/2017 21:0022.711/11/2017 21:00991.511/11/2017 21:00011/11/2017 21:00193/16/2017 15:001.511/11/2017 21:0082.711/11/2017 21:0019.73/16/2017 15:0032.73/16/2017 15:0055.33/16/2017 14:000.0
11/11/2017 22:0021.711/11/2017 22:00991.911/11/2017 22:00011/11/2017 22:001713/16/2017 14:001.399999976158111/11/2017 22:0088.211/11/2017 22:0019.73/16/2017 14:0032.13/16/2017 14:0055.33/16/2017 13:000.0
11/11/2017 23:0020.811/11/2017 23:00991.811/11/2017 23:00011/11/2017 23:002453/16/2017 13:001.100000023841911/11/2017 23:0091.811/11/2017 23:0019.53/16/2017 13:0031.43/16/2017 13:0055.33/16/2017 12:000.0
11/12/2017 0:0020.311/12/2017 0:00991.311/12/2017 0:00011/12/2017 0:002813/16/2017 12:001.100000023841911/12/2017 0:0093.711/12/2017 0:0019.33/16/2017 12:0030.73/16/2017 12:0055.33/16/2017 11:000.0
11/12/2017 1:0019.911/12/2017 1:00990.711/12/2017 1:00011/12/2017 1:002173/16/2017 11:001.299999952316311/12/2017 1:0094.811/12/2017 1:0019.13/16/2017 11:0029.93/16/2017 11:0055.33/16/2017 10:000.0
11/12/2017 2:0019.611/12/2017 2:00990.511/12/2017 2:00011/12/2017 2:001353/16/2017 10:001.700000047683711/12/2017 2:0095.411/12/2017 2:0018.93/16/2017 10:0029.33/16/2017 10:0055.33/16/2017 9:000.0
11/12/2017 3:0019.611/12/2017 3:00990.211/12/2017 3:00011/12/2017 3:002483/16/2017 9:001.200000047683711/12/2017 3:0095.911/12/2017 3:0019.03/16/2017 9:0028.53/16/2017 9:0055.33/16/2017 8:000.0
11/12/2017 4:0019.311/12/2017 4:00990.011/12/2017 4:00011/12/2017 4:002363/16/2017 8:000.8000000119209311/12/2017 4:0096.011/12/2017 4:0018.73/16/2017 8:0026.93/16/2017 8:0055.33/16/2017 7:000.7
11/12/2017 5:0019.011/12/2017 5:00990.011/12/2017 5:00011/12/2017 5:003393/16/2017 7:00111/12/2017 5:0096.511/12/2017 5:0018.53/16/2017 7:0025.63/16/2017 7:0055.33/16/2017 6:000.0
11/12/2017 6:0018.911/12/2017 6:00990.311/12/2017 6:00011/12/2017 6:002333/16/2017 6:001.100000023841911/12/2017 6:0096.711/12/2017 6:0018.43/16/2017 6:0025.33/16/2017 6:0055.33/16/2017 5:000.0
11/12/2017 7:0019.611/12/2017 7:00990.611/12/2017 7:005911/12/2017 7:002593/16/2017 5:00111/12/2017 7:0096.311/12/2017 7:0019.13/16/2017 5:0025.93/16/2017 5:0055.33/16/2017 4:000.0
11/12/2017 8:0023.911/12/2017 8:00990.711/12/2017 8:0025611/12/2017 8:003083/16/2017 4:001.100000023841911/12/2017 8:0081.611/12/2017 8:0020.63/16/2017 4:0026.13/16/2017 4:0055.33/16/2017 3:000.0
11/12/2017 9:0026.711/12/2017 9:00991.011/12/2017 9:0049211/12/2017 9:00363/16/2017 3:000.8000000119209311/12/2017 9:0066.711/12/2017 9:0020.13/16/2017 3:0026.63/16/2017 3:0055.33/16/2017 2:000.0
11/12/2017 10:0027.711/12/2017 10:00991.111/12/2017 10:0068111/12/2017 10:00443/16/2017 2:00111/12/2017 10:0062.211/12/2017 10:0019.93/16/2017 2:0027.03/16/2017 2:0055.33/16/2017 1:000.0
11/12/2017 11:0028.711/12/2017 11:00990.611/12/2017 11:0080211/12/2017 11:00393/16/2017 1:00111/12/2017 11:0059.011/12/2017 11:0020.03/16/2017 1:0027.33/16/2017 1:0055.33/16/2017 0:000.0
11/12/2017 12:0029.211/12/2017 12:00989.711/12/2017 12:0085211/12/2017 12:00443/16/2017 0:001.511/12/2017 12:0056.111/12/2017 12:0019.63/16/2017 0:0027.63/16/2017 0:0055.33/15/2017 23:000.0
11/12/2017 13:0029.711/12/2017 13:00988.711/12/2017 13:0083411/12/2017 13:00443/15/2017 23:001.100000023841911/12/2017 13:0054.311/12/2017 13:0019.63/15/2017 23:0027.93/15/2017 23:0055.33/15/2017 22:000.0
11/12/2017 14:0030.211/12/2017 14:00987.811/12/2017 14:0072511/12/2017 14:00423/15/2017 22:001.899999976158111/12/2017 14:0053.211/12/2017 14:0019.73/15/2017 22:0028.43/15/2017 22:0055.33/15/2017 21:000.0
11/12/2017 15:0030.111/12/2017 15:00987.111/12/2017 15:0054811/12/2017 15:00473/15/2017 21:001.899999976158111/12/2017 15:0053.211/12/2017 15:0019.63/15/2017 21:0028.83/15/2017 21:0055.33/15/2017 20:000.0
11/12/2017 16:0029.711/12/2017 16:00987.011/12/2017 16:0034611/12/2017 16:00543/15/2017 20:002.099999904632611/12/2017 16:0054.511/12/2017 16:0019.63/15/2017 20:0029.43/15/2017 20:0055.33/15/2017 19:000.0
11/12/2017 17:0028.511/12/2017 17:00987.511/12/2017 17:0012511/12/2017 17:00623/15/2017 19:003.099999904632611/12/2017 17:0058.211/12/2017 17:0019.63/15/2017 19:0030.43/15/2017 19:0055.33/15/2017 18:000.0
11/12/2017 18:0026.911/12/2017 18:00988.011/12/2017 18:00711/12/2017 18:00583/15/2017 18:003.400000095367411/12/2017 18:0063.611/12/2017 18:0019.53/15/2017 18:0031.83/15/2017 18:0055.33/15/2017 17:000.0
11/12/2017 19:0025.911/12/2017 19:00988.811/12/2017 19:00011/12/2017 19:00693/15/2017 17:003.700000047683711/12/2017 19:0067.411/12/2017 19:0019.53/15/2017 17:0033.03/15/2017 17:0055.33/15/2017 16:000.0
11/12/2017 20:0025.411/12/2017 20:00989.711/12/2017 20:00011/12/2017 20:00653/15/2017 16:002.700000047683711/12/2017 20:0070.511/12/2017 20:0019.73/15/2017 16:0033.53/15/2017 16:0055.33/15/2017 15:000.0
11/12/2017 21:0025.111/12/2017 21:00990.311/12/2017 21:00011/12/2017 21:00653/15/2017 15:002.599999904632611/12/2017 21:0071.411/12/2017 21:0019.63/15/2017 15:0033.03/15/2017 15:0055.32/27/2017 13:000.0
11/12/2017 22:0025.111/12/2017 22:00990.311/12/2017 22:00011/12/2017 22:00622/27/2017 13:007.900000095367411/12/2017 22:0070.711/12/2017 22:0019.52/27/2017 13:0021.32/27/2017 13:0055.32/27/2017 12:000.0
11/12/2017 23:0024.911/12/2017 23:00990.311/12/2017 23:00011/12/2017 23:00582/27/2017 12:007.900000095367411/12/2017 23:0070.311/12/2017 23:0019.22/27/2017 12:0021.02/27/2017 12:0055.32/27/2017 11:000.0
11/13/2017 0:0024.111/13/2017 0:00990.011/13/2017 0:00011/13/2017 0:0022/27/2017 11:007.099999904632611/13/2017 0:0073.511/13/2017 0:0019.12/27/2017 11:0020.92/27/2017 11:0055.32/27/2017 10:000.0
11/13/2017 1:0023.811/13/2017 1:00989.711/13/2017 1:00011/13/2017 1:00962/27/2017 10:007.800000190734911/13/2017 1:0074.811/13/2017 1:0019.12/27/2017 10:0020.02/27/2017 10:0055.32/27/2017 9:000.0
11/13/2017 2:0022.711/13/2017 2:00989.111/13/2017 2:00011/13/2017 2:002552/27/2017 9:007.400000095367411/13/2017 2:0080.111/13/2017 2:0019.22/27/2017 9:0019.12/27/2017 9:0055.32/27/2017 8:000.0
11/13/2017 3:0021.911/13/2017 3:00988.511/13/2017 3:00011/13/2017 3:00772/27/2017 8:006.511/13/2017 3:0083.311/13/2017 3:0019.02/27/2017 8:0018.62/27/2017 8:0055.32/27/2017 7:000.0
11/13/2017 4:0021.811/13/2017 4:00988.411/13/2017 4:00011/13/2017 4:001812/27/2017 7:006.400000095367411/13/2017 4:0083.311/13/2017 4:0018.92/27/2017 7:0018.22/27/2017 7:0055.32/27/2017 6:000.0
11/13/2017 5:0020.311/13/2017 5:00988.611/13/2017 5:00011/13/2017 5:001922/27/2017 6:006.900000095367411/13/2017 5:0090.011/13/2017 5:0018.72/27/2017 6:0018.12/27/2017 6:0055.32/27/2017 5:000.0
11/13/2017 6:0021.411/13/2017 6:00989.011/13/2017 6:00011/13/2017 6:001052/27/2017 5:006.800000190734911/13/2017 6:0084.311/13/2017 6:0018.72/27/2017 5:0018.22/27/2017 5:0055.32/27/2017 4:000.0
11/13/2017 7:0023.511/13/2017 7:00989.711/13/2017 7:007011/13/2017 7:00602/27/2017 4:006.300000190734911/13/2017 7:0074.911/13/2017 7:0018.92/27/2017 4:0018.12/27/2017 4:0055.32/27/2017 3:000.0
11/13/2017 8:0025.511/13/2017 8:00990.011/13/2017 8:0028111/13/2017 8:00522/27/2017 3:005.800000190734911/13/2017 8:0068.411/13/2017 8:0019.32/27/2017 3:0017.92/27/2017 3:0055.32/27/2017 2:000.0
11/13/2017 9:0026.411/13/2017 9:00990.711/13/2017 9:0050811/13/2017 9:00482/27/2017 2:005.900000095367411/13/2017 9:0065.711/13/2017 9:0019.52/27/2017 2:0017.92/27/2017 2:0055.32/27/2017 1:000.0
11/13/2017 10:0027.111/13/2017 10:00991.311/13/2017 10:0062911/13/2017 10:00482/27/2017 1:005.699999809265111/13/2017 10:0062.911/13/2017 10:0019.52/27/2017 1:0017.92/27/2017 1:0055.32/27/2017 0:000.0
11/13/2017 11:0028.011/13/2017 11:00990.811/13/2017 11:0081611/13/2017 11:00492/27/2017 0:005.400000095367411/13/2017 11:0060.111/13/2017 11:0019.62/27/2017 0:0018.02/27/2017 0:0055.32/26/2017 23:000.0
11/13/2017 12:0028.611/13/2017 12:00989.811/13/2017 12:0088311/13/2017 12:00422/26/2017 23:004.199999809265111/13/2017 12:0058.211/13/2017 12:0019.72/26/2017 23:0018.22/26/2017 23:0055.32/26/2017 22:000.0
11/13/2017 13:0029.111/13/2017 13:00988.511/13/2017 13:0086411/13/2017 13:00422/26/2017 22:004.400000095367411/13/2017 13:0056.311/13/2017 13:0019.62/26/2017 22:0018.32/26/2017 22:0055.32/26/2017 21:000.0
11/13/2017 14:0029.711/13/2017 14:00987.311/13/2017 14:0075311/13/2017 14:00562/26/2017 21:004.599999904632611/13/2017 14:0053.711/13/2017 14:0019.42/26/2017 21:0018.52/26/2017 21:0055.32/24/2017 16:000.0
11/13/2017 15:0030.111/13/2017 15:00986.711/13/2017 15:0058411/13/2017 15:00592/24/2017 16:005.599999904632611/13/2017 15:0052.711/13/2017 15:0019.52/24/2017 16:0023.72/24/2017 16:0055.32/24/2017 15:000.0
11/13/2017 16:0030.011/13/2017 16:00986.611/13/2017 16:0036811/13/2017 16:00602/24/2017 15:006.099999904632611/13/2017 16:0052.311/13/2017 16:0019.22/24/2017 15:0024.02/24/2017 15:0055.32/24/2017 14:000.0
11/13/2017 17:0028.611/13/2017 17:00986.911/13/2017 17:0012911/13/2017 17:00512/24/2017 14:006.511/13/2017 17:0056.611/13/2017 17:0019.22/24/2017 14:0024.32/24/2017 14:0055.32/24/2017 13:000.0
11/13/2017 18:0026.711/13/2017 18:00987.711/13/2017 18:00411/13/2017 18:00492/24/2017 13:006.699999809265111/13/2017 18:0064.111/13/2017 18:0019.42/24/2017 13:0024.12/24/2017 13:0055.32/24/2017 12:000.0
11/13/2017 19:0025.811/13/2017 19:00988.611/13/2017 19:00011/13/2017 19:00532/24/2017 12:005.900000095367411/13/2017 19:0067.911/13/2017 19:0019.52/24/2017 12:0023.82/24/2017 12:0055.32/24/2017 11:000.0
11/13/2017 20:0025.311/13/2017 20:00989.511/13/2017 20:00011/13/2017 20:00622/24/2017 11:006.400000095367411/13/2017 20:0070.011/13/2017 20:0019.52/24/2017 11:0023.82/24/2017 11:0055.32/24/2017 10:000.0
11/13/2017 21:0024.711/13/2017 21:00990.011/13/2017 21:00011/13/2017 21:00542/24/2017 10:006.099999904632611/13/2017 21:0072.611/13/2017 21:0019.52/24/2017 10:0024.12/24/2017 10:0055.32/24/2017 9:000.0
11/13/2017 22:0023.611/13/2017 22:00990.011/13/2017 22:00011/13/2017 22:001762/24/2017 9:006.511/13/2017 22:0077.211/13/2017 22:0019.42/24/2017 9:0024.32/24/2017 9:0055.32/24/2017 8:000.0
11/13/2017 23:0022.211/13/2017 23:00990.011/13/2017 23:00011/13/2017 23:002002/24/2017 8:006.300000190734911/13/2017 23:0083.611/13/2017 23:0019.42/24/2017 8:0024.32/24/2017 8:0055.32/24/2017 7:000.0
11/14/2017 0:0021.511/14/2017 0:00989.811/14/2017 0:00011/14/2017 0:002032/24/2017 7:006.099999904632611/14/2017 0:0086.611/14/2017 0:0019.22/24/2017 7:0024.62/24/2017 7:0055.32/24/2017 6:000.0
11/14/2017 1:0020.611/14/2017 1:00989.811/14/2017 1:00011/14/2017 1:002162/24/2017 6:005.511/14/2017 1:0090.311/14/2017 1:0019.02/24/2017 6:0025.02/24/2017 6:0055.32/24/2017 5:000.0
11/14/2017 2:0020.511/14/2017 2:00989.311/14/2017 2:00011/14/2017 2:002262/24/2017 5:004.199999809265111/14/2017 2:0090.611/14/2017 2:0019.02/24/2017 5:0025.32/24/2017 5:0055.32/24/2017 4:000.0
11/14/2017 3:0022.611/14/2017 3:00989.011/14/2017 3:00011/14/2017 3:002182/24/2017 4:003.700000047683711/14/2017 3:0080.011/14/2017 3:0019.02/24/2017 4:0025.72/24/2017 4:0055.32/24/2017 3:000.0
11/14/2017 4:0023.511/14/2017 4:00988.711/14/2017 4:00011/14/2017 4:00492/24/2017 3:00211/14/2017 4:0074.911/14/2017 4:0018.92/24/2017 3:0026.32/24/2017 3:0055.32/24/2017 2:000.0
11/14/2017 5:0024.311/14/2017 5:00988.811/14/2017 5:00011/14/2017 5:00522/24/2017 2:001.511/14/2017 5:0071.711/14/2017 5:0018.92/24/2017 2:0026.72/24/2017 2:0055.32/24/2017 1:000.0
11/14/2017 6:0024.411/14/2017 6:00989.311/14/2017 6:00011/14/2017 6:00512/24/2017 1:001.100000023841911/14/2017 6:0072.411/14/2017 6:0019.22/24/2017 1:0026.72/24/2017 1:0055.32/24/2017 0:000.0
11/14/2017 7:0024.911/14/2017 7:00990.011/14/2017 7:006211/14/2017 7:00472/24/2017 0:001.899999976158111/14/2017 7:0071.411/14/2017 7:0019.42/24/2017 0:0026.82/24/2017 0:0055.32/23/2017 23:000.0
11/14/2017 8:0026.211/14/2017 8:00990.411/14/2017 8:0027611/14/2017 8:00562/23/2017 23:002.400000095367411/14/2017 8:0067.611/14/2017 8:0019.82/23/2017 23:0026.92/23/2017 23:0055.32/23/2017 22:000.0
11/14/2017 9:0027.311/14/2017 9:00991.011/14/2017 9:0050711/14/2017 9:00582/23/2017 22:003.099999904632611/14/2017 9:0064.511/14/2017 9:0020.12/23/2017 22:0027.32/23/2017 22:0055.32/23/2017 21:000.0
11/14/2017 10:0028.211/14/2017 10:00991.511/14/2017 10:0069311/14/2017 10:00662/23/2017 21:004.599999904632611/14/2017 10:0062.411/14/2017 10:0020.42/23/2017 21:0027.92/23/2017 21:0055.32/23/2017 20:000.0
11/14/2017 11:0029.211/14/2017 11:00990.811/14/2017 11:0081611/14/2017 11:00712/23/2017 20:003.599999904632611/14/2017 11:0060.211/14/2017 11:0020.82/23/2017 20:0028.52/23/2017 20:0055.32/23/2017 19:000.0
11/14/2017 12:0030.111/14/2017 12:00989.811/14/2017 12:0083511/14/2017 12:00732/23/2017 19:002.799999952316311/14/2017 12:0058.211/14/2017 12:0021.12/23/2017 19:0029.02/23/2017 19:0055.32/23/2017 18:000.0
11/14/2017 13:0029.911/14/2017 13:00989.011/14/2017 13:0057511/14/2017 13:00642/23/2017 18:003.900000095367411/14/2017 13:0058.611/14/2017 13:0021.02/23/2017 18:0029.62/23/2017 18:0055.32/23/2017 17:000.0
11/14/2017 14:0029.611/14/2017 14:00988.211/14/2017 14:0049611/14/2017 14:00832/23/2017 17:005.300000190734911/14/2017 14:0060.711/14/2017 14:0021.32/23/2017 17:0030.82/23/2017 17:0055.32/23/2017 16:000.0
11/14/2017 15:0029.111/14/2017 15:00987.511/14/2017 15:0044011/14/2017 15:00812/23/2017 16:005.900000095367411/14/2017 15:0062.311/14/2017 15:0021.22/23/2017 16:0032.52/23/2017 16:0055.32/23/2017 15:000.0
11/14/2017 16:0029.411/14/2017 16:00987.511/14/2017 16:0030811/14/2017 16:00652/23/2017 15:004.699999809265111/14/2017 16:0061.211/14/2017 16:0021.22/23/2017 15:0034.42/23/2017 15:0055.32/23/2017 14:000.0
11/14/2017 17:0028.011/14/2017 17:00988.211/14/2017 17:0011711/14/2017 17:00842/23/2017 14:001.299999952316311/14/2017 17:0065.511/14/2017 17:0021.02/23/2017 14:0035.62/23/2017 14:0055.32/23/2017 13:000.0
11/14/2017 18:0026.611/14/2017 18:00988.911/14/2017 18:00411/14/2017 18:001112/23/2017 13:001.799999952316311/14/2017 18:0070.711/14/2017 18:0020.92/23/2017 13:0034.92/23/2017 13:0055.32/23/2017 12:000.0
11/14/2017 19:0026.111/14/2017 19:00989.711/14/2017 19:00011/14/2017 19:001082/23/2017 12:001.399999976158111/14/2017 19:0072.611/14/2017 19:0020.92/23/2017 12:0033.62/23/2017 12:0055.32/23/2017 11:000.0
11/14/2017 20:0025.911/14/2017 20:00990.911/14/2017 20:00011/14/2017 20:00622/23/2017 11:00111/14/2017 20:0073.711/14/2017 20:0020.92/23/2017 11:0031.82/23/2017 11:0055.32/23/2017 10:000.0
11/14/2017 21:0025.911/14/2017 21:00991.511/14/2017 21:00011/14/2017 21:00692/23/2017 10:000.6999999880790711/14/2017 21:0074.811/14/2017 21:0021.22/23/2017 10:0028.92/23/2017 10:0055.32/23/2017 9:000.0
11/14/2017 22:0026.011/14/2017 22:00991.811/14/2017 22:00011/14/2017 22:00542/23/2017 9:000.6999999880790711/14/2017 22:0074.411/14/2017 22:0021.22/23/2017 9:0026.12/23/2017 9:0055.32/23/2017 8:000.0
11/14/2017 23:0025.811/14/2017 23:00991.211/14/2017 23:00011/14/2017 23:00442/23/2017 8:000.3000000119209311/14/2017 23:0075.011/14/2017 23:0021.12/23/2017 8:0023.42/23/2017 8:0055.32/23/2017 7:000.0
11/15/2017 0:0025.611/15/2017 0:00990.711/15/2017 0:00011/15/2017 0:00512/23/2017 7:000.3000000119209311/15/2017 0:0075.511/15/2017 0:0021.02/23/2017 7:0022.32/23/2017 7:0055.32/20/2017 17:000.0
11/15/2017 1:0025.511/15/2017 1:00990.411/15/2017 1:00011/15/2017 1:00472/20/2017 17:001.511/15/2017 1:0076.411/15/2017 1:0021.12/20/2017 17:0033.62/20/2017 17:0055.32/20/2017 16:000.0
11/15/2017 2:0023.011/15/2017 2:00993.111/15/2017 2:001111/15/2017 2:003482/20/2017 16:001.899999976158111/15/2017 2:0093.911/15/2017 2:0022.02/20/2017 16:0033.62/20/2017 16:0055.32/20/2017 15:000.0
11/15/2017 3:0025.111/15/2017 3:00989.411/15/2017 3:00011/15/2017 3:00382/20/2017 15:002.099999904632611/15/2017 3:0078.611/15/2017 3:0021.22/20/2017 15:0033.32/20/2017 15:0055.32/20/2017 14:000.0
11/15/2017 4:0025.511/15/2017 4:00989.611/15/2017 4:00011/15/2017 4:00562/20/2017 14:002.299999952316311/15/2017 4:0076.711/15/2017 4:0021.22/20/2017 14:0032.42/20/2017 14:0055.32/20/2017 13:000.0
11/15/2017 5:0025.411/15/2017 5:00989.911/15/2017 5:00011/15/2017 5:00482/20/2017 13:002.799999952316311/15/2017 5:0075.411/15/2017 5:0020.82/20/2017 13:0031.32/20/2017 13:0055.32/20/2017 12:000.0
11/15/2017 6:0025.311/15/2017 6:00990.511/15/2017 6:00011/15/2017 6:00472/20/2017 12:001.511/15/2017 6:0075.511/15/2017 6:0020.72/20/2017 12:0029.92/20/2017 12:0055.32/20/2017 11:000.0
11/15/2017 7:0025.611/15/2017 7:00991.411/15/2017 7:005311/15/2017 7:00552/20/2017 11:001.100000023841911/15/2017 7:0074.711/15/2017 7:0020.82/20/2017 11:0027.32/20/2017 11:0055.32/20/2017 10:000.0
11/15/2017 8:0026.811/15/2017 8:00992.111/15/2017 8:0025211/15/2017 8:00512/20/2017 10:000.6000000238418611/15/2017 8:0071.311/15/2017 8:0021.22/20/2017 10:0024.02/20/2017 10:0055.32/20/2017 9:000.0
11/27/2017 13:0025.811/27/2017 13:00992.111/27/2017 13:0079811/27/2017 13:00562/20/2017 9:000.8999999761581411/27/2017 13:0055.511/27/2017 13:0016.32/20/2017 9:0020.92/20/2017 9:0055.32/20/2017 8:000.0
11/27/2017 14:0026.211/27/2017 14:00991.111/27/2017 14:0072311/27/2017 14:00662/20/2017 8:001.299999952316311/27/2017 14:0056.411/27/2017 14:0016.92/20/2017 8:0018.02/20/2017 8:0055.32/20/2017 7:000.0
11/27/2017 15:0026.011/27/2017 15:00990.711/27/2017 15:0054811/27/2017 15:00772/20/2017 7:001.100000023841911/27/2017 15:0057.811/27/2017 15:0017.12/20/2017 7:0016.42/20/2017 7:0055.22/20/2017 6:000.0
11/27/2017 16:0025.711/27/2017 16:00990.811/27/2017 16:0035611/27/2017 16:00682/20/2017 6:000.3000000119209311/27/2017 16:0058.811/27/2017 16:0017.12/20/2017 6:0015.52/20/2017 6:0055.22/20/2017 5:000.0
11/27/2017 17:0023.311/27/2017 17:00991.411/27/2017 17:009811/27/2017 17:00402/20/2017 5:000.4000000059604611/27/2017 17:0063.011/27/2017 17:0015.92/20/2017 5:0016.12/20/2017 5:0055.22/20/2017 4:000.0
11/27/2017 18:0021.311/27/2017 18:00992.011/27/2017 18:00311/27/2017 18:00422/20/2017 4:000.4000000059604611/27/2017 18:0067.711/27/2017 18:0015.22/20/2017 4:0016.52/20/2017 4:0055.22/20/2017 3:000.0
11/27/2017 19:0020.611/27/2017 19:00992.611/27/2017 19:00011/27/2017 19:00362/20/2017 3:000.4000000059604611/27/2017 19:0069.711/27/2017 19:0014.92/20/2017 3:0017.32/20/2017 3:0055.22/20/2017 2:000.0
11/27/2017 20:0020.511/27/2017 20:00993.211/27/2017 20:00011/27/2017 20:00412/20/2017 2:000.4000000059604611/27/2017 20:0070.511/27/2017 20:0015.02/20/2017 2:0017.62/20/2017 2:0055.22/20/2017 1:000.0
11/27/2017 21:0020.411/27/2017 21:00993.711/27/2017 21:00011/27/2017 21:00452/20/2017 1:000.6000000238418611/27/2017 21:0070.711/27/2017 21:0015.02/20/2017 1:0018.52/20/2017 1:0055.22/20/2017 0:000.0
11/27/2017 22:0020.511/27/2017 22:00994.011/27/2017 22:00011/27/2017 22:00422/20/2017 0:000.6000000238418611/27/2017 22:0071.511/27/2017 22:0015.22/20/2017 0:0019.62/20/2017 0:0055.22/19/2017 23:000.0
11/27/2017 23:0020.511/27/2017 23:00993.811/27/2017 23:00011/27/2017 23:00442/19/2017 23:000.8000000119209311/27/2017 23:0073.611/27/2017 23:0015.72/19/2017 23:0021.22/19/2017 23:0055.22/19/2017 22:000.0
11/28/2017 0:0020.411/28/2017 0:00993.311/28/2017 0:00011/28/2017 0:00362/19/2017 22:001.200000047683711/28/2017 0:0074.911/28/2017 0:0015.92/19/2017 22:0022.82/19/2017 22:0055.32/19/2017 21:000.0
11/28/2017 1:0020.211/28/2017 1:00993.011/28/2017 1:00011/28/2017 1:00392/19/2017 21:001.399999976158111/28/2017 1:0075.811/28/2017 1:0015.92/19/2017 21:0024.22/19/2017 21:0055.32/19/2017 20:000.0
11/28/2017 2:0019.911/28/2017 2:00992.711/28/2017 2:00011/28/2017 2:00332/19/2017 20:001.799999952316311/28/2017 2:0076.711/28/2017 2:0015.82/19/2017 20:0026.02/19/2017 20:0055.32/19/2017 19:000.0
11/28/2017 3:0020.011/28/2017 3:00992.111/28/2017 3:00011/28/2017 3:00322/19/2017 19:001.399999976158111/28/2017 3:0076.911/28/2017 3:0015.92/19/2017 19:0028.02/19/2017 19:0055.32/19/2017 18:000.0
11/28/2017 4:0020.011/28/2017 4:00991.811/28/2017 4:00011/28/2017 4:00492/19/2017 18:002.299999952316311/28/2017 4:0077.211/28/2017 4:0016.02/19/2017 18:0030.02/19/2017 18:0055.32/19/2017 17:000.0
11/28/2017 5:0020.011/28/2017 5:00991.811/28/2017 5:00011/28/2017 5:00532/19/2017 17:001.799999952316311/28/2017 5:0077.011/28/2017 5:0015.92/19/2017 17:0031.12/19/2017 17:0055.32/19/2017 16:000.0
11/28/2017 6:0020.211/28/2017 6:00992.411/28/2017 6:00011/28/2017 6:00552/19/2017 16:00211/28/2017 6:0076.811/28/2017 6:0016.12/19/2017 16:0031.02/19/2017 16:0055.32/19/2017 15:000.0
11/28/2017 7:0020.511/28/2017 7:00993.111/28/2017 7:003511/28/2017 7:00622/19/2017 15:002.200000047683711/28/2017 7:0076.411/28/2017 7:0016.32/19/2017 15:0030.82/19/2017 15:0055.32/19/2017 14:000.0
11/28/2017 8:0021.611/28/2017 8:00993.611/28/2017 8:0024111/28/2017 8:00602/19/2017 14:002.400000095367411/28/2017 8:0072.811/28/2017 8:0016.62/19/2017 14:0030.22/19/2017 14:0055.32/19/2017 13:000.0
11/28/2017 9:0022.511/28/2017 9:00994.111/28/2017 9:0041011/28/2017 9:00592/19/2017 13:002.200000047683711/28/2017 9:0068.011/28/2017 9:0016.42/19/2017 13:0029.42/19/2017 13:0055.32/19/2017 12:000.0
11/28/2017 10:0023.611/28/2017 10:00994.111/28/2017 10:0061511/28/2017 10:00562/19/2017 12:002.400000095367411/28/2017 10:0064.711/28/2017 10:0016.62/19/2017 12:0028.12/19/2017 12:0055.32/19/2017 11:000.0
11/28/2017 11:0024.211/28/2017 11:00993.911/28/2017 11:0063311/28/2017 11:00552/19/2017 11:001.799999952316311/28/2017 11:0063.311/28/2017 11:0016.92/19/2017 11:0026.62/19/2017 11:0055.32/19/2017 10:000.0
11/28/2017 12:0024.111/28/2017 12:00993.511/28/2017 12:0047711/28/2017 12:00632/19/2017 10:001.100000023841911/28/2017 12:0064.211/28/2017 12:0017.02/19/2017 10:0024.62/19/2017 10:0055.32/19/2017 9:000.0
11/28/2017 13:0023.211/28/2017 13:00992.511/28/2017 13:0016911/28/2017 13:00692/19/2017 9:00111/28/2017 13:0067.611/28/2017 13:0016.92/19/2017 9:0022.32/19/2017 9:0055.32/19/2017 8:000.0
11/28/2017 14:0023.411/28/2017 14:00991.811/28/2017 14:0030111/28/2017 14:00712/19/2017 8:000.6999999880790711/28/2017 14:0067.511/28/2017 14:0017.12/19/2017 8:0018.22/19/2017 8:0055.32/19/2017 7:000.0
11/28/2017 15:0023.511/28/2017 15:00991.611/28/2017 15:0029911/28/2017 15:00642/19/2017 7:000.8999999761581411/28/2017 15:0067.111/28/2017 15:0017.12/19/2017 7:0016.72/19/2017 7:0055.32/19/2017 6:000.0
11/28/2017 16:0022.911/28/2017 16:00991.711/28/2017 16:0014311/28/2017 16:00612/19/2017 6:001.100000023841911/28/2017 16:0068.811/28/2017 16:0016.92/19/2017 6:0019.42/19/2017 6:0055.32/19/2017 5:000.0
11/28/2017 17:0022.311/28/2017 17:00992.111/28/2017 17:004711/28/2017 17:00572/19/2017 5:001.299999952316311/28/2017 17:0071.011/28/2017 17:0016.92/19/2017 5:0021.12/19/2017 5:0055.32/19/2017 4:000.0
11/28/2017 18:0021.811/28/2017 18:00992.711/28/2017 18:00211/28/2017 18:00692/19/2017 4:002.511/28/2017 18:0072.911/28/2017 18:0016.82/19/2017 4:0021.92/19/2017 4:0055.32/19/2017 3:000.0
11/28/2017 19:0021.611/28/2017 19:00993.311/28/2017 19:00011/28/2017 19:00802/19/2017 3:003.511/28/2017 19:0073.411/28/2017 19:0016.72/19/2017 3:0022.32/19/2017 3:0055.32/19/2017 2:000.0
11/28/2017 20:0021.511/28/2017 20:00993.911/28/2017 20:00011/28/2017 20:00912/19/2017 2:002.799999952316311/28/2017 20:0073.611/28/2017 20:0016.72/19/2017 2:0022.52/19/2017 2:0055.32/19/2017 1:000.0
11/28/2017 21:0021.411/28/2017 21:00994.611/28/2017 21:00011/28/2017 21:00852/19/2017 1:002.700000047683711/28/2017 21:0073.711/28/2017 21:0016.62/19/2017 1:0022.22/19/2017 1:0055.32/19/2017 0:000.0
11/28/2017 22:0021.311/28/2017 22:00994.911/28/2017 22:00011/28/2017 22:00762/19/2017 0:002.799999952316311/28/2017 22:0073.011/28/2017 22:0016.32/19/2017 0:0022.52/19/2017 0:0055.32/18/2017 23:000.0
11/28/2017 23:0021.211/28/2017 23:00994.811/28/2017 23:00011/28/2017 23:00722/18/2017 23:002.700000047683711/28/2017 23:0073.811/28/2017 23:0016.42/18/2017 23:0022.82/18/2017 23:0055.32/18/2017 22:000.0
11/29/2017 0:0021.411/29/2017 0:00994.611/29/2017 0:00011/29/2017 0:00732/18/2017 22:002.599999904632611/29/2017 0:0074.411/29/2017 0:0016.72/18/2017 22:0022.92/18/2017 22:0055.32/18/2017 21:000.0
11/29/2017 1:0021.411/29/2017 1:00994.011/29/2017 1:00011/29/2017 1:00682/18/2017 21:002.599999904632611/29/2017 1:0075.011/29/2017 1:0016.92/18/2017 21:0023.12/18/2017 21:0055.32/18/2017 20:000.0
11/29/2017 2:0021.311/29/2017 2:00993.411/29/2017 2:00011/29/2017 2:00702/18/2017 20:003.299999952316311/29/2017 2:0075.911/29/2017 2:0016.92/18/2017 20:0023.22/18/2017 20:0055.32/18/2017 19:000.0
11/29/2017 3:0021.411/29/2017 3:00993.011/29/2017 3:00011/29/2017 3:00752/18/2017 19:003.511/29/2017 3:0075.911/29/2017 3:0017.02/18/2017 19:0023.92/18/2017 19:0055.32/18/2017 18:000.0
11/29/2017 4:0021.411/29/2017 4:00992.611/29/2017 4:00011/29/2017 4:00832/18/2017 18:004.199999809265111/29/2017 4:0075.511/29/2017 4:0017.02/18/2017 18:0025.42/18/2017 18:0055.32/18/2017 17:000.0
11/29/2017 5:0021.411/29/2017 5:00992.611/29/2017 5:00011/29/2017 5:00732/18/2017 17:004.900000095367411/29/2017 5:0075.711/29/2017 5:0017.02/18/2017 17:0027.12/18/2017 17:0055.32/18/2017 16:000.0
11/29/2017 6:0021.711/29/2017 6:00992.811/29/2017 6:00011/29/2017 6:00672/18/2017 16:004.599999904632611/29/2017 6:0075.411/29/2017 6:0017.22/18/2017 16:0028.32/18/2017 16:0055.32/18/2017 15:000.0
11/29/2017 7:0022.011/29/2017 7:00993.311/29/2017 7:005611/29/2017 7:00552/18/2017 15:004.511/29/2017 7:0075.311/29/2017 7:0017.52/18/2017 15:0028.52/18/2017 15:0055.32/18/2017 14:000.0
11/29/2017 8:0023.111/29/2017 8:00993.911/29/2017 8:0025511/29/2017 8:00592/18/2017 14:004.699999809265111/29/2017 8:0072.711/29/2017 8:0018.02/18/2017 14:0028.22/18/2017 14:0055.32/18/2017 13:000.0
11/29/2017 9:0024.111/29/2017 9:00994.411/29/2017 9:0038311/29/2017 9:00572/18/2017 13:004.900000095367411/29/2017 9:0070.311/29/2017 9:0018.42/18/2017 13:0027.62/18/2017 13:0055.32/18/2017 12:000.0
11/29/2017 10:0025.011/29/2017 10:00994.411/29/2017 10:0062611/29/2017 10:00482/18/2017 12:005.599999904632611/29/2017 10:0067.711/29/2017 10:0018.72/18/2017 12:0026.92/18/2017 12:0055.32/18/2017 11:000.0
11/29/2017 11:0025.711/29/2017 11:00994.111/29/2017 11:0073411/29/2017 11:00432/18/2017 11:006.511/29/2017 11:0065.711/29/2017 11:0018.92/18/2017 11:0025.92/18/2017 11:0055.32/18/2017 10:000.0
11/29/2017 12:0025.911/29/2017 12:00993.411/29/2017 12:0079811/29/2017 12:00422/18/2017 10:004.900000095367411/29/2017 12:0065.211/29/2017 12:0018.92/18/2017 10:0025.22/18/2017 10:0055.32/18/2017 9:000.0
11/29/2017 13:0026.011/29/2017 13:00992.311/29/2017 13:0080611/29/2017 13:00432/18/2017 9:004.511/29/2017 13:0064.811/29/2017 13:0018.92/18/2017 9:0023.92/18/2017 9:0055.32/18/2017 8:000.0
11/29/2017 14:0025.711/29/2017 14:00991.511/29/2017 14:0044711/29/2017 14:00462/18/2017 8:002.900000095367411/29/2017 14:0065.311/29/2017 14:0018.82/18/2017 8:0022.82/18/2017 8:0055.32/18/2017 7:000.0
11/29/2017 15:0025.411/29/2017 15:00991.211/29/2017 15:0035511/29/2017 15:00402/18/2017 7:003.099999904632611/29/2017 15:0066.411/29/2017 15:0018.82/18/2017 7:0021.92/18/2017 7:0055.32/18/2017 6:000.0
11/29/2017 16:0024.511/29/2017 16:00991.311/29/2017 16:0018111/29/2017 16:00492/18/2017 6:002.799999952316311/29/2017 16:0069.311/29/2017 16:0018.62/18/2017 6:0021.72/18/2017 6:0055.32/18/2017 5:000.0
11/29/2017 17:0023.811/29/2017 17:00991.611/29/2017 17:007811/29/2017 17:00532/18/2017 5:001.299999952316311/29/2017 17:0072.211/29/2017 17:0018.62/18/2017 5:0020.92/18/2017 5:0055.32/18/2017 4:000.0
11/29/2017 18:0023.011/29/2017 18:00992.211/29/2017 18:00411/29/2017 18:00652/18/2017 4:001.399999976158111/29/2017 18:0075.711/29/2017 18:0018.62/18/2017 4:0021.12/18/2017 4:0055.32/18/2017 3:000.0
11/29/2017 19:0022.811/29/2017 19:00992.511/29/2017 19:00011/29/2017 19:00692/18/2017 3:002.299999952316311/29/2017 19:0076.811/29/2017 19:0018.62/18/2017 3:0021.52/18/2017 3:0055.32/18/2017 2:000.0
11/29/2017 20:0022.811/29/2017 20:00993.111/29/2017 20:00011/29/2017 20:00572/18/2017 2:002.200000047683711/29/2017 20:0077.011/29/2017 20:0018.62/18/2017 2:0021.62/18/2017 2:0055.32/18/2017 1:000.0
11/29/2017 21:0022.911/29/2017 21:00993.611/29/2017 21:00011/29/2017 21:00592/18/2017 1:002.200000047683711/29/2017 21:0076.711/29/2017 21:0018.72/18/2017 1:0021.62/18/2017 1:0055.32/18/2017 0:000.0
11/29/2017 22:0023.111/29/2017 22:00993.811/29/2017 22:00011/29/2017 22:00532/18/2017 0:002.900000095367411/29/2017 22:0076.211/29/2017 22:0018.82/18/2017 0:0021.82/18/2017 0:0055.32/17/2017 23:000.0
11/29/2017 23:0023.211/29/2017 23:00993.311/29/2017 23:00011/29/2017 23:00602/17/2017 23:002.799999952316311/29/2017 23:0075.811/29/2017 23:0018.82/17/2017 23:0022.12/17/2017 23:0055.32/17/2017 22:000.0
11/30/2017 0:0023.011/30/2017 0:00992.811/30/2017 0:00011/30/2017 0:00612/17/2017 22:002.599999904632611/30/2017 0:0076.411/30/2017 0:0018.72/17/2017 22:0022.62/17/2017 22:0055.32/17/2017 21:000.0
11/30/2017 1:0023.011/30/2017 1:00992.511/30/2017 1:00011/30/2017 1:00582/17/2017 21:002.599999904632611/30/2017 1:0076.511/30/2017 1:0018.72/17/2017 21:0023.32/17/2017 21:0055.32/17/2017 20:000.0
11/30/2017 2:0023.011/30/2017 2:00991.811/30/2017 2:00011/30/2017 2:00512/17/2017 20:003.799999952316311/30/2017 2:0076.711/30/2017 2:0018.82/17/2017 20:0023.92/17/2017 20:0055.32/17/2017 19:000.0
11/30/2017 3:0023.011/30/2017 3:00991.511/30/2017 3:00011/30/2017 3:00502/17/2017 19:003.900000095367411/30/2017 3:0076.711/30/2017 3:0018.82/17/2017 19:0024.72/17/2017 19:0055.32/17/2017 18:000.0
11/30/2017 4:0022.911/30/2017 4:00991.611/30/2017 4:00011/30/2017 4:00562/17/2017 18:003.700000047683711/30/2017 4:0077.111/30/2017 4:0018.72/17/2017 18:0026.02/17/2017 18:0055.32/17/2017 17:000.0
11/30/2017 5:0022.811/30/2017 5:00991.811/30/2017 5:00011/30/2017 5:00492/17/2017 17:004.511/30/2017 5:0077.911/30/2017 5:0018.82/17/2017 17:0027.42/17/2017 17:0055.32/16/2017 9:000.0
11/30/2017 6:0022.711/30/2017 6:00992.311/30/2017 6:00011/30/2017 6:00542/16/2017 9:002.799999952316311/30/2017 6:0077.911/30/2017 6:0018.72/16/2017 9:0022.92/16/2017 9:0055.32/16/2017 8:000.0
11/30/2017 7:0023.011/30/2017 7:00992.911/30/2017 7:001611/30/2017 7:00632/16/2017 8:001.511/30/2017 7:0077.011/30/2017 7:0018.82/16/2017 8:0020.32/16/2017 8:0055.32/16/2017 7:000.0
11/30/2017 8:0023.711/30/2017 8:00993.411/30/2017 8:0023011/30/2017 8:00592/16/2017 7:000.6999999880790711/30/2017 8:0075.211/30/2017 8:0019.12/16/2017 7:0017.92/16/2017 7:0055.22/16/2017 6:000.0
11/30/2017 9:0024.411/30/2017 9:00994.011/30/2017 9:0044111/30/2017 9:00542/16/2017 6:001.200000047683711/30/2017 9:0072.411/30/2017 9:0019.22/16/2017 6:0019.92/16/2017 6:0055.32/16/2017 5:000.0
11/30/2017 10:0024.911/30/2017 10:00994.311/30/2017 10:0048511/30/2017 10:00542/16/2017 5:001.700000047683711/30/2017 10:0070.611/30/2017 10:0019.32/16/2017 5:0019.82/16/2017 5:0055.22/15/2017 0:000.0
11/30/2017 11:0025.511/30/2017 11:00993.811/30/2017 11:0068211/30/2017 11:00552/15/2017 0:002.511/30/2017 11:0068.411/30/2017 11:0019.32/15/2017 0:0020.92/15/2017 0:0055.31/23/2017 20:000.0
11/30/2017 12:0026.311/30/2017 12:00992.911/30/2017 12:0075011/30/2017 12:00551/23/2017 20:004.900000095367411/30/2017 12:0065.511/30/2017 12:0019.41/23/2017 20:0020.01/23/2017 20:0055.31/23/2017 19:000.0
11/30/2017 13:0026.711/30/2017 13:00991.911/30/2017 13:0075411/30/2017 13:00401/23/2017 19:004.400000095367411/30/2017 13:0062.711/30/2017 13:0019.11/23/2017 19:0020.21/23/2017 19:0055.31/23/2017 18:000.0
11/30/2017 14:0026.711/30/2017 14:00990.911/30/2017 14:0070611/30/2017 14:00401/23/2017 18:003.511/30/2017 14:0063.011/30/2017 14:0019.11/23/2017 18:0020.51/23/2017 18:0055.31/23/2017 17:000.0
11/30/2017 15:0026.611/30/2017 15:00990.411/30/2017 15:0056511/30/2017 15:00461/23/2017 17:004.300000190734911/30/2017 15:0064.311/30/2017 15:0019.41/23/2017 17:0021.11/23/2017 17:0055.31/23/2017 16:000.0
11/30/2017 16:0026.011/30/2017 16:00990.211/30/2017 16:0039011/30/2017 16:00551/23/2017 16:004.099999904632611/30/2017 16:0066.111/30/2017 16:0019.31/23/2017 16:0021.21/23/2017 16:0055.31/22/2017 15:000.0
11/30/2017 17:0025.311/30/2017 17:00990.611/30/2017 17:0013511/30/2017 17:00531/22/2017 15:007.699999809265111/30/2017 17:0069.111/30/2017 17:0019.31/22/2017 15:0021.61/22/2017 15:0055.31/22/2017 14:000.0
11/30/2017 18:0024.311/30/2017 18:00991.411/30/2017 18:00411/30/2017 18:00541/22/2017 14:006.400000095367411/30/2017 18:0072.911/30/2017 18:0019.21/22/2017 14:0021.61/22/2017 14:0055.31/22/2017 13:000.0
12/10/2017 10:0022.112/10/2017 10:00995.612/10/2017 10:0059512/10/2017 10:0061/22/2017 13:006.099999904632612/10/2017 10:0070.012/10/2017 10:0016.41/22/2017 13:0021.81/22/2017 13:0055.31/22/2017 12:000.0
12/10/2017 11:0024.812/10/2017 11:00994.712/10/2017 11:0072112/10/2017 11:002771/22/2017 12:00612/10/2017 11:0060.512/10/2017 11:0016.71/22/2017 12:0022.41/22/2017 12:0055.31/22/2017 11:000.0
12/10/2017 12:0026.912/10/2017 12:00993.712/10/2017 12:0078612/10/2017 12:001811/22/2017 11:005.900000095367412/10/2017 12:0052.712/10/2017 12:0016.51/22/2017 11:0022.21/22/2017 11:0055.31/22/2017 10:000.0
12/10/2017 13:0027.612/10/2017 13:00992.412/10/2017 13:0077212/10/2017 13:003191/22/2017 10:005.599999904632612/10/2017 13:0051.112/10/2017 13:0016.71/22/2017 10:0021.51/22/2017 10:0055.31/22/2017 9:000.0
12/10/2017 14:0028.712/10/2017 14:00991.612/10/2017 14:0062112/10/2017 14:003421/22/2017 9:006.099999904632612/10/2017 14:0049.212/10/2017 14:0017.11/22/2017 9:0021.01/22/2017 9:0055.31/22/2017 8:000.0
12/10/2017 15:0027.312/10/2017 15:00991.312/10/2017 15:0021112/10/2017 15:00321/22/2017 8:006.199999809265112/10/2017 15:0055.012/10/2017 15:0017.51/22/2017 8:0020.81/22/2017 8:0055.31/22/2017 7:000.0
12/10/2017 16:0025.912/10/2017 16:00991.712/10/2017 16:0028812/10/2017 16:00461/22/2017 7:005.512/10/2017 16:0062.712/10/2017 16:0018.31/22/2017 7:0020.61/22/2017 7:0055.31/22/2017 6:000.0
12/10/2017 17:0024.112/10/2017 17:00992.412/10/2017 17:008312/10/2017 17:00471/22/2017 6:004.699999809265112/10/2017 17:0068.212/10/2017 17:0017.91/22/2017 6:0020.61/22/2017 6:0055.31/22/2017 5:000.0
12/10/2017 18:0023.012/10/2017 18:00993.412/10/2017 18:00412/10/2017 18:00441/22/2017 5:005.300000190734912/10/2017 18:0071.212/10/2017 18:0017.61/22/2017 5:0020.61/22/2017 5:0055.31/22/2017 4:000.0
12/10/2017 19:0022.312/10/2017 19:00994.212/10/2017 19:00012/10/2017 19:00421/22/2017 4:005.199999809265112/10/2017 19:0073.612/10/2017 19:0017.41/22/2017 4:0020.71/22/2017 4:0055.31/22/2017 3:000.0
12/10/2017 20:0021.812/10/2017 20:00995.212/10/2017 20:00012/10/2017 20:00371/22/2017 3:004.800000190734912/10/2017 20:0074.212/10/2017 20:0017.11/22/2017 3:0020.91/22/2017 3:0055.31/22/2017 2:000.0
12/10/2017 21:0021.412/10/2017 21:00996.012/10/2017 21:00012/10/2017 21:00431/22/2017 2:004.599999904632612/10/2017 21:0074.112/10/2017 21:0016.71/22/2017 2:0021.31/22/2017 2:0055.31/22/2017 1:000.0
12/10/2017 22:0021.112/10/2017 22:00996.212/10/2017 22:00012/10/2017 22:00381/22/2017 1:004.199999809265112/10/2017 22:0074.912/10/2017 22:0016.51/22/2017 1:0021.51/22/2017 1:0055.31/22/2017 0:000.0
12/10/2017 23:0021.212/10/2017 23:00996.112/10/2017 23:00012/10/2017 23:00411/22/2017 0:004.512/10/2017 23:0074.212/10/2017 23:0016.51/22/2017 0:0021.81/22/2017 0:0055.31/21/2017 23:000.0
12/11/2017 0:0020.912/11/2017 0:00995.812/11/2017 0:00012/11/2017 0:00431/21/2017 23:004.699999809265112/11/2017 0:0075.612/11/2017 0:0016.51/21/2017 23:0022.21/21/2017 23:0055.31/21/2017 22:000.0
12/11/2017 1:0020.312/11/2017 1:00995.412/11/2017 1:00012/11/2017 1:00481/21/2017 22:005.300000190734912/11/2017 1:0077.612/11/2017 1:0016.31/21/2017 22:0022.51/21/2017 22:0055.31/21/2017 21:000.0
12/11/2017 2:0020.212/11/2017 2:00994.712/11/2017 2:00012/11/2017 2:00581/21/2017 21:004.512/11/2017 2:0076.812/11/2017 2:0016.11/21/2017 21:0022.51/21/2017 21:0055.31/21/2017 20:000.0
12/11/2017 3:0020.412/11/2017 3:00994.112/11/2017 3:00012/11/2017 3:00571/21/2017 20:003.799999952316312/11/2017 3:0074.112/11/2017 3:0015.71/21/2017 20:0022.41/21/2017 20:0055.31/21/2017 19:000.0
12/11/2017 4:0020.512/11/2017 4:00993.712/11/2017 4:00012/11/2017 4:00581/21/2017 19:003.599999904632612/11/2017 4:0073.512/11/2017 4:0015.71/21/2017 19:0022.51/21/2017 19:0055.31/21/2017 18:000.0
12/11/2017 5:0020.012/11/2017 5:00993.812/11/2017 5:00012/11/2017 5:00531/21/2017 18:002.900000095367412/11/2017 5:0074.912/11/2017 5:0015.51/21/2017 18:0022.71/21/2017 18:0055.31/21/2017 17:000.0
12/11/2017 6:0020.012/11/2017 6:00994.412/11/2017 6:00012/11/2017 6:00521/21/2017 17:003.700000047683712/11/2017 6:0074.012/11/2017 6:0015.31/21/2017 17:0023.11/21/2017 17:0055.31/21/2017 16:000.0
12/11/2017 7:0020.112/11/2017 7:00995.012/11/2017 7:003212/11/2017 7:00481/21/2017 16:004.599999904632612/11/2017 7:0073.212/11/2017 7:0015.21/21/2017 16:0023.51/21/2017 16:0055.31/21/2017 15:000.0
12/11/2017 8:0020.912/11/2017 8:00995.412/11/2017 8:0024012/11/2017 8:00241/21/2017 15:004.699999809265112/11/2017 8:0071.112/11/2017 8:0015.51/21/2017 15:0023.51/21/2017 15:0055.31/21/2017 14:000.0
12/11/2017 9:0020.912/11/2017 9:00996.212/11/2017 9:0027612/11/2017 9:00421/21/2017 14:005.400000095367412/11/2017 9:0071.012/11/2017 9:0015.51/21/2017 14:0023.51/21/2017 14:0055.31/21/2017 13:000.0
12/11/2017 10:0021.812/11/2017 10:00996.112/11/2017 10:0060912/11/2017 10:00491/21/2017 13:005.099999904632612/11/2017 10:0067.712/11/2017 10:0015.61/21/2017 13:0023.71/21/2017 13:0055.31/21/2017 12:000.0
12/11/2017 11:0022.712/11/2017 11:00995.612/11/2017 11:0064412/11/2017 11:00421/21/2017 12:005.099999904632612/11/2017 11:0065.112/11/2017 11:0015.91/21/2017 12:0023.81/21/2017 12:0055.31/21/2017 11:000.0
12/11/2017 12:0023.412/11/2017 12:00994.512/11/2017 12:0061712/11/2017 12:00351/21/2017 11:005.400000095367412/11/2017 12:0063.612/11/2017 12:0016.21/21/2017 11:0023.91/21/2017 11:0055.31/21/2017 10:000.0
12/11/2017 13:0023.412/11/2017 13:00993.212/11/2017 13:0057512/11/2017 13:00401/21/2017 10:005.400000095367412/11/2017 13:0063.412/11/2017 13:0016.11/21/2017 10:0023.31/21/2017 10:0055.31/21/2017 9:000.0
12/11/2017 14:0023.312/11/2017 14:00992.212/11/2017 14:0042712/11/2017 14:00351/21/2017 9:004.512/11/2017 14:0064.312/11/2017 14:0016.31/21/2017 9:0022.81/21/2017 9:0055.31/21/2017 8:000.0
12/11/2017 15:0023.712/11/2017 15:00991.512/11/2017 15:0028612/11/2017 15:00421/21/2017 8:00412/11/2017 15:0064.512/11/2017 15:0016.71/21/2017 8:0022.21/21/2017 8:0055.31/21/2017 7:000.0
12/11/2017 16:0023.712/11/2017 16:00991.512/11/2017 16:0026012/11/2017 16:00521/21/2017 7:003.900000095367412/11/2017 16:0065.112/11/2017 16:0016.81/21/2017 7:0022.01/21/2017 7:0055.31/21/2017 6:000.0
12/11/2017 17:0023.312/11/2017 17:00991.912/11/2017 17:0013812/11/2017 17:00351/21/2017 6:004.900000095367412/11/2017 17:0066.312/11/2017 17:0016.71/21/2017 6:0021.91/21/2017 6:0055.31/21/2017 5:000.0
12/11/2017 18:0021.412/11/2017 18:00992.912/11/2017 18:00512/11/2017 18:00471/21/2017 5:005.599999904632612/11/2017 18:0071.612/11/2017 18:0016.11/21/2017 5:0022.01/21/2017 5:0055.31/21/2017 4:000.0
12/11/2017 19:0020.512/11/2017 19:00993.712/11/2017 19:00012/11/2017 19:00451/21/2017 4:005.199999809265112/11/2017 19:0074.112/11/2017 19:0015.81/21/2017 4:0022.01/21/2017 4:0055.31/21/2017 3:000.0
12/11/2017 20:0020.312/11/2017 20:00994.212/11/2017 20:00012/11/2017 20:00441/21/2017 3:003.599999904632612/11/2017 20:0075.212/11/2017 20:0015.81/21/2017 3:0022.31/21/2017 3:0055.31/21/2017 2:000.0
12/11/2017 21:0020.412/11/2017 21:00994.512/11/2017 21:00012/11/2017 21:00701/21/2017 2:00312/11/2017 21:0075.412/11/2017 21:0016.01/21/2017 2:0022.41/21/2017 2:0055.31/21/2017 1:000.0
12/11/2017 22:0020.412/11/2017 22:00994.612/11/2017 22:00012/11/2017 22:00511/21/2017 1:003.299999952316312/11/2017 22:0075.412/11/2017 22:0016.01/21/2017 1:0022.61/21/2017 1:0055.31/21/2017 0:000.0
12/11/2017 23:0020.112/11/2017 23:00994.812/11/2017 23:00012/11/2017 23:00291/21/2017 0:003.099999904632612/11/2017 23:0076.912/11/2017 23:0016.01/21/2017 0:0022.81/21/2017 0:0055.31/20/2017 23:000.0
12/12/2017 0:0019.512/12/2017 0:00994.812/12/2017 0:00012/12/2017 0:00221/20/2017 23:003.200000047683712/12/2017 0:0080.712/12/2017 0:0016.21/20/2017 23:0023.11/20/2017 23:0055.31/20/2017 22:000.0
12/12/2017 1:0019.312/12/2017 1:00994.412/12/2017 1:00012/12/2017 1:001341/20/2017 22:002.900000095367412/12/2017 1:0083.812/12/2017 1:0016.61/20/2017 22:0023.41/20/2017 22:0055.31/20/2017 21:000.0
12/12/2017 2:0019.212/12/2017 2:00993.712/12/2017 2:00012/12/2017 2:002631/20/2017 21:003.099999904632612/12/2017 2:0085.112/12/2017 2:0016.71/20/2017 21:0023.71/20/2017 21:0055.31/20/2017 20:000.0
12/12/2017 3:0019.212/12/2017 3:00993.312/12/2017 3:00012/12/2017 3:002561/20/2017 20:003.700000047683712/12/2017 3:0084.712/12/2017 3:0016.61/20/2017 20:0023.81/20/2017 20:0055.31/20/2017 19:000.0
12/12/2017 4:0019.212/12/2017 4:00993.212/12/2017 4:00012/12/2017 4:002551/20/2017 19:003.900000095367412/12/2017 4:0084.212/12/2017 4:0016.51/20/2017 19:0024.01/20/2017 19:0055.31/20/2017 18:000.0
12/12/2017 5:0019.212/12/2017 5:00993.212/12/2017 5:00012/12/2017 5:002401/20/2017 18:004.900000095367412/12/2017 5:0084.712/12/2017 5:0016.61/20/2017 18:0024.41/20/2017 18:0055.31/20/2017 17:000.0
12/12/2017 6:0018.612/12/2017 6:00993.512/12/2017 6:00012/12/2017 6:001721/20/2017 17:005.199999809265112/12/2017 6:0088.312/12/2017 6:0016.71/20/2017 17:0025.41/20/2017 17:0055.31/20/2017 16:000.0
12/12/2017 7:0018.512/12/2017 7:00993.612/12/2017 7:001712/12/2017 7:001551/20/2017 16:005.699999809265112/12/2017 7:0090.112/12/2017 7:0016.91/20/2017 16:0026.01/20/2017 16:0055.31/20/2017 15:000.0
12/12/2017 8:0020.212/12/2017 8:00994.412/12/2017 8:0015412/12/2017 8:001651/20/2017 15:005.300000190734912/12/2017 8:0084.112/12/2017 8:0017.51/20/2017 15:0025.81/20/2017 15:0055.31/20/2017 14:000.0
12/12/2017 9:0023.012/12/2017 9:00994.812/12/2017 9:0040612/12/2017 9:002791/20/2017 14:005.599999904632612/12/2017 9:0072.312/12/2017 9:0017.81/20/2017 14:0026.21/20/2017 14:0055.31/20/2017 13:000.0
12/12/2017 10:0024.612/12/2017 10:00994.612/12/2017 10:0058212/12/2017 10:001061/20/2017 13:005.800000190734912/12/2017 10:0066.712/12/2017 10:0018.11/20/2017 13:0026.41/20/2017 13:0055.31/20/2017 12:000.0
12/12/2017 11:0025.412/12/2017 11:00994.312/12/2017 11:0048012/12/2017 11:001071/20/2017 12:005.300000190734912/12/2017 11:0064.912/12/2017 11:0018.41/20/2017 12:0026.01/20/2017 12:0055.31/20/2017 11:000.0
12/12/2017 12:0026.012/12/2017 12:00993.312/12/2017 12:0062812/12/2017 12:001251/20/2017 11:00512/12/2017 12:0063.112/12/2017 12:0018.51/20/2017 11:0025.21/20/2017 11:0055.31/20/2017 10:000.0
12/12/2017 13:0026.312/12/2017 13:00991.912/12/2017 13:0044212/12/2017 13:00711/20/2017 10:005.199999809265112/12/2017 13:0062.112/12/2017 13:0018.51/20/2017 10:0025.31/20/2017 10:0055.31/20/2017 9:000.0
12/12/2017 14:0026.312/12/2017 14:00991.012/12/2017 14:0027512/12/2017 14:001141/20/2017 9:004.099999904632612/12/2017 14:0062.912/12/2017 14:0018.71/20/2017 9:0025.21/20/2017 9:0055.31/20/2017 8:000.0
12/12/2017 15:0026.112/12/2017 15:00990.412/12/2017 15:0024712/12/2017 15:001131/20/2017 8:00412/12/2017 15:0064.012/12/2017 15:0018.81/20/2017 8:0024.31/20/2017 8:0055.31/20/2017 7:000.0
12/12/2017 16:0025.912/12/2017 16:00990.312/12/2017 16:0018912/12/2017 16:00651/20/2017 7:003.299999952316312/12/2017 16:0064.612/12/2017 16:0018.81/20/2017 7:0023.81/20/2017 7:0055.31/20/2017 6:000.0
12/12/2017 17:0024.912/12/2017 17:00990.612/12/2017 17:008912/12/2017 17:00551/20/2017 6:002.799999952316312/12/2017 17:0068.012/12/2017 17:0018.71/20/2017 6:0023.71/20/2017 6:0055.31/20/2017 5:000.0
12/12/2017 18:0023.412/12/2017 18:00991.112/12/2017 18:00212/12/2017 18:00351/20/2017 5:003.512/12/2017 18:0072.012/12/2017 18:0018.11/20/2017 5:0024.11/20/2017 5:0055.31/20/2017 4:000.0
12/12/2017 19:0022.712/12/2017 19:00991.712/12/2017 19:00012/12/2017 19:00441/20/2017 4:002.700000047683712/12/2017 19:0074.212/12/2017 19:0017.91/20/2017 4:0023.91/20/2017 4:0055.31/20/2017 3:000.0
12/12/2017 20:0022.312/12/2017 20:00992.512/12/2017 20:00012/12/2017 20:00521/20/2017 3:002.900000095367412/12/2017 20:0075.212/12/2017 20:0017.81/20/2017 3:0024.01/20/2017 3:0055.31/20/2017 2:000.0
12/12/2017 21:0021.912/12/2017 21:00993.012/12/2017 21:00012/12/2017 21:00461/20/2017 2:002.512/12/2017 21:0076.912/12/2017 21:0017.71/20/2017 2:0023.91/20/2017 2:0055.31/20/2017 1:000.0
12/12/2017 22:0021.512/12/2017 22:00993.012/12/2017 22:00012/12/2017 22:00491/20/2017 1:003.099999904632612/12/2017 22:0077.912/12/2017 22:0017.61/20/2017 1:0024.01/20/2017 1:0055.31/20/2017 0:000.0
12/12/2017 23:0020.912/12/2017 23:00992.912/12/2017 23:00012/12/2017 23:00451/20/2017 0:003.599999904632612/12/2017 23:0080.412/12/2017 23:0017.51/20/2017 0:0024.31/20/2017 0:0055.31/19/2017 23:000.0
12/13/2017 0:0019.712/13/2017 0:00992.712/13/2017 0:00012/13/2017 0:002961/19/2017 23:003.200000047683712/13/2017 0:0086.312/13/2017 0:0017.41/19/2017 23:0024.41/19/2017 23:0055.31/19/2017 22:000.0
12/13/2017 1:0018.712/13/2017 1:00992.812/13/2017 1:00012/13/2017 1:002851/19/2017 22:002.900000095367412/13/2017 1:0090.512/13/2017 1:0017.21/19/2017 22:0024.61/19/2017 22:0055.31/19/2017 21:000.0
12/13/2017 2:0018.012/13/2017 2:00992.612/13/2017 2:00012/13/2017 2:002781/19/2017 21:003.200000047683712/13/2017 2:0092.912/13/2017 2:0016.91/19/2017 21:0024.91/19/2017 21:0055.31/19/2017 20:000.0
12/13/2017 3:0017.812/13/2017 3:00992.112/13/2017 3:00012/13/2017 3:001801/19/2017 20:002.799999952316312/13/2017 3:0093.212/13/2017 3:0016.81/19/2017 20:0024.91/19/2017 20:0055.31/19/2017 19:000.0
12/13/2017 4:0017.612/13/2017 4:00991.612/13/2017 4:00012/13/2017 4:001871/19/2017 19:002.799999952316312/13/2017 4:0094.012/13/2017 4:0016.71/19/2017 19:0025.41/19/2017 19:0055.31/19/2017 18:000.0
12/13/2017 5:0017.512/13/2017 5:00991.812/13/2017 5:00012/13/2017 5:001721/19/2017 18:002.799999952316312/13/2017 5:0094.812/13/2017 5:0016.71/19/2017 18:0026.01/19/2017 18:0055.31/19/2017 17:000.0
12/13/2017 6:0016.912/13/2017 6:00992.212/13/2017 6:00012/13/2017 6:003431/19/2017 17:003.512/13/2017 6:0095.412/13/2017 6:0016.21/19/2017 17:0026.91/19/2017 17:0055.31/19/2017 16:000.0
12/13/2017 7:0017.112/13/2017 7:00992.812/13/2017 7:00912/13/2017 7:002841/19/2017 16:004.199999809265112/13/2017 7:0095.812/13/2017 7:0016.51/19/2017 16:0027.51/19/2017 16:0055.31/19/2017 15:000.0
12/13/2017 8:0018.412/13/2017 8:00993.512/13/2017 8:0015312/13/2017 8:003091/19/2017 15:00412/13/2017 8:0093.212/13/2017 8:0017.41/19/2017 15:0027.81/19/2017 15:0055.31/19/2017 14:000.0
12/13/2017 9:0021.812/13/2017 9:00993.712/13/2017 9:0031012/13/2017 9:001761/19/2017 14:003.900000095367412/13/2017 9:0079.112/13/2017 9:0018.11/19/2017 14:0027.71/19/2017 14:0055.31/19/2017 13:000.0
12/13/2017 10:0022.812/13/2017 10:00993.912/13/2017 10:0037712/13/2017 10:002931/19/2017 13:004.099999904632612/13/2017 10:0075.512/13/2017 10:0018.31/19/2017 13:0027.91/19/2017 13:0055.31/19/2017 12:000.0
12/13/2017 11:0023.612/13/2017 11:00993.512/13/2017 11:0028712/13/2017 11:003001/19/2017 12:004.099999904632612/13/2017 11:0072.712/13/2017 11:0018.51/19/2017 12:0028.01/19/2017 12:0055.31/19/2017 11:000.0
12/13/2017 12:0024.212/13/2017 12:00992.712/13/2017 12:0033612/13/2017 12:002761/19/2017 11:003.900000095367412/13/2017 12:0072.112/13/2017 12:0018.91/19/2017 11:0027.31/19/2017 11:0055.31/19/2017 10:000.0
12/13/2017 13:0025.912/13/2017 13:00991.212/13/2017 13:0050912/13/2017 13:003161/19/2017 10:00412/13/2017 13:0066.912/13/2017 13:0019.41/19/2017 10:0026.11/19/2017 10:0055.31/19/2017 9:000.0
12/13/2017 14:0028.312/13/2017 14:00989.712/13/2017 14:0063912/13/2017 14:001111/19/2017 9:00412/13/2017 14:0059.812/13/2017 14:0019.81/19/2017 9:0025.11/19/2017 9:0055.31/19/2017 8:000.0
12/13/2017 15:0029.512/13/2017 15:00988.812/13/2017 15:0048312/13/2017 15:001721/19/2017 8:00112/13/2017 15:0057.212/13/2017 15:0020.21/19/2017 8:0021.51/19/2017 8:0055.31/19/2017 7:000.0
12/13/2017 16:0029.812/13/2017 16:00988.312/13/2017 16:0031212/13/2017 16:002191/19/2017 7:001.100000023841912/13/2017 16:0057.112/13/2017 16:0020.51/19/2017 7:0020.31/19/2017 7:0055.31/19/2017 6:000.0
12/13/2017 17:0029.012/13/2017 17:00988.512/13/2017 17:0010712/13/2017 17:001401/19/2017 6:00112/13/2017 17:0060.712/13/2017 17:0020.71/19/2017 6:0019.91/19/2017 6:0055.31/19/2017 5:000.0
12/13/2017 18:0026.012/13/2017 18:00989.112/13/2017 18:00512/13/2017 18:0001/19/2017 5:00112/13/2017 18:0075.412/13/2017 18:0021.41/19/2017 5:0020.91/19/2017 5:0055.31/19/2017 4:000.0
12/13/2017 19:0023.712/13/2017 19:00989.912/13/2017 19:00012/13/2017 19:001221/19/2017 4:000.8999999761581412/13/2017 19:0086.712/13/2017 19:0021.41/19/2017 4:0021.61/19/2017 4:0055.31/19/2017 3:000.0
12/13/2017 20:0022.412/13/2017 20:00990.712/13/2017 20:00012/13/2017 20:001311/19/2017 3:00112/13/2017 20:0091.112/13/2017 20:0021.01/19/2017 3:0021.81/19/2017 3:0055.31/19/2017 2:000.0
12/13/2017 21:0022.012/13/2017 21:00991.212/13/2017 21:00012/13/2017 21:001371/19/2017 2:001.100000023841912/13/2017 21:0089.412/13/2017 21:0020.31/19/2017 2:0022.61/19/2017 2:0055.31/19/2017 1:000.0
12/13/2017 22:0021.512/13/2017 22:00991.612/13/2017 22:00012/13/2017 22:001481/19/2017 1:000.8999999761581412/13/2017 22:0088.212/13/2017 22:0019.51/19/2017 1:0023.11/19/2017 1:0055.31/19/2017 0:000.0
12/13/2017 23:0021.612/13/2017 23:00991.612/13/2017 23:00012/13/2017 23:001331/19/2017 0:001.700000047683712/13/2017 23:0087.012/13/2017 23:0019.41/19/2017 0:0023.61/19/2017 0:0055.31/18/2017 23:000.0
12/14/2017 0:0021.412/14/2017 0:00991.312/14/2017 0:00012/14/2017 0:001301/18/2017 23:002.200000047683712/14/2017 0:0086.512/14/2017 0:0019.11/18/2017 23:0023.71/18/2017 23:0055.31/18/2017 22:000.0
12/14/2017 1:0020.912/14/2017 1:00991.512/14/2017 1:00012/14/2017 1:001191/18/2017 22:001.799999952316312/14/2017 1:0087.312/14/2017 1:0018.81/18/2017 22:0023.91/18/2017 22:0055.31/18/2017 21:000.0
12/14/2017 2:0019.612/14/2017 2:00991.312/14/2017 2:00012/14/2017 2:002131/18/2017 21:002.599999904632612/14/2017 2:0092.512/14/2017 2:0018.41/18/2017 21:0023.91/18/2017 21:0055.31/18/2017 20:000.0
12/14/2017 3:0019.112/14/2017 3:00991.212/14/2017 3:00012/14/2017 3:002251/18/2017 20:002.200000047683712/14/2017 3:0094.412/14/2017 3:0018.31/18/2017 20:0023.81/18/2017 20:0055.31/18/2017 19:000.0
12/14/2017 4:0018.812/14/2017 4:00991.112/14/2017 4:00012/14/2017 4:002131/18/2017 19:001.799999952316312/14/2017 4:0095.212/14/2017 4:0018.11/18/2017 19:0024.11/18/2017 19:0055.31/18/2017 18:000.0
12/14/2017 5:0018.412/14/2017 5:00991.412/14/2017 5:00012/14/2017 5:001871/18/2017 18:002.799999952316312/14/2017 5:0095.412/14/2017 5:0017.71/18/2017 18:0025.01/18/2017 18:0055.31/18/2017 17:000.0
12/14/2017 6:0018.112/14/2017 6:00991.912/14/2017 6:00012/14/2017 6:001571/18/2017 17:003.512/14/2017 6:0095.912/14/2017 6:0017.51/18/2017 17:0025.91/18/2017 17:0055.31/18/2017 16:000.0
12/14/2017 7:0017.812/14/2017 7:00992.712/14/2017 7:001512/14/2017 7:002611/18/2017 16:00412/14/2017 7:0096.312/14/2017 7:0017.31/18/2017 16:0026.51/18/2017 16:0055.31/18/2017 15:000.0
12/14/2017 8:0019.112/14/2017 8:00993.512/14/2017 8:0012112/14/2017 8:001861/18/2017 15:00412/14/2017 8:0095.212/14/2017 8:0018.41/18/2017 15:0026.91/18/2017 15:0055.31/18/2017 14:000.0
12/14/2017 9:0022.012/14/2017 9:00993.912/14/2017 9:0035812/14/2017 9:002871/18/2017 14:004.400000095367412/14/2017 9:0084.512/14/2017 9:0019.31/18/2017 14:0027.21/18/2017 14:0055.31/18/2017 13:000.0
12/14/2017 10:0026.012/14/2017 10:00993.712/14/2017 10:0061112/14/2017 10:00551/18/2017 13:004.512/14/2017 10:0067.512/14/2017 10:0019.61/18/2017 13:0027.61/18/2017 13:0055.31/18/2017 12:000.0
12/14/2017 11:0027.712/14/2017 11:00993.012/14/2017 11:0073312/14/2017 11:00151/18/2017 12:004.800000190734912/14/2017 11:0061.012/14/2017 11:0019.61/18/2017 12:0027.71/18/2017 12:0055.31/18/2017 11:000.0
12/14/2017 12:0029.212/14/2017 12:00992.012/14/2017 12:0078612/14/2017 12:00451/18/2017 11:004.900000095367412/14/2017 12:0056.012/14/2017 12:0019.61/18/2017 11:0027.01/18/2017 11:0055.31/18/2017 10:000.0
12/14/2017 13:0029.312/14/2017 13:00990.812/14/2017 13:0043212/14/2017 13:00321/18/2017 10:005.300000190734912/14/2017 13:0055.212/14/2017 13:0019.51/18/2017 10:0026.01/18/2017 10:0055.31/18/2017 9:000.0
12/14/2017 14:0029.912/14/2017 14:00989.812/14/2017 14:0056412/14/2017 14:00571/18/2017 9:004.199999809265112/14/2017 14:0053.112/14/2017 14:0019.41/18/2017 9:0025.01/18/2017 9:0055.31/18/2017 8:000.0
12/14/2017 15:0029.112/14/2017 15:00989.512/14/2017 15:0042112/14/2017 15:00551/18/2017 8:002.599999904632612/14/2017 15:0055.112/14/2017 15:0019.21/18/2017 8:0023.51/18/2017 8:0055.31/18/2017 7:000.0
12/14/2017 16:0027.812/14/2017 16:00989.712/14/2017 16:0031012/14/2017 16:00421/18/2017 7:001.700000047683712/14/2017 16:0059.312/14/2017 16:0019.21/18/2017 7:0023.31/18/2017 7:0055.31/18/2017 6:000.0
12/14/2017 17:0025.912/14/2017 17:00990.312/14/2017 17:0013612/14/2017 17:00411/18/2017 6:001.399999976158112/14/2017 17:0064.312/14/2017 17:0018.71/18/2017 6:0023.11/18/2017 6:0055.31/18/2017 5:000.0
12/14/2017 18:0024.212/14/2017 18:00991.012/14/2017 18:00712/14/2017 18:00401/18/2017 5:001.899999976158112/14/2017 18:0069.512/14/2017 18:0018.31/18/2017 5:0023.11/18/2017 5:0055.31/18/2017 4:000.0
12/14/2017 19:0023.212/14/2017 19:00991.912/14/2017 19:00012/14/2017 19:00351/18/2017 4:002.200000047683712/14/2017 19:0072.912/14/2017 19:0018.11/18/2017 4:0022.51/18/2017 4:0055.31/18/2017 3:000.0
12/14/2017 20:0024.912/14/2017 20:009.012/14/2017 20:0013.512/14/2017 20:00141/18/2017 3:002.099999904632612/14/2017 20:00995.112/14/2017 21:0017.81/18/2017 3:0022.51/18/2017 3:0055.31/18/2017 2:000.0
12/14/2017 21:0022.412/14/2017 21:00993.412/14/2017 21:00012/14/2017 21:00371/18/2017 2:002.599999904632612/14/2017 21:0074.712/14/2017 22:0017.61/18/2017 2:0022.61/18/2017 2:0055.31/18/2017 1:000.0
12/14/2017 22:0022.112/14/2017 22:00993.712/14/2017 22:00012/14/2017 22:00361/18/2017 1:003.299999952316312/14/2017 22:0075.512/14/2017 23:0017.51/18/2017 1:0022.81/18/2017 1:0055.31/18/2017 0:000.0
12/14/2017 23:0021.912/14/2017 23:00993.612/14/2017 23:00012/14/2017 23:00381/18/2017 0:003.700000047683712/14/2017 23:0075.912/15/2017 0:0017.41/18/2017 0:0022.91/18/2017 0:0055.31/17/2017 23:000.0
12/15/2017 0:0021.712/15/2017 0:00993.212/15/2017 0:00012/15/2017 0:00421/17/2017 23:004.400000095367412/15/2017 0:0076.012/15/2017 1:0017.31/17/2017 23:0023.01/17/2017 23:0055.31/17/2017 22:000.0
12/15/2017 1:0021.412/15/2017 1:00993.012/15/2017 1:00012/15/2017 1:00391/17/2017 22:004.199999809265112/15/2017 1:0077.012/15/2017 2:0017.31/17/2017 22:0023.01/17/2017 22:0055.31/17/2017 21:000.0
12/15/2017 2:0021.312/15/2017 2:00992.612/15/2017 2:00012/15/2017 2:00251/17/2017 21:004.300000190734912/15/2017 2:0077.812/15/2017 3:0017.31/17/2017 21:0023.01/17/2017 21:0055.31/17/2017 20:000.0
12/15/2017 3:0021.212/15/2017 3:00992.112/15/2017 3:00012/15/2017 3:00331/17/2017 20:003.599999904632612/15/2017 3:0078.312/15/2017 4:0017.31/17/2017 20:0023.21/17/2017 20:0055.31/17/2017 19:000.0
12/15/2017 4:0021.112/15/2017 4:00991.912/15/2017 4:00012/15/2017 4:00241/17/2017 19:00412/15/2017 4:0078.612/15/2017 5:0017.31/17/2017 19:0023.51/17/2017 19:0055.31/17/2017 18:000.0
12/15/2017 5:0021.112/15/2017 5:00992.112/15/2017 5:00012/15/2017 5:00241/17/2017 18:005.099999904632612/15/2017 5:0078.812/15/2017 6:0017.31/17/2017 18:0023.61/17/2017 18:0055.31/17/2017 17:000.0
12/15/2017 6:0021.112/15/2017 6:00992.612/15/2017 6:00012/15/2017 6:00321/17/2017 17:005.099999904632612/15/2017 6:0078.812/15/2017 7:0017.41/17/2017 17:0024.01/17/2017 17:0055.31/17/2017 16:000.0
12/15/2017 7:0021.212/15/2017 7:00993.512/15/2017 7:001912/15/2017 7:00361/17/2017 16:005.512/15/2017 7:0078.412/15/2017 8:0017.61/17/2017 16:0024.61/17/2017 16:0055.31/17/2017 15:000.0
12/15/2017 8:0022.212/15/2017 8:00994.412/15/2017 8:0019312/15/2017 8:00441/17/2017 15:005.599999904632612/15/2017 8:0074.812/15/2017 9:0017.81/17/2017 15:0025.81/17/2017 15:0055.31/17/2017 14:000.0
12/15/2017 9:0023.512/15/2017 9:00995.212/15/2017 9:0042812/15/2017 9:00491/17/2017 14:00512/15/2017 9:0070.112/15/2017 10:0017.91/17/2017 14:0026.91/17/2017 14:0055.31/17/2017 13:000.0
12/15/2017 10:0024.612/15/2017 10:00995.412/15/2017 10:0062112/15/2017 10:00481/17/2017 13:005.800000190734912/15/2017 10:0065.912/15/2017 11:0017.91/17/2017 13:0026.71/17/2017 13:0055.31/17/2017 12:000.0
12/15/2017 11:0025.612/15/2017 11:00995.112/15/2017 11:0074812/15/2017 11:00501/17/2017 12:005.599999904632612/15/2017 11:0062.312/15/2017 12:0018.01/17/2017 12:0026.41/17/2017 12:0055.31/17/2017 11:000.0
12/15/2017 12:0026.312/15/2017 12:00994.212/15/2017 12:0082012/15/2017 12:00441/17/2017 11:00512/15/2017 12:0060.012/15/2017 13:0017.81/17/2017 11:0025.91/17/2017 11:0055.31/17/2017 10:000.0
12/15/2017 13:0026.112/15/2017 13:00993.212/15/2017 13:0082912/15/2017 13:00491/17/2017 10:004.300000190734912/15/2017 13:0060.112/15/2017 14:0017.51/17/2017 10:0025.31/17/2017 10:0055.31/17/2017 9:000.0
12/15/2017 14:0025.612/15/2017 14:00992.512/15/2017 14:0074112/15/2017 14:00441/17/2017 9:004.199999809265112/15/2017 14:0060.812/15/2017 15:0017.11/17/2017 9:0023.91/17/2017 9:0055.31/17/2017 8:000.0
12/15/2017 15:0024.312/15/2017 15:00992.512/15/2017 15:0047412/15/2017 15:00491/17/2017 8:004.099999904632612/15/2017 15:0064.012/15/2017 16:0016.91/17/2017 8:0022.71/17/2017 8:0055.31/17/2017 7:000.0
12/15/2017 16:0023.312/15/2017 16:00992.512/15/2017 16:0021112/15/2017 16:00551/17/2017 7:003.299999952316312/15/2017 16:0067.012/15/2017 17:0016.81/17/2017 7:0022.51/17/2017 7:0055.31/17/2017 6:000.0
12/15/2017 17:0022.712/15/2017 17:00993.212/15/2017 17:007612/15/2017 17:00551/17/2017 6:002.299999952316312/15/2017 17:0069.012/15/2017 18:0016.61/17/2017 6:0022.51/17/2017 6:0055.31/17/2017 5:000.0
12/15/2017 18:0022.312/15/2017 18:00993.912/15/2017 18:00712/15/2017 18:00541/17/2017 5:003.200000047683712/15/2017 18:0069.812/15/2017 19:0016.41/17/2017 5:0022.51/17/2017 5:0055.31/17/2017 4:000.0
12/15/2017 19:0022.212/15/2017 19:00994.712/15/2017 19:00012/15/2017 19:00581/17/2017 4:003.512/15/2017 19:0069.212/15/2017 20:0016.31/17/2017 4:0022.41/17/2017 4:0055.31/17/2017 3:000.0
12/15/2017 20:0021.912/15/2017 20:00995.512/15/2017 20:00012/15/2017 20:00681/17/2017 3:003.400000095367412/15/2017 20:0070.412/15/2017 21:0016.31/17/2017 3:0022.41/17/2017 3:0055.31/17/2017 2:000.0
12/15/2017 21:0021.712/15/2017 21:00996.312/15/2017 21:00012/15/2017 21:00671/17/2017 2:002.512/15/2017 21:0071.012/15/2017 22:0016.31/17/2017 2:0022.51/17/2017 2:0055.31/17/2017 1:000.0
12/15/2017 22:0021.712/15/2017 22:00996.512/15/2017 22:00012/15/2017 22:00741/17/2017 1:003.099999904632612/15/2017 22:0071.212/15/2017 23:0016.31/17/2017 1:0022.51/17/2017 1:0055.31/16/2017 0:000.0
12/15/2017 23:0021.612/15/2017 23:00996.212/15/2017 23:00012/15/2017 23:00661/16/2017 0:004.400000095367412/15/2017 23:0071.312/16/2017 0:0016.21/16/2017 0:0022.21/16/2017 0:0055.31/4/2017 15:000.0
12/16/2017 0:0021.512/16/2017 0:00995.912/16/2017 0:00012/16/2017 0:00691/4/2017 15:004.800000190734912/16/2017 0:0071.51/4/2017 15:0025.11/4/2017 15:0055.3